<?xml version="1.0" encoding="UTF-8" standalone="no" ?>
<gpx xmlns="http://www.topografix.com/GPX/1/1" xmlns:xsi="http://www.w3.org/2001/XMLSchema-instance" xsi:schemaLocation="http://www.topografix.com/GPX/1/1 http://www.topografix.com/GPX/1/1/gpx.xsd" version="1.1" creator="VisuGPX - https://www.visugpx.com">
  <metadata>
    <name>Les gays - St Igny boulangerie</name>
    <desc><![CDATA[Les gays - St Igny boulangerie]]></desc>
  </metadata>
  <trk>
    <name><![CDATA[exercise]]></name>
    <trkseg>
      <trkpt lat="46.25778" lon="4.42498">
        <ele>513.5</ele>
        <time>2013-07-10T08:36:06Z</time>
      </trkpt>
      <trkpt lat="46.25778" lon="4.42498">
        <ele>513.5</ele>
        <time>2013-07-10T08:36:07Z</time>
      </trkpt>
      <trkpt lat="46.25778" lon="4.42498">
        <ele>513.5</ele>
        <time>2013-07-10T08:36:08Z</time>
      </trkpt>
      <trkpt lat="46.25777" lon="4.42498">
        <ele>513.4</ele>
        <time>2013-07-10T08:36:09Z</time>
      </trkpt>
      <trkpt lat="46.25776" lon="4.42498">
        <ele>513.3</ele>
        <time>2013-07-10T08:36:10Z</time>
      </trkpt>
      <trkpt lat="46.25774" lon="4.42498">
        <ele>513.2</ele>
        <time>2013-07-10T08:36:11Z</time>
      </trkpt>
      <trkpt lat="46.25773" lon="4.42499">
        <ele>513.1</ele>
        <time>2013-07-10T08:36:12Z</time>
      </trkpt>
      <trkpt lat="46.25771" lon="4.425">
        <ele>513.2</ele>
        <time>2013-07-10T08:36:13Z</time>
      </trkpt>
      <trkpt lat="46.25769" lon="4.42501">
        <ele>513.1</ele>
        <time>2013-07-10T08:36:14Z</time>
      </trkpt>
      <trkpt lat="46.25767" lon="4.42502">
        <ele>513.1</ele>
        <time>2013-07-10T08:36:15Z</time>
      </trkpt>
      <trkpt lat="46.25764" lon="4.42503">
        <ele>513.1</ele>
        <time>2013-07-10T08:36:16Z</time>
      </trkpt>
      <trkpt lat="46.25762" lon="4.42504">
        <ele>513.2</ele>
        <time>2013-07-10T08:36:17Z</time>
      </trkpt>
      <trkpt lat="46.25761" lon="4.42506">
        <ele>513.3</ele>
        <time>2013-07-10T08:36:18Z</time>
      </trkpt>
      <trkpt lat="46.2576" lon="4.42506">
        <ele>513.3</ele>
        <time>2013-07-10T08:36:19Z</time>
      </trkpt>
      <trkpt lat="46.25759" lon="4.42507">
        <ele>513.3</ele>
        <time>2013-07-10T08:36:20Z</time>
      </trkpt>
      <trkpt lat="46.25758" lon="4.42507">
        <ele>513.3</ele>
        <time>2013-07-10T08:36:21Z</time>
      </trkpt>
      <trkpt lat="46.25758" lon="4.42507">
        <ele>513.3</ele>
        <time>2013-07-10T08:36:22Z</time>
      </trkpt>
      <trkpt lat="46.25757" lon="4.42507">
        <ele>513.2</ele>
        <time>2013-07-10T08:36:23Z</time>
      </trkpt>
      <trkpt lat="46.25756" lon="4.42508">
        <ele>513.2</ele>
        <time>2013-07-10T08:36:24Z</time>
      </trkpt>
      <trkpt lat="46.25755" lon="4.42508">
        <ele>513.2</ele>
        <time>2013-07-10T08:36:25Z</time>
      </trkpt>
      <trkpt lat="46.25755" lon="4.42508">
        <ele>513.1</ele>
        <time>2013-07-10T08:36:26Z</time>
      </trkpt>
      <trkpt lat="46.25754" lon="4.42508">
        <ele>513.1</ele>
        <time>2013-07-10T08:36:27Z</time>
      </trkpt>
      <trkpt lat="46.25753" lon="4.42508">
        <ele>513.1</ele>
        <time>2013-07-10T08:36:28Z</time>
      </trkpt>
      <trkpt lat="46.25751" lon="4.42509">
        <ele>513</ele>
        <time>2013-07-10T08:36:29Z</time>
      </trkpt>
      <trkpt lat="46.2575" lon="4.4251">
        <ele>513</ele>
        <time>2013-07-10T08:36:30Z</time>
      </trkpt>
      <trkpt lat="46.25748" lon="4.4251">
        <ele>513</ele>
        <time>2013-07-10T08:36:31Z</time>
      </trkpt>
      <trkpt lat="46.25746" lon="4.42511">
        <ele>513.1</ele>
        <time>2013-07-10T08:36:32Z</time>
      </trkpt>
      <trkpt lat="46.25744" lon="4.42511">
        <ele>513.1</ele>
        <time>2013-07-10T08:36:33Z</time>
      </trkpt>
      <trkpt lat="46.25743" lon="4.42512">
        <ele>513.1</ele>
        <time>2013-07-10T08:36:34Z</time>
      </trkpt>
      <trkpt lat="46.25742" lon="4.42512">
        <ele>513.1</ele>
        <time>2013-07-10T08:36:35Z</time>
      </trkpt>
      <trkpt lat="46.2574" lon="4.42512">
        <ele>513.2</ele>
        <time>2013-07-10T08:36:36Z</time>
      </trkpt>
      <trkpt lat="46.25739" lon="4.42513">
        <ele>513.1</ele>
        <time>2013-07-10T08:36:37Z</time>
      </trkpt>
      <trkpt lat="46.25737" lon="4.42513">
        <ele>513</ele>
        <time>2013-07-10T08:36:38Z</time>
      </trkpt>
      <trkpt lat="46.25734" lon="4.42513">
        <ele>513</ele>
        <time>2013-07-10T08:36:39Z</time>
      </trkpt>
      <trkpt lat="46.25732" lon="4.42514">
        <ele>513</ele>
        <time>2013-07-10T08:36:40Z</time>
      </trkpt>
      <trkpt lat="46.2573" lon="4.42515">
        <ele>513.1</ele>
        <time>2013-07-10T08:36:41Z</time>
      </trkpt>
      <trkpt lat="46.25727" lon="4.42515">
        <ele>513</ele>
        <time>2013-07-10T08:36:42Z</time>
      </trkpt>
      <trkpt lat="46.25725" lon="4.42516">
        <ele>513.1</ele>
        <time>2013-07-10T08:36:43Z</time>
      </trkpt>
      <trkpt lat="46.25723" lon="4.42517">
        <ele>513.1</ele>
        <time>2013-07-10T08:36:44Z</time>
      </trkpt>
      <trkpt lat="46.2572" lon="4.42518">
        <ele>513.2</ele>
        <time>2013-07-10T08:36:45Z</time>
      </trkpt>
      <trkpt lat="46.25717" lon="4.42519">
        <ele>513.4</ele>
        <time>2013-07-10T08:36:46Z</time>
      </trkpt>
      <trkpt lat="46.25715" lon="4.42519">
        <ele>513.5</ele>
        <time>2013-07-10T08:36:47Z</time>
      </trkpt>
      <trkpt lat="46.25713" lon="4.4252">
        <ele>513.6</ele>
        <time>2013-07-10T08:36:48Z</time>
      </trkpt>
      <trkpt lat="46.2571" lon="4.42521">
        <ele>513.8</ele>
        <time>2013-07-10T08:36:49Z</time>
      </trkpt>
      <trkpt lat="46.25707" lon="4.42522">
        <ele>514</ele>
        <time>2013-07-10T08:36:50Z</time>
      </trkpt>
      <trkpt lat="46.25705" lon="4.42523">
        <ele>514.2</ele>
        <time>2013-07-10T08:36:51Z</time>
      </trkpt>
      <trkpt lat="46.25702" lon="4.42524">
        <ele>514.2</ele>
        <time>2013-07-10T08:36:52Z</time>
      </trkpt>
      <trkpt lat="46.25699" lon="4.42525">
        <ele>514.4</ele>
        <time>2013-07-10T08:36:53Z</time>
      </trkpt>
      <trkpt lat="46.25697" lon="4.42526">
        <ele>514.6</ele>
        <time>2013-07-10T08:36:54Z</time>
      </trkpt>
      <trkpt lat="46.25694" lon="4.42526">
        <ele>514.7</ele>
        <time>2013-07-10T08:36:55Z</time>
      </trkpt>
      <trkpt lat="46.25692" lon="4.42527">
        <ele>514.8</ele>
        <time>2013-07-10T08:36:56Z</time>
      </trkpt>
      <trkpt lat="46.2569" lon="4.42527">
        <ele>514.8</ele>
        <time>2013-07-10T08:36:57Z</time>
      </trkpt>
      <trkpt lat="46.25688" lon="4.42527">
        <ele>514.9</ele>
        <time>2013-07-10T08:36:58Z</time>
      </trkpt>
      <trkpt lat="46.25686" lon="4.42528">
        <ele>515.1</ele>
        <time>2013-07-10T08:36:59Z</time>
      </trkpt>
      <trkpt lat="46.25683" lon="4.42529">
        <ele>515.2</ele>
        <time>2013-07-10T08:37:00Z</time>
      </trkpt>
      <trkpt lat="46.25681" lon="4.42529">
        <ele>515.3</ele>
        <time>2013-07-10T08:37:01Z</time>
      </trkpt>
      <trkpt lat="46.25679" lon="4.4253">
        <ele>515.4</ele>
        <time>2013-07-10T08:37:02Z</time>
      </trkpt>
      <trkpt lat="46.25677" lon="4.4253">
        <ele>515.5</ele>
        <time>2013-07-10T08:37:03Z</time>
      </trkpt>
      <trkpt lat="46.25675" lon="4.42531">
        <ele>515.7</ele>
        <time>2013-07-10T08:37:04Z</time>
      </trkpt>
      <trkpt lat="46.25672" lon="4.42532">
        <ele>515.8</ele>
        <time>2013-07-10T08:37:05Z</time>
      </trkpt>
      <trkpt lat="46.2567" lon="4.42533">
        <ele>515.9</ele>
        <time>2013-07-10T08:37:06Z</time>
      </trkpt>
      <trkpt lat="46.25668" lon="4.42533">
        <ele>515.9</ele>
        <time>2013-07-10T08:37:07Z</time>
      </trkpt>
      <trkpt lat="46.25665" lon="4.42533">
        <ele>515.9</ele>
        <time>2013-07-10T08:37:08Z</time>
      </trkpt>
      <trkpt lat="46.25663" lon="4.42534">
        <ele>516</ele>
        <time>2013-07-10T08:37:09Z</time>
      </trkpt>
      <trkpt lat="46.25661" lon="4.42535">
        <ele>516</ele>
        <time>2013-07-10T08:37:10Z</time>
      </trkpt>
      <trkpt lat="46.25658" lon="4.42536">
        <ele>516.1</ele>
        <time>2013-07-10T08:37:11Z</time>
      </trkpt>
      <trkpt lat="46.25656" lon="4.42536">
        <ele>516</ele>
        <time>2013-07-10T08:37:12Z</time>
      </trkpt>
      <trkpt lat="46.25654" lon="4.42536">
        <ele>515.9</ele>
        <time>2013-07-10T08:37:13Z</time>
      </trkpt>
      <trkpt lat="46.25652" lon="4.42537">
        <ele>515.9</ele>
        <time>2013-07-10T08:37:14Z</time>
      </trkpt>
      <trkpt lat="46.2565" lon="4.42538">
        <ele>515.9</ele>
        <time>2013-07-10T08:37:15Z</time>
      </trkpt>
      <trkpt lat="46.25647" lon="4.42538">
        <ele>515.9</ele>
        <time>2013-07-10T08:37:16Z</time>
      </trkpt>
      <trkpt lat="46.25645" lon="4.42539">
        <ele>515.9</ele>
        <time>2013-07-10T08:37:17Z</time>
      </trkpt>
      <trkpt lat="46.25643" lon="4.42539">
        <ele>515.8</ele>
        <time>2013-07-10T08:37:18Z</time>
      </trkpt>
      <trkpt lat="46.25641" lon="4.4254">
        <ele>515.8</ele>
        <time>2013-07-10T08:37:19Z</time>
      </trkpt>
      <trkpt lat="46.25639" lon="4.4254">
        <ele>515.8</ele>
        <time>2013-07-10T08:37:20Z</time>
      </trkpt>
      <trkpt lat="46.25637" lon="4.42541">
        <ele>515.7</ele>
        <time>2013-07-10T08:37:21Z</time>
      </trkpt>
      <trkpt lat="46.25634" lon="4.42541">
        <ele>515.6</ele>
        <time>2013-07-10T08:37:22Z</time>
      </trkpt>
      <trkpt lat="46.25632" lon="4.42542">
        <ele>515.6</ele>
        <time>2013-07-10T08:37:23Z</time>
      </trkpt>
      <trkpt lat="46.2563" lon="4.42543">
        <ele>515.5</ele>
        <time>2013-07-10T08:37:24Z</time>
      </trkpt>
      <trkpt lat="46.25628" lon="4.42544">
        <ele>515.5</ele>
        <time>2013-07-10T08:37:25Z</time>
      </trkpt>
      <trkpt lat="46.25626" lon="4.42544">
        <ele>515.4</ele>
        <time>2013-07-10T08:37:26Z</time>
      </trkpt>
      <trkpt lat="46.25623" lon="4.42545">
        <ele>515.4</ele>
        <time>2013-07-10T08:37:27Z</time>
      </trkpt>
      <trkpt lat="46.25621" lon="4.42546">
        <ele>515.3</ele>
        <time>2013-07-10T08:37:28Z</time>
      </trkpt>
      <trkpt lat="46.25619" lon="4.42546">
        <ele>515.2</ele>
        <time>2013-07-10T08:37:29Z</time>
      </trkpt>
      <trkpt lat="46.25617" lon="4.42547">
        <ele>515.2</ele>
        <time>2013-07-10T08:37:30Z</time>
      </trkpt>
      <trkpt lat="46.25615" lon="4.42548">
        <ele>515.2</ele>
        <time>2013-07-10T08:37:31Z</time>
      </trkpt>
      <trkpt lat="46.25613" lon="4.4255">
        <ele>515.3</ele>
        <time>2013-07-10T08:37:32Z</time>
      </trkpt>
      <trkpt lat="46.25611" lon="4.42551">
        <ele>515.3</ele>
        <time>2013-07-10T08:37:33Z</time>
      </trkpt>
      <trkpt lat="46.25609" lon="4.42552">
        <ele>515.1</ele>
        <time>2013-07-10T08:37:34Z</time>
      </trkpt>
      <trkpt lat="46.25606" lon="4.42553">
        <ele>515</ele>
        <time>2013-07-10T08:37:35Z</time>
      </trkpt>
      <trkpt lat="46.25604" lon="4.42554">
        <ele>514.9</ele>
        <time>2013-07-10T08:37:36Z</time>
      </trkpt>
      <trkpt lat="46.25603" lon="4.42556">
        <ele>514.8</ele>
        <time>2013-07-10T08:37:37Z</time>
      </trkpt>
      <trkpt lat="46.25601" lon="4.42558">
        <ele>514.7</ele>
        <time>2013-07-10T08:37:38Z</time>
      </trkpt>
      <trkpt lat="46.25599" lon="4.42559">
        <ele>514.6</ele>
        <time>2013-07-10T08:37:39Z</time>
      </trkpt>
      <trkpt lat="46.25597" lon="4.42561">
        <ele>514.4</ele>
        <time>2013-07-10T08:37:40Z</time>
      </trkpt>
      <trkpt lat="46.25595" lon="4.42563">
        <ele>514.3</ele>
        <time>2013-07-10T08:37:41Z</time>
      </trkpt>
      <trkpt lat="46.25594" lon="4.42565">
        <ele>514.2</ele>
        <time>2013-07-10T08:37:42Z</time>
      </trkpt>
      <trkpt lat="46.25592" lon="4.42567">
        <ele>514.1</ele>
        <time>2013-07-10T08:37:43Z</time>
      </trkpt>
      <trkpt lat="46.2559" lon="4.42569">
        <ele>514</ele>
        <time>2013-07-10T08:37:44Z</time>
      </trkpt>
      <trkpt lat="46.25588" lon="4.42572">
        <ele>513.9</ele>
        <time>2013-07-10T08:37:45Z</time>
      </trkpt>
      <trkpt lat="46.25587" lon="4.42574">
        <ele>513.9</ele>
        <time>2013-07-10T08:37:46Z</time>
      </trkpt>
      <trkpt lat="46.25585" lon="4.42577">
        <ele>513.8</ele>
        <time>2013-07-10T08:37:47Z</time>
      </trkpt>
      <trkpt lat="46.25584" lon="4.4258">
        <ele>513.8</ele>
        <time>2013-07-10T08:37:48Z</time>
      </trkpt>
      <trkpt lat="46.25583" lon="4.42583">
        <ele>513.8</ele>
        <time>2013-07-10T08:37:49Z</time>
      </trkpt>
      <trkpt lat="46.25581" lon="4.42586">
        <ele>513.6</ele>
        <time>2013-07-10T08:37:50Z</time>
      </trkpt>
      <trkpt lat="46.2558" lon="4.4259">
        <ele>513.4</ele>
        <time>2013-07-10T08:37:51Z</time>
      </trkpt>
      <trkpt lat="46.25579" lon="4.42593">
        <ele>513.2</ele>
        <time>2013-07-10T08:37:52Z</time>
      </trkpt>
      <trkpt lat="46.25578" lon="4.42597">
        <ele>513</ele>
        <time>2013-07-10T08:37:53Z</time>
      </trkpt>
      <trkpt lat="46.25578" lon="4.426">
        <ele>513</ele>
        <time>2013-07-10T08:37:54Z</time>
      </trkpt>
      <trkpt lat="46.25577" lon="4.42603">
        <ele>513</ele>
        <time>2013-07-10T08:37:55Z</time>
      </trkpt>
      <trkpt lat="46.25576" lon="4.42607">
        <ele>512.9</ele>
        <time>2013-07-10T08:37:56Z</time>
      </trkpt>
      <trkpt lat="46.25576" lon="4.4261">
        <ele>512.8</ele>
        <time>2013-07-10T08:37:57Z</time>
      </trkpt>
      <trkpt lat="46.25575" lon="4.42614">
        <ele>512.6</ele>
        <time>2013-07-10T08:37:58Z</time>
      </trkpt>
      <trkpt lat="46.25575" lon="4.42618">
        <ele>512.4</ele>
        <time>2013-07-10T08:37:59Z</time>
      </trkpt>
      <trkpt lat="46.25575" lon="4.42622">
        <ele>512.4</ele>
        <time>2013-07-10T08:38:00Z</time>
      </trkpt>
      <trkpt lat="46.25575" lon="4.42625">
        <ele>512.3</ele>
        <time>2013-07-10T08:38:01Z</time>
      </trkpt>
      <trkpt lat="46.25575" lon="4.42629">
        <ele>512.3</ele>
        <time>2013-07-10T08:38:02Z</time>
      </trkpt>
      <trkpt lat="46.25575" lon="4.42632">
        <ele>512.3</ele>
        <time>2013-07-10T08:38:03Z</time>
      </trkpt>
      <trkpt lat="46.25575" lon="4.42636">
        <ele>512.3</ele>
        <time>2013-07-10T08:38:04Z</time>
      </trkpt>
      <trkpt lat="46.25575" lon="4.42639">
        <ele>512.3</ele>
        <time>2013-07-10T08:38:05Z</time>
      </trkpt>
      <trkpt lat="46.25575" lon="4.42643">
        <ele>512.2</ele>
        <time>2013-07-10T08:38:06Z</time>
      </trkpt>
      <trkpt lat="46.25576" lon="4.42648">
        <ele>512.2</ele>
        <time>2013-07-10T08:38:07Z</time>
      </trkpt>
      <trkpt lat="46.25576" lon="4.42652">
        <ele>512.2</ele>
        <time>2013-07-10T08:38:08Z</time>
      </trkpt>
      <trkpt lat="46.25577" lon="4.42655">
        <ele>512.3</ele>
        <time>2013-07-10T08:38:09Z</time>
      </trkpt>
      <trkpt lat="46.25578" lon="4.42659">
        <ele>512.4</ele>
        <time>2013-07-10T08:38:10Z</time>
      </trkpt>
      <trkpt lat="46.25578" lon="4.42662">
        <ele>512.5</ele>
        <time>2013-07-10T08:38:11Z</time>
      </trkpt>
      <trkpt lat="46.25579" lon="4.42665">
        <ele>512.6</ele>
        <time>2013-07-10T08:38:12Z</time>
      </trkpt>
      <trkpt lat="46.25579" lon="4.42668">
        <ele>512.5</ele>
        <time>2013-07-10T08:38:13Z</time>
      </trkpt>
      <trkpt lat="46.2558" lon="4.42672">
        <ele>512.5</ele>
        <time>2013-07-10T08:38:14Z</time>
      </trkpt>
      <trkpt lat="46.25581" lon="4.42675">
        <ele>512.3</ele>
        <time>2013-07-10T08:38:15Z</time>
      </trkpt>
      <trkpt lat="46.25582" lon="4.42679">
        <ele>512.1</ele>
        <time>2013-07-10T08:38:16Z</time>
      </trkpt>
      <trkpt lat="46.25582" lon="4.42682">
        <ele>512</ele>
        <time>2013-07-10T08:38:17Z</time>
      </trkpt>
      <trkpt lat="46.25583" lon="4.42685">
        <ele>511.9</ele>
        <time>2013-07-10T08:38:18Z</time>
      </trkpt>
      <trkpt lat="46.25584" lon="4.42689">
        <ele>511.8</ele>
        <time>2013-07-10T08:38:19Z</time>
      </trkpt>
      <trkpt lat="46.25584" lon="4.42691">
        <ele>511.7</ele>
        <time>2013-07-10T08:38:20Z</time>
      </trkpt>
      <trkpt lat="46.25585" lon="4.42694">
        <ele>511.6</ele>
        <time>2013-07-10T08:38:21Z</time>
      </trkpt>
      <trkpt lat="46.25586" lon="4.42698">
        <ele>511.6</ele>
        <time>2013-07-10T08:38:22Z</time>
      </trkpt>
      <trkpt lat="46.25587" lon="4.42702">
        <ele>511.8</ele>
        <time>2013-07-10T08:38:23Z</time>
      </trkpt>
      <trkpt lat="46.25588" lon="4.42705">
        <ele>511.9</ele>
        <time>2013-07-10T08:38:24Z</time>
      </trkpt>
      <trkpt lat="46.25589" lon="4.42709">
        <ele>511.9</ele>
        <time>2013-07-10T08:38:25Z</time>
      </trkpt>
      <trkpt lat="46.25589" lon="4.42713">
        <ele>511.8</ele>
        <time>2013-07-10T08:38:26Z</time>
      </trkpt>
      <trkpt lat="46.2559" lon="4.42717">
        <ele>511.6</ele>
        <time>2013-07-10T08:38:27Z</time>
      </trkpt>
      <trkpt lat="46.2559" lon="4.42721">
        <ele>511.4</ele>
        <time>2013-07-10T08:38:28Z</time>
      </trkpt>
      <trkpt lat="46.2559" lon="4.42724">
        <ele>511.5</ele>
        <time>2013-07-10T08:38:29Z</time>
      </trkpt>
      <trkpt lat="46.25591" lon="4.42727">
        <ele>511.6</ele>
        <time>2013-07-10T08:38:30Z</time>
      </trkpt>
      <trkpt lat="46.25591" lon="4.42731">
        <ele>511.6</ele>
        <time>2013-07-10T08:38:31Z</time>
      </trkpt>
      <trkpt lat="46.25591" lon="4.42734">
        <ele>511.3</ele>
        <time>2013-07-10T08:38:32Z</time>
      </trkpt>
      <trkpt lat="46.25591" lon="4.42737">
        <ele>511.2</ele>
        <time>2013-07-10T08:38:33Z</time>
      </trkpt>
      <trkpt lat="46.25591" lon="4.4274">
        <ele>511.1</ele>
        <time>2013-07-10T08:38:34Z</time>
      </trkpt>
      <trkpt lat="46.25591" lon="4.42743">
        <ele>511</ele>
        <time>2013-07-10T08:38:35Z</time>
      </trkpt>
      <trkpt lat="46.2559" lon="4.42746">
        <ele>510.8</ele>
        <time>2013-07-10T08:38:36Z</time>
      </trkpt>
      <trkpt lat="46.2559" lon="4.42748">
        <ele>510.8</ele>
        <time>2013-07-10T08:38:37Z</time>
      </trkpt>
      <trkpt lat="46.25591" lon="4.42751">
        <ele>510.7</ele>
        <time>2013-07-10T08:38:38Z</time>
      </trkpt>
      <trkpt lat="46.25591" lon="4.42755">
        <ele>510.4</ele>
        <time>2013-07-10T08:38:39Z</time>
      </trkpt>
      <trkpt lat="46.25591" lon="4.42758">
        <ele>510.1</ele>
        <time>2013-07-10T08:38:40Z</time>
      </trkpt>
      <trkpt lat="46.25591" lon="4.42761">
        <ele>509.9</ele>
        <time>2013-07-10T08:38:41Z</time>
      </trkpt>
      <trkpt lat="46.25592" lon="4.42764">
        <ele>509.8</ele>
        <time>2013-07-10T08:38:42Z</time>
      </trkpt>
      <trkpt lat="46.25593" lon="4.42767">
        <ele>509.7</ele>
        <time>2013-07-10T08:38:43Z</time>
      </trkpt>
      <trkpt lat="46.25593" lon="4.42769">
        <ele>509.7</ele>
        <time>2013-07-10T08:38:44Z</time>
      </trkpt>
      <trkpt lat="46.25594" lon="4.42771">
        <ele>509.7</ele>
        <time>2013-07-10T08:38:45Z</time>
      </trkpt>
      <trkpt lat="46.25595" lon="4.42774">
        <ele>509.6</ele>
        <time>2013-07-10T08:38:46Z</time>
      </trkpt>
      <trkpt lat="46.25595" lon="4.42778">
        <ele>509.4</ele>
        <time>2013-07-10T08:38:47Z</time>
      </trkpt>
      <trkpt lat="46.25596" lon="4.42782">
        <ele>509.4</ele>
        <time>2013-07-10T08:38:48Z</time>
      </trkpt>
      <trkpt lat="46.25596" lon="4.42785">
        <ele>509.3</ele>
        <time>2013-07-10T08:38:49Z</time>
      </trkpt>
      <trkpt lat="46.25596" lon="4.42789">
        <ele>509.1</ele>
        <time>2013-07-10T08:38:50Z</time>
      </trkpt>
      <trkpt lat="46.25595" lon="4.42793">
        <ele>508.9</ele>
        <time>2013-07-10T08:38:51Z</time>
      </trkpt>
      <trkpt lat="46.25595" lon="4.42798">
        <ele>508.7</ele>
        <time>2013-07-10T08:38:52Z</time>
      </trkpt>
      <trkpt lat="46.25595" lon="4.42802">
        <ele>508.5</ele>
        <time>2013-07-10T08:38:53Z</time>
      </trkpt>
      <trkpt lat="46.25594" lon="4.42806">
        <ele>508.3</ele>
        <time>2013-07-10T08:38:54Z</time>
      </trkpt>
      <trkpt lat="46.25593" lon="4.42811">
        <ele>508.2</ele>
        <time>2013-07-10T08:38:55Z</time>
      </trkpt>
      <trkpt lat="46.25592" lon="4.42815">
        <ele>508.3</ele>
        <time>2013-07-10T08:38:56Z</time>
      </trkpt>
      <trkpt lat="46.2559" lon="4.42818">
        <ele>508.3</ele>
        <time>2013-07-10T08:38:57Z</time>
      </trkpt>
      <trkpt lat="46.25589" lon="4.42822">
        <ele>508.3</ele>
        <time>2013-07-10T08:38:58Z</time>
      </trkpt>
      <trkpt lat="46.25587" lon="4.42825">
        <ele>508.4</ele>
        <time>2013-07-10T08:38:59Z</time>
      </trkpt>
      <trkpt lat="46.25585" lon="4.42827">
        <ele>508.4</ele>
        <time>2013-07-10T08:39:00Z</time>
      </trkpt>
      <trkpt lat="46.25582" lon="4.4283">
        <ele>508.6</ele>
        <time>2013-07-10T08:39:01Z</time>
      </trkpt>
      <trkpt lat="46.2558" lon="4.42832">
        <ele>509</ele>
        <time>2013-07-10T08:39:02Z</time>
      </trkpt>
      <trkpt lat="46.25577" lon="4.42834">
        <ele>509.2</ele>
        <time>2013-07-10T08:39:03Z</time>
      </trkpt>
      <trkpt lat="46.25575" lon="4.42835">
        <ele>509.4</ele>
        <time>2013-07-10T08:39:04Z</time>
      </trkpt>
      <trkpt lat="46.25573" lon="4.42836">
        <ele>509.6</ele>
        <time>2013-07-10T08:39:05Z</time>
      </trkpt>
      <trkpt lat="46.2557" lon="4.42837">
        <ele>509.9</ele>
        <time>2013-07-10T08:39:06Z</time>
      </trkpt>
      <trkpt lat="46.25568" lon="4.42838">
        <ele>510.1</ele>
        <time>2013-07-10T08:39:07Z</time>
      </trkpt>
      <trkpt lat="46.25566" lon="4.42838">
        <ele>510.2</ele>
        <time>2013-07-10T08:39:08Z</time>
      </trkpt>
      <trkpt lat="46.25563" lon="4.42838">
        <ele>510.4</ele>
        <time>2013-07-10T08:39:09Z</time>
      </trkpt>
      <trkpt lat="46.25561" lon="4.42838">
        <ele>510.6</ele>
        <time>2013-07-10T08:39:10Z</time>
      </trkpt>
      <trkpt lat="46.25559" lon="4.42838">
        <ele>510.7</ele>
        <time>2013-07-10T08:39:11Z</time>
      </trkpt>
      <trkpt lat="46.25556" lon="4.42838">
        <ele>510.8</ele>
        <time>2013-07-10T08:39:12Z</time>
      </trkpt>
      <trkpt lat="46.25555" lon="4.42838">
        <ele>510.9</ele>
        <time>2013-07-10T08:39:13Z</time>
      </trkpt>
      <trkpt lat="46.25554" lon="4.42838">
        <ele>510.9</ele>
        <time>2013-07-10T08:39:14Z</time>
      </trkpt>
      <trkpt lat="46.25553" lon="4.42838">
        <ele>510.9</ele>
        <time>2013-07-10T08:39:15Z</time>
      </trkpt>
      <trkpt lat="46.25553" lon="4.42838">
        <ele>510.9</ele>
        <time>2013-07-10T08:39:16Z</time>
      </trkpt>
      <trkpt lat="46.25553" lon="4.42837">
        <ele>510.9</ele>
        <time>2013-07-10T08:39:17Z</time>
      </trkpt>
      <trkpt lat="46.25553" lon="4.42837">
        <ele>510.9</ele>
        <time>2013-07-10T08:39:18Z</time>
      </trkpt>
      <trkpt lat="46.25553" lon="4.42837">
        <ele>510.9</ele>
        <time>2013-07-10T08:39:19Z</time>
      </trkpt>
      <trkpt lat="46.25553" lon="4.42837">
        <ele>510.9</ele>
        <time>2013-07-10T08:39:20Z</time>
      </trkpt>
      <trkpt lat="46.25553" lon="4.42837">
        <ele>510.8</ele>
        <time>2013-07-10T08:39:21Z</time>
      </trkpt>
      <trkpt lat="46.25553" lon="4.42837">
        <ele>510.8</ele>
        <time>2013-07-10T08:39:22Z</time>
      </trkpt>
      <trkpt lat="46.25553" lon="4.42837">
        <ele>510.8</ele>
        <time>2013-07-10T08:39:23Z</time>
      </trkpt>
      <trkpt lat="46.25553" lon="4.42837">
        <ele>510.8</ele>
        <time>2013-07-10T08:39:24Z</time>
      </trkpt>
      <trkpt lat="46.25553" lon="4.42837">
        <ele>510.8</ele>
        <time>2013-07-10T08:39:25Z</time>
      </trkpt>
      <trkpt lat="46.25553" lon="4.42837">
        <ele>510.8</ele>
        <time>2013-07-10T08:39:26Z</time>
      </trkpt>
      <trkpt lat="46.25553" lon="4.42836">
        <ele>510.7</ele>
        <time>2013-07-10T08:39:27Z</time>
      </trkpt>
      <trkpt lat="46.25553" lon="4.42836">
        <ele>510.7</ele>
        <time>2013-07-10T08:39:28Z</time>
      </trkpt>
      <trkpt lat="46.25553" lon="4.42836">
        <ele>510.7</ele>
        <time>2013-07-10T08:39:29Z</time>
      </trkpt>
      <trkpt lat="46.25553" lon="4.42836">
        <ele>510.7</ele>
        <time>2013-07-10T08:39:30Z</time>
      </trkpt>
      <trkpt lat="46.25552" lon="4.42836">
        <ele>510.7</ele>
        <time>2013-07-10T08:39:31Z</time>
      </trkpt>
      <trkpt lat="46.25552" lon="4.42836">
        <ele>510.7</ele>
        <time>2013-07-10T08:39:32Z</time>
      </trkpt>
      <trkpt lat="46.25552" lon="4.42836">
        <ele>510.7</ele>
        <time>2013-07-10T08:39:33Z</time>
      </trkpt>
      <trkpt lat="46.25552" lon="4.42836">
        <ele>510.7</ele>
        <time>2013-07-10T08:39:34Z</time>
      </trkpt>
      <trkpt lat="46.25552" lon="4.42836">
        <ele>510.7</ele>
        <time>2013-07-10T08:39:35Z</time>
      </trkpt>
      <trkpt lat="46.25552" lon="4.42836">
        <ele>510.7</ele>
        <time>2013-07-10T08:39:36Z</time>
      </trkpt>
      <trkpt lat="46.25552" lon="4.42836">
        <ele>510.7</ele>
        <time>2013-07-10T08:39:37Z</time>
      </trkpt>
      <trkpt lat="46.25552" lon="4.42836">
        <ele>510.7</ele>
        <time>2013-07-10T08:39:38Z</time>
      </trkpt>
      <trkpt lat="46.25552" lon="4.42836">
        <ele>510.8</ele>
        <time>2013-07-10T08:39:39Z</time>
      </trkpt>
      <trkpt lat="46.25552" lon="4.42836">
        <ele>510.8</ele>
        <time>2013-07-10T08:39:40Z</time>
      </trkpt>
      <trkpt lat="46.25552" lon="4.42836">
        <ele>510.8</ele>
        <time>2013-07-10T08:39:41Z</time>
      </trkpt>
      <trkpt lat="46.25552" lon="4.42836">
        <ele>510.8</ele>
        <time>2013-07-10T08:39:42Z</time>
      </trkpt>
      <trkpt lat="46.25551" lon="4.42836">
        <ele>510.8</ele>
        <time>2013-07-10T08:39:43Z</time>
      </trkpt>
      <trkpt lat="46.25551" lon="4.42836">
        <ele>510.8</ele>
        <time>2013-07-10T08:39:44Z</time>
      </trkpt>
      <trkpt lat="46.25551" lon="4.42836">
        <ele>510.8</ele>
        <time>2013-07-10T08:39:45Z</time>
      </trkpt>
      <trkpt lat="46.25552" lon="4.42836">
        <ele>510.8</ele>
        <time>2013-07-10T08:39:46Z</time>
      </trkpt>
      <trkpt lat="46.25551" lon="4.42837">
        <ele>510.9</ele>
        <time>2013-07-10T08:39:47Z</time>
      </trkpt>
      <trkpt lat="46.2555" lon="4.42837">
        <ele>511</ele>
        <time>2013-07-10T08:39:48Z</time>
      </trkpt>
      <trkpt lat="46.25548" lon="4.42837">
        <ele>511.1</ele>
        <time>2013-07-10T08:39:49Z</time>
      </trkpt>
      <trkpt lat="46.25546" lon="4.42836">
        <ele>511.2</ele>
        <time>2013-07-10T08:39:50Z</time>
      </trkpt>
      <trkpt lat="46.25544" lon="4.42836">
        <ele>511.4</ele>
        <time>2013-07-10T08:39:51Z</time>
      </trkpt>
      <trkpt lat="46.25542" lon="4.42836">
        <ele>511.5</ele>
        <time>2013-07-10T08:39:52Z</time>
      </trkpt>
      <trkpt lat="46.25539" lon="4.42836">
        <ele>511.7</ele>
        <time>2013-07-10T08:39:53Z</time>
      </trkpt>
      <trkpt lat="46.25537" lon="4.42836">
        <ele>511.8</ele>
        <time>2013-07-10T08:39:54Z</time>
      </trkpt>
      <trkpt lat="46.25535" lon="4.42836">
        <ele>511.9</ele>
        <time>2013-07-10T08:39:55Z</time>
      </trkpt>
      <trkpt lat="46.25532" lon="4.42836">
        <ele>512.1</ele>
        <time>2013-07-10T08:39:56Z</time>
      </trkpt>
      <trkpt lat="46.2553" lon="4.42836">
        <ele>512.4</ele>
        <time>2013-07-10T08:39:57Z</time>
      </trkpt>
      <trkpt lat="46.25527" lon="4.42837">
        <ele>512.6</ele>
        <time>2013-07-10T08:39:58Z</time>
      </trkpt>
      <trkpt lat="46.25524" lon="4.42837">
        <ele>512.7</ele>
        <time>2013-07-10T08:39:59Z</time>
      </trkpt>
      <trkpt lat="46.25522" lon="4.42838">
        <ele>512.9</ele>
        <time>2013-07-10T08:40:00Z</time>
      </trkpt>
      <trkpt lat="46.25519" lon="4.42838">
        <ele>513.1</ele>
        <time>2013-07-10T08:40:01Z</time>
      </trkpt>
      <trkpt lat="46.25517" lon="4.42839">
        <ele>513.4</ele>
        <time>2013-07-10T08:40:02Z</time>
      </trkpt>
      <trkpt lat="46.25514" lon="4.4284">
        <ele>513.6</ele>
        <time>2013-07-10T08:40:03Z</time>
      </trkpt>
      <trkpt lat="46.25512" lon="4.42841">
        <ele>513.8</ele>
        <time>2013-07-10T08:40:04Z</time>
      </trkpt>
      <trkpt lat="46.2551" lon="4.42842">
        <ele>514.1</ele>
        <time>2013-07-10T08:40:05Z</time>
      </trkpt>
      <trkpt lat="46.25508" lon="4.42844">
        <ele>514.3</ele>
        <time>2013-07-10T08:40:06Z</time>
      </trkpt>
      <trkpt lat="46.25505" lon="4.42845">
        <ele>514.6</ele>
        <time>2013-07-10T08:40:07Z</time>
      </trkpt>
      <trkpt lat="46.25503" lon="4.42847">
        <ele>514.9</ele>
        <time>2013-07-10T08:40:08Z</time>
      </trkpt>
      <trkpt lat="46.25501" lon="4.42849">
        <ele>515.2</ele>
        <time>2013-07-10T08:40:09Z</time>
      </trkpt>
      <trkpt lat="46.25499" lon="4.4285">
        <ele>515.4</ele>
        <time>2013-07-10T08:40:10Z</time>
      </trkpt>
      <trkpt lat="46.25497" lon="4.42852">
        <ele>515.5</ele>
        <time>2013-07-10T08:40:11Z</time>
      </trkpt>
      <trkpt lat="46.25495" lon="4.42854">
        <ele>515.7</ele>
        <time>2013-07-10T08:40:12Z</time>
      </trkpt>
      <trkpt lat="46.25493" lon="4.42856">
        <ele>515.8</ele>
        <time>2013-07-10T08:40:13Z</time>
      </trkpt>
      <trkpt lat="46.25491" lon="4.42859">
        <ele>516</ele>
        <time>2013-07-10T08:40:14Z</time>
      </trkpt>
      <trkpt lat="46.25489" lon="4.42861">
        <ele>516.2</ele>
        <time>2013-07-10T08:40:15Z</time>
      </trkpt>
      <trkpt lat="46.25488" lon="4.42863">
        <ele>516.3</ele>
        <time>2013-07-10T08:40:16Z</time>
      </trkpt>
      <trkpt lat="46.25486" lon="4.42866">
        <ele>516.4</ele>
        <time>2013-07-10T08:40:17Z</time>
      </trkpt>
      <trkpt lat="46.25484" lon="4.42869">
        <ele>516.5</ele>
        <time>2013-07-10T08:40:18Z</time>
      </trkpt>
      <trkpt lat="46.25482" lon="4.42871">
        <ele>516.5</ele>
        <time>2013-07-10T08:40:19Z</time>
      </trkpt>
      <trkpt lat="46.2548" lon="4.42874">
        <ele>516.6</ele>
        <time>2013-07-10T08:40:20Z</time>
      </trkpt>
      <trkpt lat="46.25479" lon="4.42876">
        <ele>516.6</ele>
        <time>2013-07-10T08:40:21Z</time>
      </trkpt>
      <trkpt lat="46.25477" lon="4.42879">
        <ele>516.7</ele>
        <time>2013-07-10T08:40:22Z</time>
      </trkpt>
      <trkpt lat="46.25475" lon="4.42882">
        <ele>516.8</ele>
        <time>2013-07-10T08:40:23Z</time>
      </trkpt>
      <trkpt lat="46.25474" lon="4.42884">
        <ele>516.8</ele>
        <time>2013-07-10T08:40:24Z</time>
      </trkpt>
      <trkpt lat="46.25472" lon="4.42887">
        <ele>516.8</ele>
        <time>2013-07-10T08:40:25Z</time>
      </trkpt>
      <trkpt lat="46.2547" lon="4.42889">
        <ele>516.9</ele>
        <time>2013-07-10T08:40:26Z</time>
      </trkpt>
      <trkpt lat="46.25469" lon="4.42892">
        <ele>517.1</ele>
        <time>2013-07-10T08:40:27Z</time>
      </trkpt>
      <trkpt lat="46.25467" lon="4.42894">
        <ele>517.3</ele>
        <time>2013-07-10T08:40:28Z</time>
      </trkpt>
      <trkpt lat="46.25466" lon="4.42897">
        <ele>517.6</ele>
        <time>2013-07-10T08:40:29Z</time>
      </trkpt>
      <trkpt lat="46.25464" lon="4.42899">
        <ele>517.8</ele>
        <time>2013-07-10T08:40:30Z</time>
      </trkpt>
      <trkpt lat="46.25462" lon="4.42902">
        <ele>517.9</ele>
        <time>2013-07-10T08:40:31Z</time>
      </trkpt>
      <trkpt lat="46.2546" lon="4.42904">
        <ele>518.1</ele>
        <time>2013-07-10T08:40:32Z</time>
      </trkpt>
      <trkpt lat="46.25459" lon="4.42906">
        <ele>518.2</ele>
        <time>2013-07-10T08:40:33Z</time>
      </trkpt>
      <trkpt lat="46.25457" lon="4.42908">
        <ele>518.3</ele>
        <time>2013-07-10T08:40:34Z</time>
      </trkpt>
      <trkpt lat="46.25455" lon="4.4291">
        <ele>518.4</ele>
        <time>2013-07-10T08:40:35Z</time>
      </trkpt>
      <trkpt lat="46.25453" lon="4.42912">
        <ele>518.4</ele>
        <time>2013-07-10T08:40:36Z</time>
      </trkpt>
      <trkpt lat="46.25451" lon="4.42914">
        <ele>518.4</ele>
        <time>2013-07-10T08:40:37Z</time>
      </trkpt>
      <trkpt lat="46.2545" lon="4.42915">
        <ele>518.4</ele>
        <time>2013-07-10T08:40:38Z</time>
      </trkpt>
      <trkpt lat="46.25448" lon="4.42917">
        <ele>518.3</ele>
        <time>2013-07-10T08:40:39Z</time>
      </trkpt>
      <trkpt lat="46.25446" lon="4.42918">
        <ele>518.2</ele>
        <time>2013-07-10T08:40:40Z</time>
      </trkpt>
      <trkpt lat="46.25444" lon="4.42919">
        <ele>518.3</ele>
        <time>2013-07-10T08:40:41Z</time>
      </trkpt>
      <trkpt lat="46.25441" lon="4.42921">
        <ele>518.8</ele>
        <time>2013-07-10T08:40:42Z</time>
      </trkpt>
      <trkpt lat="46.25439" lon="4.42922">
        <ele>519.2</ele>
        <time>2013-07-10T08:40:43Z</time>
      </trkpt>
      <trkpt lat="46.25437" lon="4.42923">
        <ele>519.6</ele>
        <time>2013-07-10T08:40:44Z</time>
      </trkpt>
      <trkpt lat="46.25435" lon="4.42923">
        <ele>520</ele>
        <time>2013-07-10T08:40:45Z</time>
      </trkpt>
      <trkpt lat="46.25433" lon="4.42923">
        <ele>520.4</ele>
        <time>2013-07-10T08:40:46Z</time>
      </trkpt>
      <trkpt lat="46.25431" lon="4.42923">
        <ele>520.7</ele>
        <time>2013-07-10T08:40:47Z</time>
      </trkpt>
      <trkpt lat="46.25429" lon="4.42923">
        <ele>521.1</ele>
        <time>2013-07-10T08:40:48Z</time>
      </trkpt>
      <trkpt lat="46.25428" lon="4.42923">
        <ele>521.3</ele>
        <time>2013-07-10T08:40:49Z</time>
      </trkpt>
      <trkpt lat="46.25426" lon="4.42923">
        <ele>521.7</ele>
        <time>2013-07-10T08:40:50Z</time>
      </trkpt>
      <trkpt lat="46.25424" lon="4.42922">
        <ele>522</ele>
        <time>2013-07-10T08:40:51Z</time>
      </trkpt>
      <trkpt lat="46.25422" lon="4.42922">
        <ele>522.3</ele>
        <time>2013-07-10T08:40:52Z</time>
      </trkpt>
      <trkpt lat="46.25421" lon="4.42922">
        <ele>522.6</ele>
        <time>2013-07-10T08:40:53Z</time>
      </trkpt>
      <trkpt lat="46.25419" lon="4.42921">
        <ele>523</ele>
        <time>2013-07-10T08:40:54Z</time>
      </trkpt>
      <trkpt lat="46.25417" lon="4.42921">
        <ele>523.3</ele>
        <time>2013-07-10T08:40:55Z</time>
      </trkpt>
      <trkpt lat="46.25415" lon="4.42921">
        <ele>523.4</ele>
        <time>2013-07-10T08:40:56Z</time>
      </trkpt>
      <trkpt lat="46.25413" lon="4.4292">
        <ele>523.5</ele>
        <time>2013-07-10T08:40:57Z</time>
      </trkpt>
      <trkpt lat="46.25411" lon="4.4292">
        <ele>523.7</ele>
        <time>2013-07-10T08:40:58Z</time>
      </trkpt>
      <trkpt lat="46.25409" lon="4.42919">
        <ele>523.8</ele>
        <time>2013-07-10T08:40:59Z</time>
      </trkpt>
      <trkpt lat="46.25407" lon="4.42919">
        <ele>523.9</ele>
        <time>2013-07-10T08:41:00Z</time>
      </trkpt>
      <trkpt lat="46.25404" lon="4.42918">
        <ele>524</ele>
        <time>2013-07-10T08:41:01Z</time>
      </trkpt>
      <trkpt lat="46.25402" lon="4.42917">
        <ele>524.1</ele>
        <time>2013-07-10T08:41:02Z</time>
      </trkpt>
      <trkpt lat="46.254" lon="4.42916">
        <ele>524.1</ele>
        <time>2013-07-10T08:41:03Z</time>
      </trkpt>
      <trkpt lat="46.25398" lon="4.42915">
        <ele>524.2</ele>
        <time>2013-07-10T08:41:04Z</time>
      </trkpt>
      <trkpt lat="46.25395" lon="4.42914">
        <ele>524.2</ele>
        <time>2013-07-10T08:41:05Z</time>
      </trkpt>
      <trkpt lat="46.25393" lon="4.42913">
        <ele>524.3</ele>
        <time>2013-07-10T08:41:06Z</time>
      </trkpt>
      <trkpt lat="46.25391" lon="4.42912">
        <ele>524.4</ele>
        <time>2013-07-10T08:41:07Z</time>
      </trkpt>
      <trkpt lat="46.25388" lon="4.42911">
        <ele>524.5</ele>
        <time>2013-07-10T08:41:08Z</time>
      </trkpt>
      <trkpt lat="46.25386" lon="4.42911">
        <ele>524.5</ele>
        <time>2013-07-10T08:41:09Z</time>
      </trkpt>
      <trkpt lat="46.25384" lon="4.4291">
        <ele>524.6</ele>
        <time>2013-07-10T08:41:10Z</time>
      </trkpt>
      <trkpt lat="46.25382" lon="4.4291">
        <ele>524.8</ele>
        <time>2013-07-10T08:41:11Z</time>
      </trkpt>
      <trkpt lat="46.25379" lon="4.4291">
        <ele>524.9</ele>
        <time>2013-07-10T08:41:12Z</time>
      </trkpt>
      <trkpt lat="46.25377" lon="4.4291">
        <ele>525.1</ele>
        <time>2013-07-10T08:41:13Z</time>
      </trkpt>
      <trkpt lat="46.25375" lon="4.4291">
        <ele>525.3</ele>
        <time>2013-07-10T08:41:14Z</time>
      </trkpt>
      <trkpt lat="46.25373" lon="4.4291">
        <ele>525.4</ele>
        <time>2013-07-10T08:41:15Z</time>
      </trkpt>
      <trkpt lat="46.2537" lon="4.4291">
        <ele>525.6</ele>
        <time>2013-07-10T08:41:16Z</time>
      </trkpt>
      <trkpt lat="46.25368" lon="4.42909">
        <ele>525.7</ele>
        <time>2013-07-10T08:41:17Z</time>
      </trkpt>
      <trkpt lat="46.25366" lon="4.42909">
        <ele>525.9</ele>
        <time>2013-07-10T08:41:18Z</time>
      </trkpt>
      <trkpt lat="46.25364" lon="4.4291">
        <ele>526</ele>
        <time>2013-07-10T08:41:19Z</time>
      </trkpt>
      <trkpt lat="46.25362" lon="4.4291">
        <ele>526.2</ele>
        <time>2013-07-10T08:41:20Z</time>
      </trkpt>
      <trkpt lat="46.2536" lon="4.4291">
        <ele>526.4</ele>
        <time>2013-07-10T08:41:21Z</time>
      </trkpt>
      <trkpt lat="46.25358" lon="4.4291">
        <ele>526.6</ele>
        <time>2013-07-10T08:41:22Z</time>
      </trkpt>
      <trkpt lat="46.25356" lon="4.4291">
        <ele>526.7</ele>
        <time>2013-07-10T08:41:23Z</time>
      </trkpt>
      <trkpt lat="46.25354" lon="4.42911">
        <ele>526.9</ele>
        <time>2013-07-10T08:41:24Z</time>
      </trkpt>
      <trkpt lat="46.25352" lon="4.42911">
        <ele>527.1</ele>
        <time>2013-07-10T08:41:25Z</time>
      </trkpt>
      <trkpt lat="46.2535" lon="4.42912">
        <ele>527.3</ele>
        <time>2013-07-10T08:41:26Z</time>
      </trkpt>
      <trkpt lat="46.25348" lon="4.42912">
        <ele>527.5</ele>
        <time>2013-07-10T08:41:27Z</time>
      </trkpt>
      <trkpt lat="46.25346" lon="4.42912">
        <ele>527.6</ele>
        <time>2013-07-10T08:41:28Z</time>
      </trkpt>
      <trkpt lat="46.25344" lon="4.42913">
        <ele>527.8</ele>
        <time>2013-07-10T08:41:29Z</time>
      </trkpt>
      <trkpt lat="46.25342" lon="4.42913">
        <ele>528</ele>
        <time>2013-07-10T08:41:30Z</time>
      </trkpt>
      <trkpt lat="46.2534" lon="4.42914">
        <ele>528.2</ele>
        <time>2013-07-10T08:41:31Z</time>
      </trkpt>
      <trkpt lat="46.25338" lon="4.42915">
        <ele>528.5</ele>
        <time>2013-07-10T08:41:32Z</time>
      </trkpt>
      <trkpt lat="46.25336" lon="4.42915">
        <ele>528.7</ele>
        <time>2013-07-10T08:41:33Z</time>
      </trkpt>
      <trkpt lat="46.25334" lon="4.42916">
        <ele>528.9</ele>
        <time>2013-07-10T08:41:34Z</time>
      </trkpt>
      <trkpt lat="46.25332" lon="4.42917">
        <ele>529</ele>
        <time>2013-07-10T08:41:35Z</time>
      </trkpt>
      <trkpt lat="46.2533" lon="4.42918">
        <ele>529.2</ele>
        <time>2013-07-10T08:41:36Z</time>
      </trkpt>
      <trkpt lat="46.25328" lon="4.42919">
        <ele>529.3</ele>
        <time>2013-07-10T08:41:37Z</time>
      </trkpt>
      <trkpt lat="46.25326" lon="4.4292">
        <ele>529.4</ele>
        <time>2013-07-10T08:41:38Z</time>
      </trkpt>
      <trkpt lat="46.25324" lon="4.42922">
        <ele>529.5</ele>
        <time>2013-07-10T08:41:39Z</time>
      </trkpt>
      <trkpt lat="46.25322" lon="4.42923">
        <ele>529.6</ele>
        <time>2013-07-10T08:41:40Z</time>
      </trkpt>
      <trkpt lat="46.2532" lon="4.42924">
        <ele>529.8</ele>
        <time>2013-07-10T08:41:41Z</time>
      </trkpt>
      <trkpt lat="46.25318" lon="4.42925">
        <ele>529.9</ele>
        <time>2013-07-10T08:41:42Z</time>
      </trkpt>
      <trkpt lat="46.25316" lon="4.42926">
        <ele>530</ele>
        <time>2013-07-10T08:41:43Z</time>
      </trkpt>
      <trkpt lat="46.25314" lon="4.42927">
        <ele>530.1</ele>
        <time>2013-07-10T08:41:44Z</time>
      </trkpt>
      <trkpt lat="46.25312" lon="4.42928">
        <ele>530.2</ele>
        <time>2013-07-10T08:41:45Z</time>
      </trkpt>
      <trkpt lat="46.2531" lon="4.42929">
        <ele>530.3</ele>
        <time>2013-07-10T08:41:46Z</time>
      </trkpt>
      <trkpt lat="46.25308" lon="4.4293">
        <ele>530.5</ele>
        <time>2013-07-10T08:41:47Z</time>
      </trkpt>
      <trkpt lat="46.25306" lon="4.42931">
        <ele>530.6</ele>
        <time>2013-07-10T08:41:48Z</time>
      </trkpt>
      <trkpt lat="46.25304" lon="4.42932">
        <ele>530.8</ele>
        <time>2013-07-10T08:41:49Z</time>
      </trkpt>
      <trkpt lat="46.25302" lon="4.42933">
        <ele>530.9</ele>
        <time>2013-07-10T08:41:50Z</time>
      </trkpt>
      <trkpt lat="46.253" lon="4.42934">
        <ele>531.1</ele>
        <time>2013-07-10T08:41:51Z</time>
      </trkpt>
      <trkpt lat="46.25298" lon="4.42936">
        <ele>531.3</ele>
        <time>2013-07-10T08:41:52Z</time>
      </trkpt>
      <trkpt lat="46.25296" lon="4.42937">
        <ele>531.6</ele>
        <time>2013-07-10T08:41:53Z</time>
      </trkpt>
      <trkpt lat="46.25294" lon="4.42938">
        <ele>531.8</ele>
        <time>2013-07-10T08:41:54Z</time>
      </trkpt>
      <trkpt lat="46.25292" lon="4.42939">
        <ele>531.9</ele>
        <time>2013-07-10T08:41:55Z</time>
      </trkpt>
      <trkpt lat="46.25289" lon="4.4294">
        <ele>532.1</ele>
        <time>2013-07-10T08:41:56Z</time>
      </trkpt>
      <trkpt lat="46.25287" lon="4.42941">
        <ele>532.3</ele>
        <time>2013-07-10T08:41:57Z</time>
      </trkpt>
      <trkpt lat="46.25285" lon="4.42942">
        <ele>532.4</ele>
        <time>2013-07-10T08:41:58Z</time>
      </trkpt>
      <trkpt lat="46.25283" lon="4.42943">
        <ele>532.6</ele>
        <time>2013-07-10T08:41:59Z</time>
      </trkpt>
      <trkpt lat="46.25281" lon="4.42943">
        <ele>532.7</ele>
        <time>2013-07-10T08:42:00Z</time>
      </trkpt>
      <trkpt lat="46.25279" lon="4.42943">
        <ele>532.8</ele>
        <time>2013-07-10T08:42:01Z</time>
      </trkpt>
      <trkpt lat="46.25277" lon="4.42943">
        <ele>532.9</ele>
        <time>2013-07-10T08:42:02Z</time>
      </trkpt>
      <trkpt lat="46.25275" lon="4.42943">
        <ele>533</ele>
        <time>2013-07-10T08:42:03Z</time>
      </trkpt>
      <trkpt lat="46.25273" lon="4.42944">
        <ele>533.1</ele>
        <time>2013-07-10T08:42:04Z</time>
      </trkpt>
      <trkpt lat="46.2527" lon="4.42943">
        <ele>533.1</ele>
        <time>2013-07-10T08:42:05Z</time>
      </trkpt>
      <trkpt lat="46.25268" lon="4.42943">
        <ele>533.2</ele>
        <time>2013-07-10T08:42:06Z</time>
      </trkpt>
      <trkpt lat="46.25266" lon="4.42942">
        <ele>533.2</ele>
        <time>2013-07-10T08:42:07Z</time>
      </trkpt>
      <trkpt lat="46.25264" lon="4.42941">
        <ele>533.2</ele>
        <time>2013-07-10T08:42:08Z</time>
      </trkpt>
      <trkpt lat="46.25263" lon="4.4294">
        <ele>533.2</ele>
        <time>2013-07-10T08:42:09Z</time>
      </trkpt>
      <trkpt lat="46.25261" lon="4.42938">
        <ele>533.2</ele>
        <time>2013-07-10T08:42:10Z</time>
      </trkpt>
      <trkpt lat="46.25259" lon="4.42936">
        <ele>533.2</ele>
        <time>2013-07-10T08:42:11Z</time>
      </trkpt>
      <trkpt lat="46.25257" lon="4.42935">
        <ele>533.2</ele>
        <time>2013-07-10T08:42:12Z</time>
      </trkpt>
      <trkpt lat="46.25255" lon="4.42933">
        <ele>533.2</ele>
        <time>2013-07-10T08:42:13Z</time>
      </trkpt>
      <trkpt lat="46.25254" lon="4.42931">
        <ele>533.2</ele>
        <time>2013-07-10T08:42:14Z</time>
      </trkpt>
      <trkpt lat="46.25252" lon="4.42929">
        <ele>533.3</ele>
        <time>2013-07-10T08:42:15Z</time>
      </trkpt>
      <trkpt lat="46.25251" lon="4.42927">
        <ele>533.3</ele>
        <time>2013-07-10T08:42:16Z</time>
      </trkpt>
      <trkpt lat="46.25249" lon="4.42925">
        <ele>533.4</ele>
        <time>2013-07-10T08:42:17Z</time>
      </trkpt>
      <trkpt lat="46.25248" lon="4.42923">
        <ele>533.7</ele>
        <time>2013-07-10T08:42:18Z</time>
      </trkpt>
      <trkpt lat="46.25247" lon="4.42921">
        <ele>533.9</ele>
        <time>2013-07-10T08:42:19Z</time>
      </trkpt>
      <trkpt lat="46.25245" lon="4.42918">
        <ele>534.1</ele>
        <time>2013-07-10T08:42:20Z</time>
      </trkpt>
      <trkpt lat="46.25244" lon="4.42916">
        <ele>534.3</ele>
        <time>2013-07-10T08:42:21Z</time>
      </trkpt>
      <trkpt lat="46.25242" lon="4.42913">
        <ele>534.6</ele>
        <time>2013-07-10T08:42:22Z</time>
      </trkpt>
      <trkpt lat="46.25241" lon="4.42911">
        <ele>534.9</ele>
        <time>2013-07-10T08:42:23Z</time>
      </trkpt>
      <trkpt lat="46.25239" lon="4.42909">
        <ele>535.1</ele>
        <time>2013-07-10T08:42:24Z</time>
      </trkpt>
      <trkpt lat="46.25238" lon="4.42906">
        <ele>535.3</ele>
        <time>2013-07-10T08:42:25Z</time>
      </trkpt>
      <trkpt lat="46.25236" lon="4.42904">
        <ele>535.5</ele>
        <time>2013-07-10T08:42:26Z</time>
      </trkpt>
      <trkpt lat="46.25235" lon="4.42902">
        <ele>535.7</ele>
        <time>2013-07-10T08:42:27Z</time>
      </trkpt>
      <trkpt lat="46.25233" lon="4.429">
        <ele>535.9</ele>
        <time>2013-07-10T08:42:28Z</time>
      </trkpt>
      <trkpt lat="46.25232" lon="4.42898">
        <ele>536</ele>
        <time>2013-07-10T08:42:29Z</time>
      </trkpt>
      <trkpt lat="46.2523" lon="4.42896">
        <ele>536.2</ele>
        <time>2013-07-10T08:42:30Z</time>
      </trkpt>
      <trkpt lat="46.25228" lon="4.42894">
        <ele>536.5</ele>
        <time>2013-07-10T08:42:31Z</time>
      </trkpt>
      <trkpt lat="46.25227" lon="4.42893">
        <ele>536.6</ele>
        <time>2013-07-10T08:42:32Z</time>
      </trkpt>
      <trkpt lat="46.25225" lon="4.42891">
        <ele>536.7</ele>
        <time>2013-07-10T08:42:33Z</time>
      </trkpt>
      <trkpt lat="46.25223" lon="4.42889">
        <ele>536.9</ele>
        <time>2013-07-10T08:42:34Z</time>
      </trkpt>
      <trkpt lat="46.25221" lon="4.42887">
        <ele>537</ele>
        <time>2013-07-10T08:42:35Z</time>
      </trkpt>
      <trkpt lat="46.2522" lon="4.42886">
        <ele>537</ele>
        <time>2013-07-10T08:42:36Z</time>
      </trkpt>
      <trkpt lat="46.25218" lon="4.42885">
        <ele>537.1</ele>
        <time>2013-07-10T08:42:37Z</time>
      </trkpt>
      <trkpt lat="46.25216" lon="4.42883">
        <ele>537.2</ele>
        <time>2013-07-10T08:42:38Z</time>
      </trkpt>
      <trkpt lat="46.25214" lon="4.42882">
        <ele>537.2</ele>
        <time>2013-07-10T08:42:39Z</time>
      </trkpt>
      <trkpt lat="46.25213" lon="4.42881">
        <ele>537.2</ele>
        <time>2013-07-10T08:42:40Z</time>
      </trkpt>
      <trkpt lat="46.25211" lon="4.4288">
        <ele>537.2</ele>
        <time>2013-07-10T08:42:41Z</time>
      </trkpt>
      <trkpt lat="46.25209" lon="4.42879">
        <ele>537.2</ele>
        <time>2013-07-10T08:42:42Z</time>
      </trkpt>
      <trkpt lat="46.25207" lon="4.42878">
        <ele>537.3</ele>
        <time>2013-07-10T08:42:43Z</time>
      </trkpt>
      <trkpt lat="46.25205" lon="4.42878">
        <ele>537.4</ele>
        <time>2013-07-10T08:42:44Z</time>
      </trkpt>
      <trkpt lat="46.25203" lon="4.42878">
        <ele>537.5</ele>
        <time>2013-07-10T08:42:45Z</time>
      </trkpt>
      <trkpt lat="46.25201" lon="4.42878">
        <ele>537.6</ele>
        <time>2013-07-10T08:42:46Z</time>
      </trkpt>
      <trkpt lat="46.25199" lon="4.42878">
        <ele>537.6</ele>
        <time>2013-07-10T08:42:47Z</time>
      </trkpt>
      <trkpt lat="46.25197" lon="4.42878">
        <ele>537.7</ele>
        <time>2013-07-10T08:42:48Z</time>
      </trkpt>
      <trkpt lat="46.25195" lon="4.42878">
        <ele>537.8</ele>
        <time>2013-07-10T08:42:49Z</time>
      </trkpt>
      <trkpt lat="46.25193" lon="4.42878">
        <ele>537.8</ele>
        <time>2013-07-10T08:42:50Z</time>
      </trkpt>
      <trkpt lat="46.25191" lon="4.42878">
        <ele>537.8</ele>
        <time>2013-07-10T08:42:51Z</time>
      </trkpt>
      <trkpt lat="46.25189" lon="4.42878">
        <ele>537.8</ele>
        <time>2013-07-10T08:42:52Z</time>
      </trkpt>
      <trkpt lat="46.25187" lon="4.42879">
        <ele>537.8</ele>
        <time>2013-07-10T08:42:53Z</time>
      </trkpt>
      <trkpt lat="46.25185" lon="4.42879">
        <ele>537.8</ele>
        <time>2013-07-10T08:42:54Z</time>
      </trkpt>
      <trkpt lat="46.25183" lon="4.4288">
        <ele>537.9</ele>
        <time>2013-07-10T08:42:55Z</time>
      </trkpt>
      <trkpt lat="46.25181" lon="4.4288">
        <ele>537.9</ele>
        <time>2013-07-10T08:42:56Z</time>
      </trkpt>
      <trkpt lat="46.25179" lon="4.4288">
        <ele>537.9</ele>
        <time>2013-07-10T08:42:57Z</time>
      </trkpt>
      <trkpt lat="46.25176" lon="4.42881">
        <ele>537.9</ele>
        <time>2013-07-10T08:42:58Z</time>
      </trkpt>
      <trkpt lat="46.25174" lon="4.42881">
        <ele>537.9</ele>
        <time>2013-07-10T08:42:59Z</time>
      </trkpt>
      <trkpt lat="46.25172" lon="4.42881">
        <ele>538</ele>
        <time>2013-07-10T08:43:00Z</time>
      </trkpt>
      <trkpt lat="46.2517" lon="4.42882">
        <ele>538</ele>
        <time>2013-07-10T08:43:01Z</time>
      </trkpt>
      <trkpt lat="46.25168" lon="4.42882">
        <ele>538</ele>
        <time>2013-07-10T08:43:02Z</time>
      </trkpt>
      <trkpt lat="46.25166" lon="4.42883">
        <ele>538</ele>
        <time>2013-07-10T08:43:03Z</time>
      </trkpt>
      <trkpt lat="46.25164" lon="4.42883">
        <ele>538</ele>
        <time>2013-07-10T08:43:04Z</time>
      </trkpt>
      <trkpt lat="46.25162" lon="4.42884">
        <ele>538</ele>
        <time>2013-07-10T08:43:05Z</time>
      </trkpt>
      <trkpt lat="46.25159" lon="4.42884">
        <ele>538</ele>
        <time>2013-07-10T08:43:06Z</time>
      </trkpt>
      <trkpt lat="46.25157" lon="4.42885">
        <ele>538</ele>
        <time>2013-07-10T08:43:07Z</time>
      </trkpt>
      <trkpt lat="46.25155" lon="4.42886">
        <ele>538</ele>
        <time>2013-07-10T08:43:08Z</time>
      </trkpt>
      <trkpt lat="46.25153" lon="4.42886">
        <ele>538</ele>
        <time>2013-07-10T08:43:09Z</time>
      </trkpt>
      <trkpt lat="46.2515" lon="4.42887">
        <ele>538</ele>
        <time>2013-07-10T08:43:10Z</time>
      </trkpt>
      <trkpt lat="46.25148" lon="4.42887">
        <ele>538</ele>
        <time>2013-07-10T08:43:11Z</time>
      </trkpt>
      <trkpt lat="46.25146" lon="4.42888">
        <ele>538.1</ele>
        <time>2013-07-10T08:43:12Z</time>
      </trkpt>
      <trkpt lat="46.25144" lon="4.42888">
        <ele>538.1</ele>
        <time>2013-07-10T08:43:13Z</time>
      </trkpt>
      <trkpt lat="46.25142" lon="4.42889">
        <ele>538.1</ele>
        <time>2013-07-10T08:43:14Z</time>
      </trkpt>
      <trkpt lat="46.25139" lon="4.4289">
        <ele>538.1</ele>
        <time>2013-07-10T08:43:15Z</time>
      </trkpt>
      <trkpt lat="46.25137" lon="4.4289">
        <ele>538.1</ele>
        <time>2013-07-10T08:43:16Z</time>
      </trkpt>
      <trkpt lat="46.25134" lon="4.42891">
        <ele>538</ele>
        <time>2013-07-10T08:43:17Z</time>
      </trkpt>
      <trkpt lat="46.25132" lon="4.42892">
        <ele>537.9</ele>
        <time>2013-07-10T08:43:18Z</time>
      </trkpt>
      <trkpt lat="46.2513" lon="4.42892">
        <ele>537.8</ele>
        <time>2013-07-10T08:43:19Z</time>
      </trkpt>
      <trkpt lat="46.25128" lon="4.42892">
        <ele>537.7</ele>
        <time>2013-07-10T08:43:20Z</time>
      </trkpt>
      <trkpt lat="46.25125" lon="4.42893">
        <ele>537.7</ele>
        <time>2013-07-10T08:43:21Z</time>
      </trkpt>
      <trkpt lat="46.25123" lon="4.42894">
        <ele>537.6</ele>
        <time>2013-07-10T08:43:22Z</time>
      </trkpt>
      <trkpt lat="46.25121" lon="4.42895">
        <ele>537.6</ele>
        <time>2013-07-10T08:43:23Z</time>
      </trkpt>
      <trkpt lat="46.25118" lon="4.42895">
        <ele>537.6</ele>
        <time>2013-07-10T08:43:24Z</time>
      </trkpt>
      <trkpt lat="46.25116" lon="4.42896">
        <ele>537.5</ele>
        <time>2013-07-10T08:43:25Z</time>
      </trkpt>
      <trkpt lat="46.25114" lon="4.42896">
        <ele>537.5</ele>
        <time>2013-07-10T08:43:26Z</time>
      </trkpt>
      <trkpt lat="46.25112" lon="4.42897">
        <ele>537.4</ele>
        <time>2013-07-10T08:43:27Z</time>
      </trkpt>
      <trkpt lat="46.25109" lon="4.42897">
        <ele>537.4</ele>
        <time>2013-07-10T08:43:28Z</time>
      </trkpt>
      <trkpt lat="46.25107" lon="4.42897">
        <ele>537.4</ele>
        <time>2013-07-10T08:43:29Z</time>
      </trkpt>
      <trkpt lat="46.25104" lon="4.42897">
        <ele>537.4</ele>
        <time>2013-07-10T08:43:30Z</time>
      </trkpt>
      <trkpt lat="46.25102" lon="4.42897">
        <ele>537.3</ele>
        <time>2013-07-10T08:43:31Z</time>
      </trkpt>
      <trkpt lat="46.251" lon="4.42897">
        <ele>537.3</ele>
        <time>2013-07-10T08:43:32Z</time>
      </trkpt>
      <trkpt lat="46.25097" lon="4.42897">
        <ele>537.4</ele>
        <time>2013-07-10T08:43:33Z</time>
      </trkpt>
      <trkpt lat="46.25095" lon="4.42897">
        <ele>537.3</ele>
        <time>2013-07-10T08:43:34Z</time>
      </trkpt>
      <trkpt lat="46.25093" lon="4.42897">
        <ele>537.2</ele>
        <time>2013-07-10T08:43:35Z</time>
      </trkpt>
      <trkpt lat="46.2509" lon="4.42897">
        <ele>537.2</ele>
        <time>2013-07-10T08:43:36Z</time>
      </trkpt>
      <trkpt lat="46.25088" lon="4.42897">
        <ele>537.2</ele>
        <time>2013-07-10T08:43:37Z</time>
      </trkpt>
      <trkpt lat="46.25086" lon="4.42897">
        <ele>537.1</ele>
        <time>2013-07-10T08:43:38Z</time>
      </trkpt>
      <trkpt lat="46.25083" lon="4.42896">
        <ele>537.1</ele>
        <time>2013-07-10T08:43:39Z</time>
      </trkpt>
      <trkpt lat="46.2508" lon="4.42896">
        <ele>536.9</ele>
        <time>2013-07-10T08:43:40Z</time>
      </trkpt>
      <trkpt lat="46.25078" lon="4.42896">
        <ele>536.9</ele>
        <time>2013-07-10T08:43:41Z</time>
      </trkpt>
      <trkpt lat="46.25076" lon="4.42896">
        <ele>536.7</ele>
        <time>2013-07-10T08:43:42Z</time>
      </trkpt>
      <trkpt lat="46.25073" lon="4.42896">
        <ele>536.6</ele>
        <time>2013-07-10T08:43:43Z</time>
      </trkpt>
      <trkpt lat="46.25071" lon="4.42896">
        <ele>536.6</ele>
        <time>2013-07-10T08:43:44Z</time>
      </trkpt>
      <trkpt lat="46.25069" lon="4.42896">
        <ele>536.5</ele>
        <time>2013-07-10T08:43:45Z</time>
      </trkpt>
      <trkpt lat="46.25067" lon="4.42896">
        <ele>536.4</ele>
        <time>2013-07-10T08:43:46Z</time>
      </trkpt>
      <trkpt lat="46.25064" lon="4.42896">
        <ele>536.4</ele>
        <time>2013-07-10T08:43:47Z</time>
      </trkpt>
      <trkpt lat="46.25062" lon="4.42896">
        <ele>536.3</ele>
        <time>2013-07-10T08:43:48Z</time>
      </trkpt>
      <trkpt lat="46.2506" lon="4.42896">
        <ele>536.2</ele>
        <time>2013-07-10T08:43:49Z</time>
      </trkpt>
      <trkpt lat="46.25058" lon="4.42896">
        <ele>536.1</ele>
        <time>2013-07-10T08:43:50Z</time>
      </trkpt>
      <trkpt lat="46.25055" lon="4.42896">
        <ele>536</ele>
        <time>2013-07-10T08:43:51Z</time>
      </trkpt>
      <trkpt lat="46.25053" lon="4.42896">
        <ele>535.8</ele>
        <time>2013-07-10T08:43:52Z</time>
      </trkpt>
      <trkpt lat="46.25051" lon="4.42895">
        <ele>535.6</ele>
        <time>2013-07-10T08:43:53Z</time>
      </trkpt>
      <trkpt lat="46.25049" lon="4.42895">
        <ele>535.4</ele>
        <time>2013-07-10T08:43:54Z</time>
      </trkpt>
      <trkpt lat="46.25046" lon="4.42895">
        <ele>535.2</ele>
        <time>2013-07-10T08:43:55Z</time>
      </trkpt>
      <trkpt lat="46.25044" lon="4.42895">
        <ele>535.1</ele>
        <time>2013-07-10T08:43:56Z</time>
      </trkpt>
      <trkpt lat="46.25042" lon="4.42895">
        <ele>535</ele>
        <time>2013-07-10T08:43:57Z</time>
      </trkpt>
      <trkpt lat="46.25039" lon="4.42894">
        <ele>534.7</ele>
        <time>2013-07-10T08:43:58Z</time>
      </trkpt>
      <trkpt lat="46.25037" lon="4.42894">
        <ele>534.5</ele>
        <time>2013-07-10T08:43:59Z</time>
      </trkpt>
      <trkpt lat="46.25035" lon="4.42894">
        <ele>534.4</ele>
        <time>2013-07-10T08:44:00Z</time>
      </trkpt>
      <trkpt lat="46.25032" lon="4.42894">
        <ele>534.3</ele>
        <time>2013-07-10T08:44:01Z</time>
      </trkpt>
      <trkpt lat="46.2503" lon="4.42894">
        <ele>534.1</ele>
        <time>2013-07-10T08:44:02Z</time>
      </trkpt>
      <trkpt lat="46.25028" lon="4.42895">
        <ele>534</ele>
        <time>2013-07-10T08:44:03Z</time>
      </trkpt>
      <trkpt lat="46.25026" lon="4.42895">
        <ele>533.9</ele>
        <time>2013-07-10T08:44:04Z</time>
      </trkpt>
      <trkpt lat="46.25023" lon="4.42895">
        <ele>533.9</ele>
        <time>2013-07-10T08:44:05Z</time>
      </trkpt>
      <trkpt lat="46.25021" lon="4.42895">
        <ele>533.8</ele>
        <time>2013-07-10T08:44:06Z</time>
      </trkpt>
      <trkpt lat="46.25019" lon="4.42895">
        <ele>533.7</ele>
        <time>2013-07-10T08:44:07Z</time>
      </trkpt>
      <trkpt lat="46.25016" lon="4.42895">
        <ele>533.6</ele>
        <time>2013-07-10T08:44:08Z</time>
      </trkpt>
      <trkpt lat="46.25014" lon="4.42895">
        <ele>533.4</ele>
        <time>2013-07-10T08:44:09Z</time>
      </trkpt>
      <trkpt lat="46.25011" lon="4.42895">
        <ele>533.4</ele>
        <time>2013-07-10T08:44:10Z</time>
      </trkpt>
      <trkpt lat="46.25008" lon="4.42895">
        <ele>533.3</ele>
        <time>2013-07-10T08:44:11Z</time>
      </trkpt>
      <trkpt lat="46.25006" lon="4.42895">
        <ele>533.2</ele>
        <time>2013-07-10T08:44:12Z</time>
      </trkpt>
      <trkpt lat="46.25003" lon="4.42895">
        <ele>533.1</ele>
        <time>2013-07-10T08:44:13Z</time>
      </trkpt>
      <trkpt lat="46.25" lon="4.42895">
        <ele>532.9</ele>
        <time>2013-07-10T08:44:14Z</time>
      </trkpt>
      <trkpt lat="46.24997" lon="4.42896">
        <ele>532.8</ele>
        <time>2013-07-10T08:44:15Z</time>
      </trkpt>
      <trkpt lat="46.24995" lon="4.42896">
        <ele>532.6</ele>
        <time>2013-07-10T08:44:16Z</time>
      </trkpt>
      <trkpt lat="46.24992" lon="4.42895">
        <ele>532.4</ele>
        <time>2013-07-10T08:44:17Z</time>
      </trkpt>
      <trkpt lat="46.24989" lon="4.42895">
        <ele>532.1</ele>
        <time>2013-07-10T08:44:18Z</time>
      </trkpt>
      <trkpt lat="46.24986" lon="4.42894">
        <ele>531.8</ele>
        <time>2013-07-10T08:44:19Z</time>
      </trkpt>
      <trkpt lat="46.24983" lon="4.42894">
        <ele>531.6</ele>
        <time>2013-07-10T08:44:20Z</time>
      </trkpt>
      <trkpt lat="46.2498" lon="4.42894">
        <ele>531.4</ele>
        <time>2013-07-10T08:44:21Z</time>
      </trkpt>
      <trkpt lat="46.24977" lon="4.42894">
        <ele>531.3</ele>
        <time>2013-07-10T08:44:22Z</time>
      </trkpt>
      <trkpt lat="46.24974" lon="4.42894">
        <ele>531</ele>
        <time>2013-07-10T08:44:23Z</time>
      </trkpt>
      <trkpt lat="46.24971" lon="4.42894">
        <ele>530.9</ele>
        <time>2013-07-10T08:44:24Z</time>
      </trkpt>
      <trkpt lat="46.24968" lon="4.42894">
        <ele>530.8</ele>
        <time>2013-07-10T08:44:25Z</time>
      </trkpt>
      <trkpt lat="46.24966" lon="4.42894">
        <ele>530.7</ele>
        <time>2013-07-10T08:44:26Z</time>
      </trkpt>
      <trkpt lat="46.24963" lon="4.42894">
        <ele>530.6</ele>
        <time>2013-07-10T08:44:27Z</time>
      </trkpt>
      <trkpt lat="46.2496" lon="4.42895">
        <ele>530.5</ele>
        <time>2013-07-10T08:44:28Z</time>
      </trkpt>
      <trkpt lat="46.24957" lon="4.42895">
        <ele>530.3</ele>
        <time>2013-07-10T08:44:29Z</time>
      </trkpt>
      <trkpt lat="46.24954" lon="4.42894">
        <ele>530.2</ele>
        <time>2013-07-10T08:44:30Z</time>
      </trkpt>
      <trkpt lat="46.24951" lon="4.42894">
        <ele>530</ele>
        <time>2013-07-10T08:44:31Z</time>
      </trkpt>
      <trkpt lat="46.24947" lon="4.42894">
        <ele>529.9</ele>
        <time>2013-07-10T08:44:32Z</time>
      </trkpt>
      <trkpt lat="46.24945" lon="4.42894">
        <ele>529.7</ele>
        <time>2013-07-10T08:44:33Z</time>
      </trkpt>
      <trkpt lat="46.24942" lon="4.42893">
        <ele>529.4</ele>
        <time>2013-07-10T08:44:34Z</time>
      </trkpt>
      <trkpt lat="46.24939" lon="4.42893">
        <ele>529.1</ele>
        <time>2013-07-10T08:44:35Z</time>
      </trkpt>
      <trkpt lat="46.24937" lon="4.42892">
        <ele>528.9</ele>
        <time>2013-07-10T08:44:36Z</time>
      </trkpt>
      <trkpt lat="46.24935" lon="4.42892">
        <ele>528.6</ele>
        <time>2013-07-10T08:44:37Z</time>
      </trkpt>
      <trkpt lat="46.24932" lon="4.42891">
        <ele>528.4</ele>
        <time>2013-07-10T08:44:38Z</time>
      </trkpt>
      <trkpt lat="46.2493" lon="4.42891">
        <ele>528.2</ele>
        <time>2013-07-10T08:44:39Z</time>
      </trkpt>
      <trkpt lat="46.24927" lon="4.42891">
        <ele>528.1</ele>
        <time>2013-07-10T08:44:40Z</time>
      </trkpt>
      <trkpt lat="46.24924" lon="4.42892">
        <ele>527.9</ele>
        <time>2013-07-10T08:44:41Z</time>
      </trkpt>
      <trkpt lat="46.24922" lon="4.42891">
        <ele>527.6</ele>
        <time>2013-07-10T08:44:42Z</time>
      </trkpt>
      <trkpt lat="46.24919" lon="4.42891">
        <ele>527.4</ele>
        <time>2013-07-10T08:44:43Z</time>
      </trkpt>
      <trkpt lat="46.24916" lon="4.42892">
        <ele>527.3</ele>
        <time>2013-07-10T08:44:44Z</time>
      </trkpt>
      <trkpt lat="46.24914" lon="4.42892">
        <ele>527.3</ele>
        <time>2013-07-10T08:44:45Z</time>
      </trkpt>
      <trkpt lat="46.24911" lon="4.42891">
        <ele>527.3</ele>
        <time>2013-07-10T08:44:46Z</time>
      </trkpt>
      <trkpt lat="46.24908" lon="4.42891">
        <ele>527.3</ele>
        <time>2013-07-10T08:44:47Z</time>
      </trkpt>
      <trkpt lat="46.24905" lon="4.4289">
        <ele>527.2</ele>
        <time>2013-07-10T08:44:48Z</time>
      </trkpt>
      <trkpt lat="46.24902" lon="4.4289">
        <ele>527.1</ele>
        <time>2013-07-10T08:44:49Z</time>
      </trkpt>
      <trkpt lat="46.24899" lon="4.42889">
        <ele>527</ele>
        <time>2013-07-10T08:44:50Z</time>
      </trkpt>
      <trkpt lat="46.24897" lon="4.42888">
        <ele>526.8</ele>
        <time>2013-07-10T08:44:51Z</time>
      </trkpt>
      <trkpt lat="46.24894" lon="4.42887">
        <ele>526.7</ele>
        <time>2013-07-10T08:44:52Z</time>
      </trkpt>
      <trkpt lat="46.24891" lon="4.42886">
        <ele>526.6</ele>
        <time>2013-07-10T08:44:53Z</time>
      </trkpt>
      <trkpt lat="46.24888" lon="4.42885">
        <ele>526.5</ele>
        <time>2013-07-10T08:44:54Z</time>
      </trkpt>
      <trkpt lat="46.24885" lon="4.42884">
        <ele>526.5</ele>
        <time>2013-07-10T08:44:55Z</time>
      </trkpt>
      <trkpt lat="46.24883" lon="4.42883">
        <ele>526.5</ele>
        <time>2013-07-10T08:44:56Z</time>
      </trkpt>
      <trkpt lat="46.2488" lon="4.42881">
        <ele>526.6</ele>
        <time>2013-07-10T08:44:57Z</time>
      </trkpt>
      <trkpt lat="46.24877" lon="4.4288">
        <ele>526.6</ele>
        <time>2013-07-10T08:44:58Z</time>
      </trkpt>
      <trkpt lat="46.24874" lon="4.42879">
        <ele>526.7</ele>
        <time>2013-07-10T08:44:59Z</time>
      </trkpt>
      <trkpt lat="46.24872" lon="4.42878">
        <ele>526.6</ele>
        <time>2013-07-10T08:45:00Z</time>
      </trkpt>
      <trkpt lat="46.24869" lon="4.42877">
        <ele>526.7</ele>
        <time>2013-07-10T08:45:01Z</time>
      </trkpt>
      <trkpt lat="46.24866" lon="4.42876">
        <ele>526.7</ele>
        <time>2013-07-10T08:45:02Z</time>
      </trkpt>
      <trkpt lat="46.24864" lon="4.42875">
        <ele>526.8</ele>
        <time>2013-07-10T08:45:03Z</time>
      </trkpt>
      <trkpt lat="46.24861" lon="4.42874">
        <ele>526.8</ele>
        <time>2013-07-10T08:45:04Z</time>
      </trkpt>
      <trkpt lat="46.24859" lon="4.42873">
        <ele>526.8</ele>
        <time>2013-07-10T08:45:05Z</time>
      </trkpt>
      <trkpt lat="46.24857" lon="4.42873">
        <ele>526.7</ele>
        <time>2013-07-10T08:45:06Z</time>
      </trkpt>
      <trkpt lat="46.24854" lon="4.42872">
        <ele>526.7</ele>
        <time>2013-07-10T08:45:07Z</time>
      </trkpt>
      <trkpt lat="46.24852" lon="4.42872">
        <ele>526.7</ele>
        <time>2013-07-10T08:45:08Z</time>
      </trkpt>
      <trkpt lat="46.24849" lon="4.42872">
        <ele>526.7</ele>
        <time>2013-07-10T08:45:09Z</time>
      </trkpt>
      <trkpt lat="46.24847" lon="4.42871">
        <ele>526.7</ele>
        <time>2013-07-10T08:45:10Z</time>
      </trkpt>
      <trkpt lat="46.24844" lon="4.42871">
        <ele>526.6</ele>
        <time>2013-07-10T08:45:11Z</time>
      </trkpt>
      <trkpt lat="46.24842" lon="4.42871">
        <ele>526.6</ele>
        <time>2013-07-10T08:45:12Z</time>
      </trkpt>
      <trkpt lat="46.2484" lon="4.4287">
        <ele>526.5</ele>
        <time>2013-07-10T08:45:13Z</time>
      </trkpt>
      <trkpt lat="46.24837" lon="4.4287">
        <ele>526.5</ele>
        <time>2013-07-10T08:45:14Z</time>
      </trkpt>
      <trkpt lat="46.24835" lon="4.42869">
        <ele>526.4</ele>
        <time>2013-07-10T08:45:15Z</time>
      </trkpt>
      <trkpt lat="46.24832" lon="4.42869">
        <ele>526.4</ele>
        <time>2013-07-10T08:45:16Z</time>
      </trkpt>
      <trkpt lat="46.2483" lon="4.42869">
        <ele>526.5</ele>
        <time>2013-07-10T08:45:17Z</time>
      </trkpt>
      <trkpt lat="46.24827" lon="4.42869">
        <ele>526.6</ele>
        <time>2013-07-10T08:45:18Z</time>
      </trkpt>
      <trkpt lat="46.24825" lon="4.4287">
        <ele>526.7</ele>
        <time>2013-07-10T08:45:19Z</time>
      </trkpt>
      <trkpt lat="46.24822" lon="4.4287">
        <ele>526.8</ele>
        <time>2013-07-10T08:45:20Z</time>
      </trkpt>
      <trkpt lat="46.24819" lon="4.4287">
        <ele>526.9</ele>
        <time>2013-07-10T08:45:21Z</time>
      </trkpt>
      <trkpt lat="46.24817" lon="4.4287">
        <ele>527</ele>
        <time>2013-07-10T08:45:22Z</time>
      </trkpt>
      <trkpt lat="46.24814" lon="4.4287">
        <ele>527</ele>
        <time>2013-07-10T08:45:23Z</time>
      </trkpt>
      <trkpt lat="46.24812" lon="4.4287">
        <ele>527</ele>
        <time>2013-07-10T08:45:24Z</time>
      </trkpt>
      <trkpt lat="46.24809" lon="4.4287">
        <ele>527.2</ele>
        <time>2013-07-10T08:45:25Z</time>
      </trkpt>
      <trkpt lat="46.24807" lon="4.4287">
        <ele>527.2</ele>
        <time>2013-07-10T08:45:26Z</time>
      </trkpt>
      <trkpt lat="46.24805" lon="4.4287">
        <ele>527.2</ele>
        <time>2013-07-10T08:45:27Z</time>
      </trkpt>
      <trkpt lat="46.24802" lon="4.4287">
        <ele>527.2</ele>
        <time>2013-07-10T08:45:28Z</time>
      </trkpt>
      <trkpt lat="46.248" lon="4.4287">
        <ele>527.3</ele>
        <time>2013-07-10T08:45:29Z</time>
      </trkpt>
      <trkpt lat="46.24798" lon="4.42869">
        <ele>527.3</ele>
        <time>2013-07-10T08:45:30Z</time>
      </trkpt>
      <trkpt lat="46.24795" lon="4.42869">
        <ele>527.3</ele>
        <time>2013-07-10T08:45:31Z</time>
      </trkpt>
      <trkpt lat="46.24793" lon="4.42869">
        <ele>527.4</ele>
        <time>2013-07-10T08:45:32Z</time>
      </trkpt>
      <trkpt lat="46.24791" lon="4.42869">
        <ele>527.4</ele>
        <time>2013-07-10T08:45:33Z</time>
      </trkpt>
      <trkpt lat="46.24789" lon="4.4287">
        <ele>527.5</ele>
        <time>2013-07-10T08:45:34Z</time>
      </trkpt>
      <trkpt lat="46.24787" lon="4.4287">
        <ele>527.6</ele>
        <time>2013-07-10T08:45:35Z</time>
      </trkpt>
      <trkpt lat="46.24784" lon="4.4287">
        <ele>527.7</ele>
        <time>2013-07-10T08:45:36Z</time>
      </trkpt>
      <trkpt lat="46.24782" lon="4.4287">
        <ele>527.7</ele>
        <time>2013-07-10T08:45:37Z</time>
      </trkpt>
      <trkpt lat="46.2478" lon="4.42869">
        <ele>527.7</ele>
        <time>2013-07-10T08:45:38Z</time>
      </trkpt>
      <trkpt lat="46.24778" lon="4.42869">
        <ele>527.7</ele>
        <time>2013-07-10T08:45:39Z</time>
      </trkpt>
      <trkpt lat="46.24776" lon="4.42869">
        <ele>527.8</ele>
        <time>2013-07-10T08:45:40Z</time>
      </trkpt>
      <trkpt lat="46.24774" lon="4.42869">
        <ele>527.7</ele>
        <time>2013-07-10T08:45:41Z</time>
      </trkpt>
      <trkpt lat="46.24772" lon="4.42869">
        <ele>527.8</ele>
        <time>2013-07-10T08:45:42Z</time>
      </trkpt>
      <trkpt lat="46.2477" lon="4.42868">
        <ele>527.8</ele>
        <time>2013-07-10T08:45:43Z</time>
      </trkpt>
      <trkpt lat="46.24768" lon="4.42868">
        <ele>527.7</ele>
        <time>2013-07-10T08:45:44Z</time>
      </trkpt>
      <trkpt lat="46.24766" lon="4.42867">
        <ele>527.7</ele>
        <time>2013-07-10T08:45:45Z</time>
      </trkpt>
      <trkpt lat="46.24764" lon="4.42867">
        <ele>527.7</ele>
        <time>2013-07-10T08:45:46Z</time>
      </trkpt>
      <trkpt lat="46.24761" lon="4.42868">
        <ele>527.8</ele>
        <time>2013-07-10T08:45:47Z</time>
      </trkpt>
      <trkpt lat="46.24759" lon="4.42867">
        <ele>527.8</ele>
        <time>2013-07-10T08:45:48Z</time>
      </trkpt>
      <trkpt lat="46.24757" lon="4.42866">
        <ele>527.7</ele>
        <time>2013-07-10T08:45:49Z</time>
      </trkpt>
      <trkpt lat="46.24755" lon="4.42866">
        <ele>527.7</ele>
        <time>2013-07-10T08:45:50Z</time>
      </trkpt>
      <trkpt lat="46.24753" lon="4.42865">
        <ele>527.7</ele>
        <time>2013-07-10T08:45:51Z</time>
      </trkpt>
      <trkpt lat="46.2475" lon="4.42866">
        <ele>527.8</ele>
        <time>2013-07-10T08:45:52Z</time>
      </trkpt>
      <trkpt lat="46.24748" lon="4.42865">
        <ele>527.8</ele>
        <time>2013-07-10T08:45:53Z</time>
      </trkpt>
      <trkpt lat="46.24746" lon="4.42865">
        <ele>527.8</ele>
        <time>2013-07-10T08:45:54Z</time>
      </trkpt>
      <trkpt lat="46.24744" lon="4.42865">
        <ele>527.8</ele>
        <time>2013-07-10T08:45:55Z</time>
      </trkpt>
      <trkpt lat="46.24742" lon="4.42864">
        <ele>527.9</ele>
        <time>2013-07-10T08:45:56Z</time>
      </trkpt>
      <trkpt lat="46.2474" lon="4.42864">
        <ele>527.9</ele>
        <time>2013-07-10T08:45:57Z</time>
      </trkpt>
      <trkpt lat="46.24737" lon="4.42864">
        <ele>527.9</ele>
        <time>2013-07-10T08:45:58Z</time>
      </trkpt>
      <trkpt lat="46.24735" lon="4.42864">
        <ele>528</ele>
        <time>2013-07-10T08:45:59Z</time>
      </trkpt>
      <trkpt lat="46.24733" lon="4.42864">
        <ele>528</ele>
        <time>2013-07-10T08:46:00Z</time>
      </trkpt>
      <trkpt lat="46.24731" lon="4.42863">
        <ele>528</ele>
        <time>2013-07-10T08:46:01Z</time>
      </trkpt>
      <trkpt lat="46.24728" lon="4.42863">
        <ele>528</ele>
        <time>2013-07-10T08:46:02Z</time>
      </trkpt>
      <trkpt lat="46.24726" lon="4.42863">
        <ele>528.1</ele>
        <time>2013-07-10T08:46:03Z</time>
      </trkpt>
      <trkpt lat="46.24724" lon="4.42863">
        <ele>528.2</ele>
        <time>2013-07-10T08:46:04Z</time>
      </trkpt>
      <trkpt lat="46.24722" lon="4.42863">
        <ele>528.2</ele>
        <time>2013-07-10T08:46:05Z</time>
      </trkpt>
      <trkpt lat="46.24719" lon="4.42862">
        <ele>528</ele>
        <time>2013-07-10T08:46:06Z</time>
      </trkpt>
      <trkpt lat="46.24717" lon="4.42862">
        <ele>527.9</ele>
        <time>2013-07-10T08:46:07Z</time>
      </trkpt>
      <trkpt lat="46.24715" lon="4.42862">
        <ele>527.8</ele>
        <time>2013-07-10T08:46:08Z</time>
      </trkpt>
      <trkpt lat="46.24712" lon="4.42861">
        <ele>527.7</ele>
        <time>2013-07-10T08:46:09Z</time>
      </trkpt>
      <trkpt lat="46.2471" lon="4.42861">
        <ele>527.5</ele>
        <time>2013-07-10T08:46:10Z</time>
      </trkpt>
      <trkpt lat="46.24708" lon="4.42861">
        <ele>527.5</ele>
        <time>2013-07-10T08:46:11Z</time>
      </trkpt>
      <trkpt lat="46.24706" lon="4.42861">
        <ele>527.4</ele>
        <time>2013-07-10T08:46:12Z</time>
      </trkpt>
      <trkpt lat="46.24703" lon="4.42862">
        <ele>527.4</ele>
        <time>2013-07-10T08:46:13Z</time>
      </trkpt>
      <trkpt lat="46.24701" lon="4.42862">
        <ele>527.4</ele>
        <time>2013-07-10T08:46:14Z</time>
      </trkpt>
      <trkpt lat="46.24699" lon="4.42863">
        <ele>527.4</ele>
        <time>2013-07-10T08:46:15Z</time>
      </trkpt>
      <trkpt lat="46.24696" lon="4.42864">
        <ele>527.5</ele>
        <time>2013-07-10T08:46:16Z</time>
      </trkpt>
      <trkpt lat="46.24694" lon="4.42866">
        <ele>527.6</ele>
        <time>2013-07-10T08:46:17Z</time>
      </trkpt>
      <trkpt lat="46.24691" lon="4.42868">
        <ele>527.6</ele>
        <time>2013-07-10T08:46:18Z</time>
      </trkpt>
      <trkpt lat="46.24689" lon="4.42869">
        <ele>527.5</ele>
        <time>2013-07-10T08:46:19Z</time>
      </trkpt>
      <trkpt lat="46.24687" lon="4.4287">
        <ele>527.5</ele>
        <time>2013-07-10T08:46:20Z</time>
      </trkpt>
      <trkpt lat="46.24685" lon="4.42872">
        <ele>527.5</ele>
        <time>2013-07-10T08:46:21Z</time>
      </trkpt>
      <trkpt lat="46.24683" lon="4.42873">
        <ele>527.5</ele>
        <time>2013-07-10T08:46:22Z</time>
      </trkpt>
      <trkpt lat="46.24681" lon="4.42875">
        <ele>527.5</ele>
        <time>2013-07-10T08:46:23Z</time>
      </trkpt>
      <trkpt lat="46.24679" lon="4.42877">
        <ele>527.6</ele>
        <time>2013-07-10T08:46:24Z</time>
      </trkpt>
      <trkpt lat="46.24677" lon="4.42879">
        <ele>527.7</ele>
        <time>2013-07-10T08:46:25Z</time>
      </trkpt>
      <trkpt lat="46.24675" lon="4.42882">
        <ele>527.8</ele>
        <time>2013-07-10T08:46:26Z</time>
      </trkpt>
      <trkpt lat="46.24673" lon="4.42884">
        <ele>527.9</ele>
        <time>2013-07-10T08:46:27Z</time>
      </trkpt>
      <trkpt lat="46.2467" lon="4.42886">
        <ele>527.9</ele>
        <time>2013-07-10T08:46:28Z</time>
      </trkpt>
      <trkpt lat="46.24669" lon="4.42888">
        <ele>528</ele>
        <time>2013-07-10T08:46:29Z</time>
      </trkpt>
      <trkpt lat="46.24666" lon="4.4289">
        <ele>528.1</ele>
        <time>2013-07-10T08:46:30Z</time>
      </trkpt>
      <trkpt lat="46.24664" lon="4.42892">
        <ele>528.1</ele>
        <time>2013-07-10T08:46:31Z</time>
      </trkpt>
      <trkpt lat="46.24663" lon="4.42893">
        <ele>528.1</ele>
        <time>2013-07-10T08:46:32Z</time>
      </trkpt>
      <trkpt lat="46.24661" lon="4.42894">
        <ele>528</ele>
        <time>2013-07-10T08:46:33Z</time>
      </trkpt>
      <trkpt lat="46.24659" lon="4.42896">
        <ele>528.1</ele>
        <time>2013-07-10T08:46:34Z</time>
      </trkpt>
      <trkpt lat="46.24658" lon="4.42898">
        <ele>528.2</ele>
        <time>2013-07-10T08:46:35Z</time>
      </trkpt>
      <trkpt lat="46.24656" lon="4.429">
        <ele>528.3</ele>
        <time>2013-07-10T08:46:36Z</time>
      </trkpt>
      <trkpt lat="46.24655" lon="4.42902">
        <ele>528.4</ele>
        <time>2013-07-10T08:46:37Z</time>
      </trkpt>
      <trkpt lat="46.24653" lon="4.42904">
        <ele>528.5</ele>
        <time>2013-07-10T08:46:38Z</time>
      </trkpt>
      <trkpt lat="46.24651" lon="4.42906">
        <ele>528.5</ele>
        <time>2013-07-10T08:46:39Z</time>
      </trkpt>
      <trkpt lat="46.2465" lon="4.42907">
        <ele>528.4</ele>
        <time>2013-07-10T08:46:40Z</time>
      </trkpt>
      <trkpt lat="46.24648" lon="4.42909">
        <ele>528.4</ele>
        <time>2013-07-10T08:46:41Z</time>
      </trkpt>
      <trkpt lat="46.24646" lon="4.4291">
        <ele>528.4</ele>
        <time>2013-07-10T08:46:42Z</time>
      </trkpt>
      <trkpt lat="46.24645" lon="4.42912">
        <ele>528.3</ele>
        <time>2013-07-10T08:46:43Z</time>
      </trkpt>
      <trkpt lat="46.24643" lon="4.42914">
        <ele>528.3</ele>
        <time>2013-07-10T08:46:44Z</time>
      </trkpt>
      <trkpt lat="46.24642" lon="4.42915">
        <ele>528.2</ele>
        <time>2013-07-10T08:46:45Z</time>
      </trkpt>
      <trkpt lat="46.2464" lon="4.42916">
        <ele>528.1</ele>
        <time>2013-07-10T08:46:46Z</time>
      </trkpt>
      <trkpt lat="46.24638" lon="4.42917">
        <ele>527.9</ele>
        <time>2013-07-10T08:46:47Z</time>
      </trkpt>
      <trkpt lat="46.24636" lon="4.42918">
        <ele>527.8</ele>
        <time>2013-07-10T08:46:48Z</time>
      </trkpt>
      <trkpt lat="46.24635" lon="4.4292">
        <ele>527.8</ele>
        <time>2013-07-10T08:46:49Z</time>
      </trkpt>
      <trkpt lat="46.24633" lon="4.42921">
        <ele>527.9</ele>
        <time>2013-07-10T08:46:50Z</time>
      </trkpt>
      <trkpt lat="46.24632" lon="4.42923">
        <ele>527.9</ele>
        <time>2013-07-10T08:46:51Z</time>
      </trkpt>
      <trkpt lat="46.2463" lon="4.42925">
        <ele>528</ele>
        <time>2013-07-10T08:46:52Z</time>
      </trkpt>
      <trkpt lat="46.24628" lon="4.42927">
        <ele>528.1</ele>
        <time>2013-07-10T08:46:53Z</time>
      </trkpt>
      <trkpt lat="46.24626" lon="4.42928">
        <ele>527.9</ele>
        <time>2013-07-10T08:46:54Z</time>
      </trkpt>
      <trkpt lat="46.24624" lon="4.42929">
        <ele>527.8</ele>
        <time>2013-07-10T08:46:55Z</time>
      </trkpt>
      <trkpt lat="46.24622" lon="4.4293">
        <ele>527.6</ele>
        <time>2013-07-10T08:46:56Z</time>
      </trkpt>
      <trkpt lat="46.2462" lon="4.42932">
        <ele>527.5</ele>
        <time>2013-07-10T08:46:57Z</time>
      </trkpt>
      <trkpt lat="46.24619" lon="4.42933">
        <ele>527.4</ele>
        <time>2013-07-10T08:46:58Z</time>
      </trkpt>
      <trkpt lat="46.24617" lon="4.42934">
        <ele>527.3</ele>
        <time>2013-07-10T08:46:59Z</time>
      </trkpt>
      <trkpt lat="46.24615" lon="4.42936">
        <ele>527.1</ele>
        <time>2013-07-10T08:47:00Z</time>
      </trkpt>
      <trkpt lat="46.24613" lon="4.42937">
        <ele>527</ele>
        <time>2013-07-10T08:47:01Z</time>
      </trkpt>
      <trkpt lat="46.24611" lon="4.42938">
        <ele>526.8</ele>
        <time>2013-07-10T08:47:02Z</time>
      </trkpt>
      <trkpt lat="46.24609" lon="4.42939">
        <ele>526.7</ele>
        <time>2013-07-10T08:47:03Z</time>
      </trkpt>
      <trkpt lat="46.24607" lon="4.42939">
        <ele>526.6</ele>
        <time>2013-07-10T08:47:04Z</time>
      </trkpt>
      <trkpt lat="46.24605" lon="4.4294">
        <ele>526.6</ele>
        <time>2013-07-10T08:47:05Z</time>
      </trkpt>
      <trkpt lat="46.24603" lon="4.42941">
        <ele>526.5</ele>
        <time>2013-07-10T08:47:06Z</time>
      </trkpt>
      <trkpt lat="46.24601" lon="4.42941">
        <ele>526.4</ele>
        <time>2013-07-10T08:47:07Z</time>
      </trkpt>
      <trkpt lat="46.24599" lon="4.42942">
        <ele>526.2</ele>
        <time>2013-07-10T08:47:08Z</time>
      </trkpt>
      <trkpt lat="46.24597" lon="4.42942">
        <ele>526.1</ele>
        <time>2013-07-10T08:47:09Z</time>
      </trkpt>
      <trkpt lat="46.24595" lon="4.42944">
        <ele>526.1</ele>
        <time>2013-07-10T08:47:10Z</time>
      </trkpt>
      <trkpt lat="46.24592" lon="4.42945">
        <ele>526</ele>
        <time>2013-07-10T08:47:11Z</time>
      </trkpt>
      <trkpt lat="46.2459" lon="4.42946">
        <ele>525.9</ele>
        <time>2013-07-10T08:47:12Z</time>
      </trkpt>
      <trkpt lat="46.24588" lon="4.42947">
        <ele>525.8</ele>
        <time>2013-07-10T08:47:13Z</time>
      </trkpt>
      <trkpt lat="46.24586" lon="4.42948">
        <ele>525.7</ele>
        <time>2013-07-10T08:47:14Z</time>
      </trkpt>
      <trkpt lat="46.24584" lon="4.4295">
        <ele>525.6</ele>
        <time>2013-07-10T08:47:15Z</time>
      </trkpt>
      <trkpt lat="46.24581" lon="4.42951">
        <ele>525.3</ele>
        <time>2013-07-10T08:47:16Z</time>
      </trkpt>
      <trkpt lat="46.24579" lon="4.42952">
        <ele>524.9</ele>
        <time>2013-07-10T08:47:17Z</time>
      </trkpt>
      <trkpt lat="46.24577" lon="4.42953">
        <ele>524.6</ele>
        <time>2013-07-10T08:47:18Z</time>
      </trkpt>
      <trkpt lat="46.24575" lon="4.42955">
        <ele>524.3</ele>
        <time>2013-07-10T08:47:19Z</time>
      </trkpt>
      <trkpt lat="46.24573" lon="4.42956">
        <ele>524.1</ele>
        <time>2013-07-10T08:47:20Z</time>
      </trkpt>
      <trkpt lat="46.24571" lon="4.42958">
        <ele>523.9</ele>
        <time>2013-07-10T08:47:21Z</time>
      </trkpt>
      <trkpt lat="46.24568" lon="4.42959">
        <ele>523.7</ele>
        <time>2013-07-10T08:47:22Z</time>
      </trkpt>
      <trkpt lat="46.24566" lon="4.42961">
        <ele>523.4</ele>
        <time>2013-07-10T08:47:23Z</time>
      </trkpt>
      <trkpt lat="46.24564" lon="4.42962">
        <ele>523.2</ele>
        <time>2013-07-10T08:47:24Z</time>
      </trkpt>
      <trkpt lat="46.24562" lon="4.42964">
        <ele>523</ele>
        <time>2013-07-10T08:47:25Z</time>
      </trkpt>
      <trkpt lat="46.2456" lon="4.42965">
        <ele>522.8</ele>
        <time>2013-07-10T08:47:26Z</time>
      </trkpt>
      <trkpt lat="46.24559" lon="4.42967">
        <ele>522.8</ele>
        <time>2013-07-10T08:47:27Z</time>
      </trkpt>
      <trkpt lat="46.24557" lon="4.42969">
        <ele>522.7</ele>
        <time>2013-07-10T08:47:28Z</time>
      </trkpt>
      <trkpt lat="46.24555" lon="4.42971">
        <ele>522.5</ele>
        <time>2013-07-10T08:47:29Z</time>
      </trkpt>
      <trkpt lat="46.24553" lon="4.42973">
        <ele>522.4</ele>
        <time>2013-07-10T08:47:30Z</time>
      </trkpt>
      <trkpt lat="46.24551" lon="4.42975">
        <ele>522.2</ele>
        <time>2013-07-10T08:47:31Z</time>
      </trkpt>
      <trkpt lat="46.24549" lon="4.42977">
        <ele>522.1</ele>
        <time>2013-07-10T08:47:32Z</time>
      </trkpt>
      <trkpt lat="46.24547" lon="4.42979">
        <ele>521.9</ele>
        <time>2013-07-10T08:47:33Z</time>
      </trkpt>
      <trkpt lat="46.24545" lon="4.42982">
        <ele>521.7</ele>
        <time>2013-07-10T08:47:34Z</time>
      </trkpt>
      <trkpt lat="46.24543" lon="4.42984">
        <ele>521.6</ele>
        <time>2013-07-10T08:47:35Z</time>
      </trkpt>
      <trkpt lat="46.24542" lon="4.42986">
        <ele>521.5</ele>
        <time>2013-07-10T08:47:36Z</time>
      </trkpt>
      <trkpt lat="46.2454" lon="4.42989">
        <ele>521.4</ele>
        <time>2013-07-10T08:47:37Z</time>
      </trkpt>
      <trkpt lat="46.24538" lon="4.42991">
        <ele>521.2</ele>
        <time>2013-07-10T08:47:38Z</time>
      </trkpt>
      <trkpt lat="46.24536" lon="4.42993">
        <ele>521.1</ele>
        <time>2013-07-10T08:47:39Z</time>
      </trkpt>
      <trkpt lat="46.24535" lon="4.42995">
        <ele>520.9</ele>
        <time>2013-07-10T08:47:40Z</time>
      </trkpt>
      <trkpt lat="46.24533" lon="4.42998">
        <ele>520.8</ele>
        <time>2013-07-10T08:47:41Z</time>
      </trkpt>
      <trkpt lat="46.24531" lon="4.43">
        <ele>520.6</ele>
        <time>2013-07-10T08:47:42Z</time>
      </trkpt>
      <trkpt lat="46.24529" lon="4.43002">
        <ele>520.3</ele>
        <time>2013-07-10T08:47:43Z</time>
      </trkpt>
      <trkpt lat="46.24527" lon="4.43005">
        <ele>519.9</ele>
        <time>2013-07-10T08:47:44Z</time>
      </trkpt>
      <trkpt lat="46.24525" lon="4.43007">
        <ele>519.4</ele>
        <time>2013-07-10T08:47:45Z</time>
      </trkpt>
      <trkpt lat="46.24523" lon="4.43009">
        <ele>519.1</ele>
        <time>2013-07-10T08:47:46Z</time>
      </trkpt>
      <trkpt lat="46.24521" lon="4.43011">
        <ele>518.7</ele>
        <time>2013-07-10T08:47:47Z</time>
      </trkpt>
      <trkpt lat="46.2452" lon="4.43014">
        <ele>518.4</ele>
        <time>2013-07-10T08:47:48Z</time>
      </trkpt>
      <trkpt lat="46.24518" lon="4.43016">
        <ele>518.1</ele>
        <time>2013-07-10T08:47:49Z</time>
      </trkpt>
      <trkpt lat="46.24516" lon="4.43018">
        <ele>517.8</ele>
        <time>2013-07-10T08:47:50Z</time>
      </trkpt>
      <trkpt lat="46.24514" lon="4.43021">
        <ele>517.5</ele>
        <time>2013-07-10T08:47:51Z</time>
      </trkpt>
      <trkpt lat="46.24512" lon="4.43023">
        <ele>517.2</ele>
        <time>2013-07-10T08:47:52Z</time>
      </trkpt>
      <trkpt lat="46.2451" lon="4.43025">
        <ele>516.9</ele>
        <time>2013-07-10T08:47:53Z</time>
      </trkpt>
      <trkpt lat="46.24508" lon="4.43027">
        <ele>516.7</ele>
        <time>2013-07-10T08:47:54Z</time>
      </trkpt>
      <trkpt lat="46.24506" lon="4.4303">
        <ele>516.3</ele>
        <time>2013-07-10T08:47:55Z</time>
      </trkpt>
      <trkpt lat="46.24504" lon="4.43032">
        <ele>516</ele>
        <time>2013-07-10T08:47:56Z</time>
      </trkpt>
      <trkpt lat="46.24502" lon="4.43034">
        <ele>515.8</ele>
        <time>2013-07-10T08:47:57Z</time>
      </trkpt>
      <trkpt lat="46.245" lon="4.43036">
        <ele>515.6</ele>
        <time>2013-07-10T08:47:58Z</time>
      </trkpt>
      <trkpt lat="46.24498" lon="4.43038">
        <ele>515.3</ele>
        <time>2013-07-10T08:47:59Z</time>
      </trkpt>
      <trkpt lat="46.24497" lon="4.4304">
        <ele>515.1</ele>
        <time>2013-07-10T08:48:00Z</time>
      </trkpt>
      <trkpt lat="46.24495" lon="4.43041">
        <ele>514.8</ele>
        <time>2013-07-10T08:48:01Z</time>
      </trkpt>
      <trkpt lat="46.24493" lon="4.43043">
        <ele>514.5</ele>
        <time>2013-07-10T08:48:02Z</time>
      </trkpt>
      <trkpt lat="46.24491" lon="4.43045">
        <ele>514.3</ele>
        <time>2013-07-10T08:48:03Z</time>
      </trkpt>
      <trkpt lat="46.2449" lon="4.43047">
        <ele>514</ele>
        <time>2013-07-10T08:48:04Z</time>
      </trkpt>
      <trkpt lat="46.24488" lon="4.43049">
        <ele>513.8</ele>
        <time>2013-07-10T08:48:05Z</time>
      </trkpt>
      <trkpt lat="46.24486" lon="4.43051">
        <ele>513.6</ele>
        <time>2013-07-10T08:48:06Z</time>
      </trkpt>
      <trkpt lat="46.24484" lon="4.43053">
        <ele>513.4</ele>
        <time>2013-07-10T08:48:07Z</time>
      </trkpt>
      <trkpt lat="46.24483" lon="4.43056">
        <ele>513.3</ele>
        <time>2013-07-10T08:48:08Z</time>
      </trkpt>
      <trkpt lat="46.24481" lon="4.43057">
        <ele>513.2</ele>
        <time>2013-07-10T08:48:09Z</time>
      </trkpt>
      <trkpt lat="46.24479" lon="4.43059">
        <ele>513.1</ele>
        <time>2013-07-10T08:48:10Z</time>
      </trkpt>
      <trkpt lat="46.24478" lon="4.43061">
        <ele>513.1</ele>
        <time>2013-07-10T08:48:11Z</time>
      </trkpt>
      <trkpt lat="46.24476" lon="4.43063">
        <ele>513.1</ele>
        <time>2013-07-10T08:48:12Z</time>
      </trkpt>
      <trkpt lat="46.24474" lon="4.43065">
        <ele>513</ele>
        <time>2013-07-10T08:48:13Z</time>
      </trkpt>
      <trkpt lat="46.24472" lon="4.43067">
        <ele>513</ele>
        <time>2013-07-10T08:48:14Z</time>
      </trkpt>
      <trkpt lat="46.24471" lon="4.43069">
        <ele>513</ele>
        <time>2013-07-10T08:48:15Z</time>
      </trkpt>
      <trkpt lat="46.24469" lon="4.43071">
        <ele>512.9</ele>
        <time>2013-07-10T08:48:16Z</time>
      </trkpt>
      <trkpt lat="46.24467" lon="4.43072">
        <ele>512.9</ele>
        <time>2013-07-10T08:48:17Z</time>
      </trkpt>
      <trkpt lat="46.24465" lon="4.43075">
        <ele>513</ele>
        <time>2013-07-10T08:48:18Z</time>
      </trkpt>
      <trkpt lat="46.24464" lon="4.43077">
        <ele>513</ele>
        <time>2013-07-10T08:48:19Z</time>
      </trkpt>
      <trkpt lat="46.24462" lon="4.43079">
        <ele>512.9</ele>
        <time>2013-07-10T08:48:20Z</time>
      </trkpt>
      <trkpt lat="46.2446" lon="4.43081">
        <ele>512.8</ele>
        <time>2013-07-10T08:48:21Z</time>
      </trkpt>
      <trkpt lat="46.24458" lon="4.43082">
        <ele>512.7</ele>
        <time>2013-07-10T08:48:22Z</time>
      </trkpt>
      <trkpt lat="46.24456" lon="4.43084">
        <ele>512.4</ele>
        <time>2013-07-10T08:48:23Z</time>
      </trkpt>
      <trkpt lat="46.24453" lon="4.43086">
        <ele>512</ele>
        <time>2013-07-10T08:48:24Z</time>
      </trkpt>
      <trkpt lat="46.24451" lon="4.43087">
        <ele>511.6</ele>
        <time>2013-07-10T08:48:25Z</time>
      </trkpt>
      <trkpt lat="46.24448" lon="4.43089">
        <ele>511.1</ele>
        <time>2013-07-10T08:48:26Z</time>
      </trkpt>
      <trkpt lat="46.24446" lon="4.4309">
        <ele>510.6</ele>
        <time>2013-07-10T08:48:27Z</time>
      </trkpt>
      <trkpt lat="46.24444" lon="4.4309">
        <ele>510.3</ele>
        <time>2013-07-10T08:48:28Z</time>
      </trkpt>
      <trkpt lat="46.24441" lon="4.43091">
        <ele>510.4</ele>
        <time>2013-07-10T08:48:29Z</time>
      </trkpt>
      <trkpt lat="46.24439" lon="4.43091">
        <ele>510.4</ele>
        <time>2013-07-10T08:48:30Z</time>
      </trkpt>
      <trkpt lat="46.24437" lon="4.4309">
        <ele>510.5</ele>
        <time>2013-07-10T08:48:31Z</time>
      </trkpt>
      <trkpt lat="46.24435" lon="4.43089">
        <ele>510.4</ele>
        <time>2013-07-10T08:48:32Z</time>
      </trkpt>
      <trkpt lat="46.24433" lon="4.43089">
        <ele>510.4</ele>
        <time>2013-07-10T08:48:33Z</time>
      </trkpt>
      <trkpt lat="46.24431" lon="4.43088">
        <ele>510.4</ele>
        <time>2013-07-10T08:48:34Z</time>
      </trkpt>
      <trkpt lat="46.24429" lon="4.43087">
        <ele>510.4</ele>
        <time>2013-07-10T08:48:35Z</time>
      </trkpt>
      <trkpt lat="46.24427" lon="4.43086">
        <ele>510.3</ele>
        <time>2013-07-10T08:48:36Z</time>
      </trkpt>
      <trkpt lat="46.24425" lon="4.43085">
        <ele>510.2</ele>
        <time>2013-07-10T08:48:37Z</time>
      </trkpt>
      <trkpt lat="46.24423" lon="4.43085">
        <ele>510.2</ele>
        <time>2013-07-10T08:48:38Z</time>
      </trkpt>
      <trkpt lat="46.24421" lon="4.43084">
        <ele>510.1</ele>
        <time>2013-07-10T08:48:39Z</time>
      </trkpt>
      <trkpt lat="46.24418" lon="4.43083">
        <ele>509.8</ele>
        <time>2013-07-10T08:48:40Z</time>
      </trkpt>
      <trkpt lat="46.24416" lon="4.43081">
        <ele>509.5</ele>
        <time>2013-07-10T08:48:41Z</time>
      </trkpt>
      <trkpt lat="46.24414" lon="4.4308">
        <ele>509.1</ele>
        <time>2013-07-10T08:48:42Z</time>
      </trkpt>
      <trkpt lat="46.24412" lon="4.43078">
        <ele>508.8</ele>
        <time>2013-07-10T08:48:43Z</time>
      </trkpt>
      <trkpt lat="46.24409" lon="4.43077">
        <ele>508.5</ele>
        <time>2013-07-10T08:48:44Z</time>
      </trkpt>
      <trkpt lat="46.24407" lon="4.43076">
        <ele>508.3</ele>
        <time>2013-07-10T08:48:45Z</time>
      </trkpt>
      <trkpt lat="46.24405" lon="4.43075">
        <ele>508.1</ele>
        <time>2013-07-10T08:48:46Z</time>
      </trkpt>
      <trkpt lat="46.24402" lon="4.43074">
        <ele>507.9</ele>
        <time>2013-07-10T08:48:47Z</time>
      </trkpt>
      <trkpt lat="46.244" lon="4.43072">
        <ele>507.7</ele>
        <time>2013-07-10T08:48:48Z</time>
      </trkpt>
      <trkpt lat="46.24397" lon="4.43071">
        <ele>507.5</ele>
        <time>2013-07-10T08:48:49Z</time>
      </trkpt>
      <trkpt lat="46.24395" lon="4.4307">
        <ele>507.3</ele>
        <time>2013-07-10T08:48:50Z</time>
      </trkpt>
      <trkpt lat="46.24392" lon="4.43069">
        <ele>507.2</ele>
        <time>2013-07-10T08:48:51Z</time>
      </trkpt>
      <trkpt lat="46.2439" lon="4.43068">
        <ele>507.2</ele>
        <time>2013-07-10T08:48:52Z</time>
      </trkpt>
      <trkpt lat="46.24387" lon="4.43067">
        <ele>506.9</ele>
        <time>2013-07-10T08:48:53Z</time>
      </trkpt>
      <trkpt lat="46.24384" lon="4.43066">
        <ele>506.7</ele>
        <time>2013-07-10T08:48:54Z</time>
      </trkpt>
      <trkpt lat="46.24382" lon="4.43065">
        <ele>506.5</ele>
        <time>2013-07-10T08:48:55Z</time>
      </trkpt>
      <trkpt lat="46.2438" lon="4.43065">
        <ele>506.3</ele>
        <time>2013-07-10T08:48:56Z</time>
      </trkpt>
      <trkpt lat="46.24377" lon="4.43064">
        <ele>506</ele>
        <time>2013-07-10T08:48:57Z</time>
      </trkpt>
      <trkpt lat="46.24375" lon="4.43063">
        <ele>505.8</ele>
        <time>2013-07-10T08:48:58Z</time>
      </trkpt>
      <trkpt lat="46.24372" lon="4.43062">
        <ele>505.6</ele>
        <time>2013-07-10T08:48:59Z</time>
      </trkpt>
      <trkpt lat="46.2437" lon="4.43062">
        <ele>505.5</ele>
        <time>2013-07-10T08:49:00Z</time>
      </trkpt>
      <trkpt lat="46.24367" lon="4.43062">
        <ele>505.4</ele>
        <time>2013-07-10T08:49:01Z</time>
      </trkpt>
      <trkpt lat="46.24364" lon="4.43062">
        <ele>505.2</ele>
        <time>2013-07-10T08:49:02Z</time>
      </trkpt>
      <trkpt lat="46.24362" lon="4.43061">
        <ele>505</ele>
        <time>2013-07-10T08:49:03Z</time>
      </trkpt>
      <trkpt lat="46.2436" lon="4.43061">
        <ele>504.9</ele>
        <time>2013-07-10T08:49:04Z</time>
      </trkpt>
      <trkpt lat="46.24357" lon="4.43061">
        <ele>504.6</ele>
        <time>2013-07-10T08:49:05Z</time>
      </trkpt>
      <trkpt lat="46.24355" lon="4.4306">
        <ele>504.3</ele>
        <time>2013-07-10T08:49:06Z</time>
      </trkpt>
      <trkpt lat="46.24353" lon="4.43059">
        <ele>504.1</ele>
        <time>2013-07-10T08:49:07Z</time>
      </trkpt>
      <trkpt lat="46.24351" lon="4.43059">
        <ele>504</ele>
        <time>2013-07-10T08:49:08Z</time>
      </trkpt>
      <trkpt lat="46.24349" lon="4.43059">
        <ele>503.8</ele>
        <time>2013-07-10T08:49:09Z</time>
      </trkpt>
      <trkpt lat="46.24346" lon="4.43059">
        <ele>503.6</ele>
        <time>2013-07-10T08:49:10Z</time>
      </trkpt>
      <trkpt lat="46.24344" lon="4.4306">
        <ele>503.6</ele>
        <time>2013-07-10T08:49:11Z</time>
      </trkpt>
      <trkpt lat="46.24341" lon="4.4306">
        <ele>503.6</ele>
        <time>2013-07-10T08:49:12Z</time>
      </trkpt>
      <trkpt lat="46.24339" lon="4.43062">
        <ele>503.7</ele>
        <time>2013-07-10T08:49:13Z</time>
      </trkpt>
      <trkpt lat="46.24337" lon="4.43064">
        <ele>504</ele>
        <time>2013-07-10T08:49:14Z</time>
      </trkpt>
      <trkpt lat="46.24335" lon="4.43065">
        <ele>504.1</ele>
        <time>2013-07-10T08:49:15Z</time>
      </trkpt>
      <trkpt lat="46.24333" lon="4.43067">
        <ele>504.4</ele>
        <time>2013-07-10T08:49:16Z</time>
      </trkpt>
      <trkpt lat="46.24331" lon="4.43068">
        <ele>504.4</ele>
        <time>2013-07-10T08:49:17Z</time>
      </trkpt>
      <trkpt lat="46.24329" lon="4.4307">
        <ele>504.4</ele>
        <time>2013-07-10T08:49:18Z</time>
      </trkpt>
      <trkpt lat="46.24328" lon="4.43072">
        <ele>504.6</ele>
        <time>2013-07-10T08:49:19Z</time>
      </trkpt>
      <trkpt lat="46.24325" lon="4.43074">
        <ele>504.8</ele>
        <time>2013-07-10T08:49:20Z</time>
      </trkpt>
      <trkpt lat="46.24323" lon="4.43077">
        <ele>505</ele>
        <time>2013-07-10T08:49:21Z</time>
      </trkpt>
      <trkpt lat="46.2432" lon="4.4308">
        <ele>505.3</ele>
        <time>2013-07-10T08:49:22Z</time>
      </trkpt>
      <trkpt lat="46.24317" lon="4.43083">
        <ele>505.6</ele>
        <time>2013-07-10T08:49:23Z</time>
      </trkpt>
      <trkpt lat="46.24314" lon="4.43086">
        <ele>505.7</ele>
        <time>2013-07-10T08:49:24Z</time>
      </trkpt>
      <trkpt lat="46.24312" lon="4.43088">
        <ele>505.9</ele>
        <time>2013-07-10T08:49:25Z</time>
      </trkpt>
      <trkpt lat="46.24309" lon="4.43092">
        <ele>506.3</ele>
        <time>2013-07-10T08:49:26Z</time>
      </trkpt>
      <trkpt lat="46.24306" lon="4.43095">
        <ele>506.7</ele>
        <time>2013-07-10T08:49:27Z</time>
      </trkpt>
      <trkpt lat="46.24304" lon="4.43099">
        <ele>507.1</ele>
        <time>2013-07-10T08:49:28Z</time>
      </trkpt>
      <trkpt lat="46.24302" lon="4.43102">
        <ele>507.5</ele>
        <time>2013-07-10T08:49:29Z</time>
      </trkpt>
      <trkpt lat="46.24299" lon="4.43104">
        <ele>507.7</ele>
        <time>2013-07-10T08:49:30Z</time>
      </trkpt>
      <trkpt lat="46.24297" lon="4.43106">
        <ele>507.8</ele>
        <time>2013-07-10T08:49:31Z</time>
      </trkpt>
      <trkpt lat="46.24295" lon="4.43108">
        <ele>507.9</ele>
        <time>2013-07-10T08:49:32Z</time>
      </trkpt>
      <trkpt lat="46.24293" lon="4.43109">
        <ele>508</ele>
        <time>2013-07-10T08:49:33Z</time>
      </trkpt>
      <trkpt lat="46.2429" lon="4.4311">
        <ele>508.1</ele>
        <time>2013-07-10T08:49:34Z</time>
      </trkpt>
      <trkpt lat="46.24288" lon="4.43112">
        <ele>508.3</ele>
        <time>2013-07-10T08:49:35Z</time>
      </trkpt>
      <trkpt lat="46.24286" lon="4.43114">
        <ele>508.4</ele>
        <time>2013-07-10T08:49:36Z</time>
      </trkpt>
      <trkpt lat="46.24284" lon="4.43115">
        <ele>508.5</ele>
        <time>2013-07-10T08:49:37Z</time>
      </trkpt>
      <trkpt lat="46.24282" lon="4.43117">
        <ele>508.6</ele>
        <time>2013-07-10T08:49:38Z</time>
      </trkpt>
      <trkpt lat="46.2428" lon="4.43119">
        <ele>508.8</ele>
        <time>2013-07-10T08:49:39Z</time>
      </trkpt>
      <trkpt lat="46.24278" lon="4.4312">
        <ele>509</ele>
        <time>2013-07-10T08:49:40Z</time>
      </trkpt>
      <trkpt lat="46.24276" lon="4.43121">
        <ele>509</ele>
        <time>2013-07-10T08:49:41Z</time>
      </trkpt>
      <trkpt lat="46.24275" lon="4.43123">
        <ele>509.1</ele>
        <time>2013-07-10T08:49:42Z</time>
      </trkpt>
      <trkpt lat="46.24272" lon="4.43125">
        <ele>509.3</ele>
        <time>2013-07-10T08:49:43Z</time>
      </trkpt>
      <trkpt lat="46.2427" lon="4.43127">
        <ele>509.4</ele>
        <time>2013-07-10T08:49:44Z</time>
      </trkpt>
      <trkpt lat="46.24268" lon="4.43129">
        <ele>509.5</ele>
        <time>2013-07-10T08:49:45Z</time>
      </trkpt>
      <trkpt lat="46.24266" lon="4.4313">
        <ele>509.4</ele>
        <time>2013-07-10T08:49:46Z</time>
      </trkpt>
      <trkpt lat="46.24264" lon="4.43131">
        <ele>509.2</ele>
        <time>2013-07-10T08:49:47Z</time>
      </trkpt>
      <trkpt lat="46.24261" lon="4.43132">
        <ele>509</ele>
        <time>2013-07-10T08:49:48Z</time>
      </trkpt>
      <trkpt lat="46.24259" lon="4.43133">
        <ele>508.9</ele>
        <time>2013-07-10T08:49:49Z</time>
      </trkpt>
      <trkpt lat="46.24257" lon="4.43134">
        <ele>509</ele>
        <time>2013-07-10T08:49:50Z</time>
      </trkpt>
      <trkpt lat="46.24255" lon="4.43136">
        <ele>509.2</ele>
        <time>2013-07-10T08:49:51Z</time>
      </trkpt>
      <trkpt lat="46.24253" lon="4.43138">
        <ele>509.3</ele>
        <time>2013-07-10T08:49:52Z</time>
      </trkpt>
      <trkpt lat="46.24252" lon="4.4314">
        <ele>509.4</ele>
        <time>2013-07-10T08:49:53Z</time>
      </trkpt>
      <trkpt lat="46.2425" lon="4.43143">
        <ele>509.5</ele>
        <time>2013-07-10T08:49:54Z</time>
      </trkpt>
      <trkpt lat="46.24247" lon="4.43144">
        <ele>509.4</ele>
        <time>2013-07-10T08:49:55Z</time>
      </trkpt>
      <trkpt lat="46.24245" lon="4.43146">
        <ele>509.4</ele>
        <time>2013-07-10T08:49:56Z</time>
      </trkpt>
      <trkpt lat="46.24243" lon="4.43148">
        <ele>509.5</ele>
        <time>2013-07-10T08:49:57Z</time>
      </trkpt>
      <trkpt lat="46.24241" lon="4.43151">
        <ele>509.5</ele>
        <time>2013-07-10T08:49:58Z</time>
      </trkpt>
      <trkpt lat="46.24239" lon="4.43153">
        <ele>509.6</ele>
        <time>2013-07-10T08:49:59Z</time>
      </trkpt>
      <trkpt lat="46.24238" lon="4.43155">
        <ele>509.8</ele>
        <time>2013-07-10T08:50:00Z</time>
      </trkpt>
      <trkpt lat="46.24236" lon="4.43157">
        <ele>509.8</ele>
        <time>2013-07-10T08:50:01Z</time>
      </trkpt>
      <trkpt lat="46.24234" lon="4.43159">
        <ele>509.9</ele>
        <time>2013-07-10T08:50:02Z</time>
      </trkpt>
      <trkpt lat="46.24232" lon="4.43161">
        <ele>510</ele>
        <time>2013-07-10T08:50:03Z</time>
      </trkpt>
      <trkpt lat="46.2423" lon="4.43162">
        <ele>510.1</ele>
        <time>2013-07-10T08:50:04Z</time>
      </trkpt>
      <trkpt lat="46.24229" lon="4.43164">
        <ele>510.3</ele>
        <time>2013-07-10T08:50:05Z</time>
      </trkpt>
      <trkpt lat="46.24227" lon="4.43166">
        <ele>510.4</ele>
        <time>2013-07-10T08:50:06Z</time>
      </trkpt>
      <trkpt lat="46.24225" lon="4.43168">
        <ele>510.5</ele>
        <time>2013-07-10T08:50:07Z</time>
      </trkpt>
      <trkpt lat="46.24223" lon="4.43171">
        <ele>510.6</ele>
        <time>2013-07-10T08:50:08Z</time>
      </trkpt>
      <trkpt lat="46.24221" lon="4.43173">
        <ele>510.7</ele>
        <time>2013-07-10T08:50:09Z</time>
      </trkpt>
      <trkpt lat="46.2422" lon="4.43174">
        <ele>510.8</ele>
        <time>2013-07-10T08:50:10Z</time>
      </trkpt>
      <trkpt lat="46.24218" lon="4.43176">
        <ele>510.9</ele>
        <time>2013-07-10T08:50:11Z</time>
      </trkpt>
      <trkpt lat="46.24216" lon="4.43178">
        <ele>511.1</ele>
        <time>2013-07-10T08:50:12Z</time>
      </trkpt>
      <trkpt lat="46.24214" lon="4.43179">
        <ele>511.2</ele>
        <time>2013-07-10T08:50:13Z</time>
      </trkpt>
      <trkpt lat="46.24213" lon="4.43181">
        <ele>511.3</ele>
        <time>2013-07-10T08:50:14Z</time>
      </trkpt>
      <trkpt lat="46.24211" lon="4.43182">
        <ele>511.5</ele>
        <time>2013-07-10T08:50:15Z</time>
      </trkpt>
      <trkpt lat="46.2421" lon="4.43184">
        <ele>511.7</ele>
        <time>2013-07-10T08:50:16Z</time>
      </trkpt>
      <trkpt lat="46.24208" lon="4.43186">
        <ele>511.9</ele>
        <time>2013-07-10T08:50:17Z</time>
      </trkpt>
      <trkpt lat="46.24207" lon="4.43187">
        <ele>512.1</ele>
        <time>2013-07-10T08:50:18Z</time>
      </trkpt>
      <trkpt lat="46.24205" lon="4.4319">
        <ele>512.4</ele>
        <time>2013-07-10T08:50:19Z</time>
      </trkpt>
      <trkpt lat="46.24203" lon="4.43191">
        <ele>512.7</ele>
        <time>2013-07-10T08:50:20Z</time>
      </trkpt>
      <trkpt lat="46.24202" lon="4.43193">
        <ele>512.9</ele>
        <time>2013-07-10T08:50:21Z</time>
      </trkpt>
      <trkpt lat="46.242" lon="4.43194">
        <ele>513.2</ele>
        <time>2013-07-10T08:50:22Z</time>
      </trkpt>
      <trkpt lat="46.24199" lon="4.43196">
        <ele>513.3</ele>
        <time>2013-07-10T08:50:23Z</time>
      </trkpt>
      <trkpt lat="46.24197" lon="4.43198">
        <ele>513.5</ele>
        <time>2013-07-10T08:50:24Z</time>
      </trkpt>
      <trkpt lat="46.24196" lon="4.43199">
        <ele>513.7</ele>
        <time>2013-07-10T08:50:25Z</time>
      </trkpt>
      <trkpt lat="46.24194" lon="4.43201">
        <ele>513.9</ele>
        <time>2013-07-10T08:50:26Z</time>
      </trkpt>
      <trkpt lat="46.24193" lon="4.43204">
        <ele>514.2</ele>
        <time>2013-07-10T08:50:27Z</time>
      </trkpt>
      <trkpt lat="46.24192" lon="4.43206">
        <ele>514.5</ele>
        <time>2013-07-10T08:50:28Z</time>
      </trkpt>
      <trkpt lat="46.24192" lon="4.43208">
        <ele>514.8</ele>
        <time>2013-07-10T08:50:29Z</time>
      </trkpt>
      <trkpt lat="46.2419" lon="4.43211">
        <ele>515.2</ele>
        <time>2013-07-10T08:50:30Z</time>
      </trkpt>
      <trkpt lat="46.24189" lon="4.43213">
        <ele>515.4</ele>
        <time>2013-07-10T08:50:31Z</time>
      </trkpt>
      <trkpt lat="46.24188" lon="4.43214">
        <ele>515.5</ele>
        <time>2013-07-10T08:50:32Z</time>
      </trkpt>
      <trkpt lat="46.24186" lon="4.43216">
        <ele>515.7</ele>
        <time>2013-07-10T08:50:33Z</time>
      </trkpt>
      <trkpt lat="46.24185" lon="4.43218">
        <ele>515.9</ele>
        <time>2013-07-10T08:50:34Z</time>
      </trkpt>
      <trkpt lat="46.24183" lon="4.43219">
        <ele>516</ele>
        <time>2013-07-10T08:50:35Z</time>
      </trkpt>
      <trkpt lat="46.24182" lon="4.4322">
        <ele>516.2</ele>
        <time>2013-07-10T08:50:36Z</time>
      </trkpt>
      <trkpt lat="46.2418" lon="4.43222">
        <ele>516.4</ele>
        <time>2013-07-10T08:50:37Z</time>
      </trkpt>
      <trkpt lat="46.24179" lon="4.43223">
        <ele>516.6</ele>
        <time>2013-07-10T08:50:38Z</time>
      </trkpt>
      <trkpt lat="46.24178" lon="4.43225">
        <ele>516.7</ele>
        <time>2013-07-10T08:50:39Z</time>
      </trkpt>
      <trkpt lat="46.24177" lon="4.43227">
        <ele>516.8</ele>
        <time>2013-07-10T08:50:40Z</time>
      </trkpt>
      <trkpt lat="46.24176" lon="4.43228">
        <ele>516.9</ele>
        <time>2013-07-10T08:50:41Z</time>
      </trkpt>
      <trkpt lat="46.24175" lon="4.43229">
        <ele>517</ele>
        <time>2013-07-10T08:50:42Z</time>
      </trkpt>
      <trkpt lat="46.24174" lon="4.43231">
        <ele>517</ele>
        <time>2013-07-10T08:50:43Z</time>
      </trkpt>
      <trkpt lat="46.24173" lon="4.43232">
        <ele>517.1</ele>
        <time>2013-07-10T08:50:44Z</time>
      </trkpt>
      <trkpt lat="46.24172" lon="4.43233">
        <ele>517.1</ele>
        <time>2013-07-10T08:50:45Z</time>
      </trkpt>
      <trkpt lat="46.24171" lon="4.43235">
        <ele>517.2</ele>
        <time>2013-07-10T08:50:46Z</time>
      </trkpt>
      <trkpt lat="46.2417" lon="4.43236">
        <ele>517.3</ele>
        <time>2013-07-10T08:50:47Z</time>
      </trkpt>
      <trkpt lat="46.24169" lon="4.43237">
        <ele>517.3</ele>
        <time>2013-07-10T08:50:48Z</time>
      </trkpt>
      <trkpt lat="46.24169" lon="4.43239">
        <ele>517.3</ele>
        <time>2013-07-10T08:50:49Z</time>
      </trkpt>
      <trkpt lat="46.24168" lon="4.4324">
        <ele>517.3</ele>
        <time>2013-07-10T08:50:50Z</time>
      </trkpt>
      <trkpt lat="46.24166" lon="4.43241">
        <ele>517.3</ele>
        <time>2013-07-10T08:50:51Z</time>
      </trkpt>
      <trkpt lat="46.24165" lon="4.43242">
        <ele>517.3</ele>
        <time>2013-07-10T08:50:52Z</time>
      </trkpt>
      <trkpt lat="46.24164" lon="4.43243">
        <ele>517.4</ele>
        <time>2013-07-10T08:50:53Z</time>
      </trkpt>
      <trkpt lat="46.24163" lon="4.43245">
        <ele>517.4</ele>
        <time>2013-07-10T08:50:54Z</time>
      </trkpt>
      <trkpt lat="46.24162" lon="4.43246">
        <ele>517.4</ele>
        <time>2013-07-10T08:50:55Z</time>
      </trkpt>
      <trkpt lat="46.24161" lon="4.43248">
        <ele>517.4</ele>
        <time>2013-07-10T08:50:56Z</time>
      </trkpt>
      <trkpt lat="46.2416" lon="4.43249">
        <ele>517.5</ele>
        <time>2013-07-10T08:50:57Z</time>
      </trkpt>
      <trkpt lat="46.24157" lon="4.43254">
        <ele>517.7</ele>
        <time>2013-07-10T08:50:58Z</time>
      </trkpt>
      <trkpt lat="46.24156" lon="4.43256">
        <ele>517.7</ele>
        <time>2013-07-10T08:50:59Z</time>
      </trkpt>
      <trkpt lat="46.24155" lon="4.43257">
        <ele>517.8</ele>
        <time>2013-07-10T08:51:00Z</time>
      </trkpt>
      <trkpt lat="46.24155" lon="4.43258">
        <ele>517.9</ele>
        <time>2013-07-10T08:51:01Z</time>
      </trkpt>
      <trkpt lat="46.24154" lon="4.4326">
        <ele>517.9</ele>
        <time>2013-07-10T08:51:02Z</time>
      </trkpt>
      <trkpt lat="46.24153" lon="4.43261">
        <ele>518</ele>
        <time>2013-07-10T08:51:03Z</time>
      </trkpt>
      <trkpt lat="46.24152" lon="4.43262">
        <ele>518</ele>
        <time>2013-07-10T08:51:04Z</time>
      </trkpt>
      <trkpt lat="46.24152" lon="4.43263">
        <ele>518.1</ele>
        <time>2013-07-10T08:51:05Z</time>
      </trkpt>
      <trkpt lat="46.24151" lon="4.43265">
        <ele>518.1</ele>
        <time>2013-07-10T08:51:06Z</time>
      </trkpt>
      <trkpt lat="46.2415" lon="4.43266">
        <ele>518.2</ele>
        <time>2013-07-10T08:51:07Z</time>
      </trkpt>
      <trkpt lat="46.24149" lon="4.43268">
        <ele>518.3</ele>
        <time>2013-07-10T08:51:08Z</time>
      </trkpt>
      <trkpt lat="46.24149" lon="4.43269">
        <ele>518.3</ele>
        <time>2013-07-10T08:51:09Z</time>
      </trkpt>
      <trkpt lat="46.24148" lon="4.43271">
        <ele>518.4</ele>
        <time>2013-07-10T08:51:10Z</time>
      </trkpt>
      <trkpt lat="46.24147" lon="4.43273">
        <ele>518.4</ele>
        <time>2013-07-10T08:51:11Z</time>
      </trkpt>
      <trkpt lat="46.24146" lon="4.43274">
        <ele>518.5</ele>
        <time>2013-07-10T08:51:12Z</time>
      </trkpt>
      <trkpt lat="46.24146" lon="4.43276">
        <ele>518.6</ele>
        <time>2013-07-10T08:51:13Z</time>
      </trkpt>
      <trkpt lat="46.24145" lon="4.43278">
        <ele>518.6</ele>
        <time>2013-07-10T08:51:14Z</time>
      </trkpt>
      <trkpt lat="46.24145" lon="4.4328">
        <ele>518.8</ele>
        <time>2013-07-10T08:51:15Z</time>
      </trkpt>
      <trkpt lat="46.24144" lon="4.43281">
        <ele>519</ele>
        <time>2013-07-10T08:51:16Z</time>
      </trkpt>
      <trkpt lat="46.24143" lon="4.43283">
        <ele>519.1</ele>
        <time>2013-07-10T08:51:17Z</time>
      </trkpt>
      <trkpt lat="46.24143" lon="4.43285">
        <ele>519.2</ele>
        <time>2013-07-10T08:51:18Z</time>
      </trkpt>
      <trkpt lat="46.24142" lon="4.43287">
        <ele>519.4</ele>
        <time>2013-07-10T08:51:19Z</time>
      </trkpt>
      <trkpt lat="46.24142" lon="4.43289">
        <ele>519.5</ele>
        <time>2013-07-10T08:51:20Z</time>
      </trkpt>
      <trkpt lat="46.24141" lon="4.4329">
        <ele>519.6</ele>
        <time>2013-07-10T08:51:21Z</time>
      </trkpt>
      <trkpt lat="46.2414" lon="4.43292">
        <ele>519.8</ele>
        <time>2013-07-10T08:51:22Z</time>
      </trkpt>
      <trkpt lat="46.2414" lon="4.43294">
        <ele>519.8</ele>
        <time>2013-07-10T08:51:23Z</time>
      </trkpt>
      <trkpt lat="46.24139" lon="4.43296">
        <ele>520</ele>
        <time>2013-07-10T08:51:24Z</time>
      </trkpt>
      <trkpt lat="46.24139" lon="4.43297">
        <ele>520</ele>
        <time>2013-07-10T08:51:25Z</time>
      </trkpt>
      <trkpt lat="46.24138" lon="4.43299">
        <ele>520.1</ele>
        <time>2013-07-10T08:51:26Z</time>
      </trkpt>
      <trkpt lat="46.24137" lon="4.43301">
        <ele>520.2</ele>
        <time>2013-07-10T08:51:27Z</time>
      </trkpt>
      <trkpt lat="46.24137" lon="4.43303">
        <ele>520.3</ele>
        <time>2013-07-10T08:51:28Z</time>
      </trkpt>
      <trkpt lat="46.24136" lon="4.43305">
        <ele>520.4</ele>
        <time>2013-07-10T08:51:29Z</time>
      </trkpt>
      <trkpt lat="46.24136" lon="4.43307">
        <ele>520.5</ele>
        <time>2013-07-10T08:51:30Z</time>
      </trkpt>
      <trkpt lat="46.24135" lon="4.43309">
        <ele>520.5</ele>
        <time>2013-07-10T08:51:31Z</time>
      </trkpt>
      <trkpt lat="46.24135" lon="4.4331">
        <ele>520.6</ele>
        <time>2013-07-10T08:51:32Z</time>
      </trkpt>
      <trkpt lat="46.24134" lon="4.43312">
        <ele>520.7</ele>
        <time>2013-07-10T08:51:33Z</time>
      </trkpt>
      <trkpt lat="46.24134" lon="4.43314">
        <ele>520.8</ele>
        <time>2013-07-10T08:51:34Z</time>
      </trkpt>
      <trkpt lat="46.24133" lon="4.43317">
        <ele>520.9</ele>
        <time>2013-07-10T08:51:35Z</time>
      </trkpt>
      <trkpt lat="46.24133" lon="4.4332">
        <ele>521</ele>
        <time>2013-07-10T08:51:36Z</time>
      </trkpt>
      <trkpt lat="46.24132" lon="4.43323">
        <ele>521.2</ele>
        <time>2013-07-10T08:51:37Z</time>
      </trkpt>
      <trkpt lat="46.24132" lon="4.43326">
        <ele>521.3</ele>
        <time>2013-07-10T08:51:38Z</time>
      </trkpt>
      <trkpt lat="46.24131" lon="4.43328">
        <ele>521.4</ele>
        <time>2013-07-10T08:51:39Z</time>
      </trkpt>
      <trkpt lat="46.2413" lon="4.43331">
        <ele>521.5</ele>
        <time>2013-07-10T08:51:40Z</time>
      </trkpt>
      <trkpt lat="46.2413" lon="4.43334">
        <ele>521.7</ele>
        <time>2013-07-10T08:51:41Z</time>
      </trkpt>
      <trkpt lat="46.2413" lon="4.43337">
        <ele>521.8</ele>
        <time>2013-07-10T08:51:42Z</time>
      </trkpt>
      <trkpt lat="46.24129" lon="4.4334">
        <ele>522</ele>
        <time>2013-07-10T08:51:43Z</time>
      </trkpt>
      <trkpt lat="46.24129" lon="4.43343">
        <ele>522.1</ele>
        <time>2013-07-10T08:51:44Z</time>
      </trkpt>
      <trkpt lat="46.24129" lon="4.43347">
        <ele>522.2</ele>
        <time>2013-07-10T08:51:45Z</time>
      </trkpt>
      <trkpt lat="46.24129" lon="4.4335">
        <ele>522.3</ele>
        <time>2013-07-10T08:51:46Z</time>
      </trkpt>
      <trkpt lat="46.24128" lon="4.43353">
        <ele>522.4</ele>
        <time>2013-07-10T08:51:47Z</time>
      </trkpt>
      <trkpt lat="46.24128" lon="4.43356">
        <ele>522.5</ele>
        <time>2013-07-10T08:51:48Z</time>
      </trkpt>
      <trkpt lat="46.24128" lon="4.4336">
        <ele>522.7</ele>
        <time>2013-07-10T08:51:49Z</time>
      </trkpt>
      <trkpt lat="46.24128" lon="4.43363">
        <ele>522.9</ele>
        <time>2013-07-10T08:51:50Z</time>
      </trkpt>
      <trkpt lat="46.24127" lon="4.43367">
        <ele>523</ele>
        <time>2013-07-10T08:51:51Z</time>
      </trkpt>
      <trkpt lat="46.24127" lon="4.4337">
        <ele>523.1</ele>
        <time>2013-07-10T08:51:52Z</time>
      </trkpt>
      <trkpt lat="46.24127" lon="4.43373">
        <ele>523.2</ele>
        <time>2013-07-10T08:51:53Z</time>
      </trkpt>
      <trkpt lat="46.24127" lon="4.43377">
        <ele>523.4</ele>
        <time>2013-07-10T08:51:54Z</time>
      </trkpt>
      <trkpt lat="46.24127" lon="4.4338">
        <ele>523.5</ele>
        <time>2013-07-10T08:51:55Z</time>
      </trkpt>
      <trkpt lat="46.24127" lon="4.43384">
        <ele>523.7</ele>
        <time>2013-07-10T08:51:56Z</time>
      </trkpt>
      <trkpt lat="46.24127" lon="4.43387">
        <ele>523.8</ele>
        <time>2013-07-10T08:51:57Z</time>
      </trkpt>
      <trkpt lat="46.24127" lon="4.4339">
        <ele>523.9</ele>
        <time>2013-07-10T08:51:58Z</time>
      </trkpt>
      <trkpt lat="46.24127" lon="4.43393">
        <ele>524.1</ele>
        <time>2013-07-10T08:51:59Z</time>
      </trkpt>
      <trkpt lat="46.24127" lon="4.43396">
        <ele>524.2</ele>
        <time>2013-07-10T08:52:00Z</time>
      </trkpt>
      <trkpt lat="46.24127" lon="4.434">
        <ele>524.3</ele>
        <time>2013-07-10T08:52:01Z</time>
      </trkpt>
      <trkpt lat="46.24127" lon="4.43403">
        <ele>524.4</ele>
        <time>2013-07-10T08:52:02Z</time>
      </trkpt>
      <trkpt lat="46.24128" lon="4.43406">
        <ele>524.6</ele>
        <time>2013-07-10T08:52:03Z</time>
      </trkpt>
      <trkpt lat="46.24128" lon="4.4341">
        <ele>524.7</ele>
        <time>2013-07-10T08:52:04Z</time>
      </trkpt>
      <trkpt lat="46.24128" lon="4.43413">
        <ele>524.9</ele>
        <time>2013-07-10T08:52:05Z</time>
      </trkpt>
      <trkpt lat="46.24128" lon="4.43416">
        <ele>525</ele>
        <time>2013-07-10T08:52:06Z</time>
      </trkpt>
      <trkpt lat="46.24128" lon="4.43419">
        <ele>525.2</ele>
        <time>2013-07-10T08:52:07Z</time>
      </trkpt>
      <trkpt lat="46.24129" lon="4.43422">
        <ele>525.4</ele>
        <time>2013-07-10T08:52:08Z</time>
      </trkpt>
      <trkpt lat="46.24129" lon="4.43425">
        <ele>525.6</ele>
        <time>2013-07-10T08:52:09Z</time>
      </trkpt>
      <trkpt lat="46.2413" lon="4.43428">
        <ele>525.8</ele>
        <time>2013-07-10T08:52:10Z</time>
      </trkpt>
      <trkpt lat="46.2413" lon="4.43432">
        <ele>525.9</ele>
        <time>2013-07-10T08:52:11Z</time>
      </trkpt>
      <trkpt lat="46.2413" lon="4.43434">
        <ele>526</ele>
        <time>2013-07-10T08:52:12Z</time>
      </trkpt>
      <trkpt lat="46.24131" lon="4.43437">
        <ele>526.2</ele>
        <time>2013-07-10T08:52:13Z</time>
      </trkpt>
      <trkpt lat="46.24131" lon="4.4344">
        <ele>526.3</ele>
        <time>2013-07-10T08:52:14Z</time>
      </trkpt>
      <trkpt lat="46.24131" lon="4.43443">
        <ele>526.4</ele>
        <time>2013-07-10T08:52:15Z</time>
      </trkpt>
      <trkpt lat="46.24132" lon="4.43445">
        <ele>526.5</ele>
        <time>2013-07-10T08:52:16Z</time>
      </trkpt>
      <trkpt lat="46.24132" lon="4.43448">
        <ele>526.6</ele>
        <time>2013-07-10T08:52:17Z</time>
      </trkpt>
      <trkpt lat="46.24133" lon="4.43451">
        <ele>526.8</ele>
        <time>2013-07-10T08:52:18Z</time>
      </trkpt>
      <trkpt lat="46.24133" lon="4.43454">
        <ele>526.9</ele>
        <time>2013-07-10T08:52:19Z</time>
      </trkpt>
      <trkpt lat="46.24134" lon="4.43457">
        <ele>527.1</ele>
        <time>2013-07-10T08:52:20Z</time>
      </trkpt>
      <trkpt lat="46.24135" lon="4.43459">
        <ele>527.2</ele>
        <time>2013-07-10T08:52:21Z</time>
      </trkpt>
      <trkpt lat="46.24136" lon="4.43462">
        <ele>527.4</ele>
        <time>2013-07-10T08:52:22Z</time>
      </trkpt>
      <trkpt lat="46.24136" lon="4.43465">
        <ele>527.5</ele>
        <time>2013-07-10T08:52:23Z</time>
      </trkpt>
      <trkpt lat="46.24137" lon="4.43467">
        <ele>527.7</ele>
        <time>2013-07-10T08:52:24Z</time>
      </trkpt>
      <trkpt lat="46.24138" lon="4.4347">
        <ele>527.8</ele>
        <time>2013-07-10T08:52:25Z</time>
      </trkpt>
      <trkpt lat="46.24138" lon="4.43473">
        <ele>528</ele>
        <time>2013-07-10T08:52:26Z</time>
      </trkpt>
      <trkpt lat="46.24139" lon="4.43476">
        <ele>528.1</ele>
        <time>2013-07-10T08:52:27Z</time>
      </trkpt>
      <trkpt lat="46.24139" lon="4.43479">
        <ele>528.3</ele>
        <time>2013-07-10T08:52:28Z</time>
      </trkpt>
      <trkpt lat="46.2414" lon="4.43482">
        <ele>528.5</ele>
        <time>2013-07-10T08:52:29Z</time>
      </trkpt>
      <trkpt lat="46.24141" lon="4.43485">
        <ele>528.8</ele>
        <time>2013-07-10T08:52:30Z</time>
      </trkpt>
      <trkpt lat="46.24141" lon="4.43487">
        <ele>529</ele>
        <time>2013-07-10T08:52:31Z</time>
      </trkpt>
      <trkpt lat="46.24142" lon="4.43489">
        <ele>529.2</ele>
        <time>2013-07-10T08:52:32Z</time>
      </trkpt>
      <trkpt lat="46.24142" lon="4.43492">
        <ele>529.4</ele>
        <time>2013-07-10T08:52:33Z</time>
      </trkpt>
      <trkpt lat="46.24143" lon="4.43495">
        <ele>529.6</ele>
        <time>2013-07-10T08:52:34Z</time>
      </trkpt>
      <trkpt lat="46.24143" lon="4.43498">
        <ele>529.8</ele>
        <time>2013-07-10T08:52:35Z</time>
      </trkpt>
      <trkpt lat="46.24143" lon="4.43501">
        <ele>530</ele>
        <time>2013-07-10T08:52:36Z</time>
      </trkpt>
      <trkpt lat="46.24144" lon="4.43503">
        <ele>530.2</ele>
        <time>2013-07-10T08:52:37Z</time>
      </trkpt>
      <trkpt lat="46.24143" lon="4.43506">
        <ele>530.3</ele>
        <time>2013-07-10T08:52:38Z</time>
      </trkpt>
      <trkpt lat="46.24143" lon="4.43509">
        <ele>530.5</ele>
        <time>2013-07-10T08:52:39Z</time>
      </trkpt>
      <trkpt lat="46.24143" lon="4.43512">
        <ele>530.7</ele>
        <time>2013-07-10T08:52:40Z</time>
      </trkpt>
      <trkpt lat="46.24144" lon="4.43515">
        <ele>530.9</ele>
        <time>2013-07-10T08:52:41Z</time>
      </trkpt>
      <trkpt lat="46.24144" lon="4.43518">
        <ele>531.1</ele>
        <time>2013-07-10T08:52:42Z</time>
      </trkpt>
      <trkpt lat="46.24143" lon="4.43521">
        <ele>531.2</ele>
        <time>2013-07-10T08:52:43Z</time>
      </trkpt>
      <trkpt lat="46.24143" lon="4.43524">
        <ele>531.3</ele>
        <time>2013-07-10T08:52:44Z</time>
      </trkpt>
      <trkpt lat="46.24143" lon="4.43527">
        <ele>531.5</ele>
        <time>2013-07-10T08:52:45Z</time>
      </trkpt>
      <trkpt lat="46.24143" lon="4.4353">
        <ele>531.7</ele>
        <time>2013-07-10T08:52:46Z</time>
      </trkpt>
      <trkpt lat="46.24143" lon="4.43533">
        <ele>531.9</ele>
        <time>2013-07-10T08:52:47Z</time>
      </trkpt>
      <trkpt lat="46.24142" lon="4.43536">
        <ele>532</ele>
        <time>2013-07-10T08:52:48Z</time>
      </trkpt>
      <trkpt lat="46.24142" lon="4.43539">
        <ele>532.2</ele>
        <time>2013-07-10T08:52:49Z</time>
      </trkpt>
      <trkpt lat="46.24141" lon="4.43542">
        <ele>532.3</ele>
        <time>2013-07-10T08:52:50Z</time>
      </trkpt>
      <trkpt lat="46.2414" lon="4.43545">
        <ele>532.4</ele>
        <time>2013-07-10T08:52:51Z</time>
      </trkpt>
      <trkpt lat="46.2414" lon="4.43548">
        <ele>532.5</ele>
        <time>2013-07-10T08:52:52Z</time>
      </trkpt>
      <trkpt lat="46.24139" lon="4.43551">
        <ele>532.7</ele>
        <time>2013-07-10T08:52:53Z</time>
      </trkpt>
      <trkpt lat="46.24139" lon="4.43554">
        <ele>532.8</ele>
        <time>2013-07-10T08:52:54Z</time>
      </trkpt>
      <trkpt lat="46.24138" lon="4.43557">
        <ele>533.1</ele>
        <time>2013-07-10T08:52:55Z</time>
      </trkpt>
      <trkpt lat="46.24138" lon="4.43561">
        <ele>533.2</ele>
        <time>2013-07-10T08:52:56Z</time>
      </trkpt>
      <trkpt lat="46.24138" lon="4.43564">
        <ele>533.4</ele>
        <time>2013-07-10T08:52:57Z</time>
      </trkpt>
      <trkpt lat="46.24137" lon="4.43566">
        <ele>533.6</ele>
        <time>2013-07-10T08:52:58Z</time>
      </trkpt>
      <trkpt lat="46.24137" lon="4.43569">
        <ele>533.7</ele>
        <time>2013-07-10T08:52:59Z</time>
      </trkpt>
      <trkpt lat="46.24136" lon="4.43572">
        <ele>533.8</ele>
        <time>2013-07-10T08:53:00Z</time>
      </trkpt>
      <trkpt lat="46.24135" lon="4.43574">
        <ele>533.9</ele>
        <time>2013-07-10T08:53:01Z</time>
      </trkpt>
      <trkpt lat="46.24134" lon="4.43576">
        <ele>533.9</ele>
        <time>2013-07-10T08:53:02Z</time>
      </trkpt>
      <trkpt lat="46.24133" lon="4.43578">
        <ele>534</ele>
        <time>2013-07-10T08:53:03Z</time>
      </trkpt>
      <trkpt lat="46.24133" lon="4.4358">
        <ele>534.1</ele>
        <time>2013-07-10T08:53:04Z</time>
      </trkpt>
      <trkpt lat="46.24132" lon="4.43582">
        <ele>534.2</ele>
        <time>2013-07-10T08:53:05Z</time>
      </trkpt>
      <trkpt lat="46.24131" lon="4.43584">
        <ele>534.2</ele>
        <time>2013-07-10T08:53:06Z</time>
      </trkpt>
      <trkpt lat="46.24131" lon="4.43586">
        <ele>534.4</ele>
        <time>2013-07-10T08:53:07Z</time>
      </trkpt>
      <trkpt lat="46.2413" lon="4.43587">
        <ele>534.6</ele>
        <time>2013-07-10T08:53:08Z</time>
      </trkpt>
      <trkpt lat="46.24129" lon="4.43589">
        <ele>534.7</ele>
        <time>2013-07-10T08:53:09Z</time>
      </trkpt>
      <trkpt lat="46.24128" lon="4.43591">
        <ele>534.9</ele>
        <time>2013-07-10T08:53:10Z</time>
      </trkpt>
      <trkpt lat="46.24127" lon="4.43592">
        <ele>534.9</ele>
        <time>2013-07-10T08:53:11Z</time>
      </trkpt>
      <trkpt lat="46.24126" lon="4.43593">
        <ele>535</ele>
        <time>2013-07-10T08:53:12Z</time>
      </trkpt>
      <trkpt lat="46.24125" lon="4.43595">
        <ele>535.1</ele>
        <time>2013-07-10T08:53:13Z</time>
      </trkpt>
      <trkpt lat="46.24124" lon="4.43596">
        <ele>535.2</ele>
        <time>2013-07-10T08:53:14Z</time>
      </trkpt>
      <trkpt lat="46.24178" lon="4.43504">
        <ele>535.6</ele>
        <time>2013-07-10T08:53:15Z</time>
      </trkpt>
      <trkpt lat="46.24173" lon="4.43511">
        <ele>535.5</ele>
        <time>2013-07-10T08:53:16Z</time>
      </trkpt>
      <trkpt lat="46.24168" lon="4.43517">
        <ele>535.2</ele>
        <time>2013-07-10T08:53:17Z</time>
      </trkpt>
      <trkpt lat="46.24164" lon="4.43522">
        <ele>534.6</ele>
        <time>2013-07-10T08:53:18Z</time>
      </trkpt>
      <trkpt lat="46.2416" lon="4.43527">
        <ele>534.1</ele>
        <time>2013-07-10T08:53:19Z</time>
      </trkpt>
      <trkpt lat="46.24157" lon="4.43532">
        <ele>533.9</ele>
        <time>2013-07-10T08:53:20Z</time>
      </trkpt>
      <trkpt lat="46.24154" lon="4.43536">
        <ele>533.8</ele>
        <time>2013-07-10T08:53:21Z</time>
      </trkpt>
      <trkpt lat="46.24152" lon="4.43539">
        <ele>533.6</ele>
        <time>2013-07-10T08:53:22Z</time>
      </trkpt>
      <trkpt lat="46.24149" lon="4.43543">
        <ele>533.6</ele>
        <time>2013-07-10T08:53:23Z</time>
      </trkpt>
      <trkpt lat="46.24147" lon="4.43546">
        <ele>533.5</ele>
        <time>2013-07-10T08:53:24Z</time>
      </trkpt>
      <trkpt lat="46.24146" lon="4.43548">
        <ele>533.4</ele>
        <time>2013-07-10T08:53:25Z</time>
      </trkpt>
      <trkpt lat="46.24144" lon="4.4355">
        <ele>533.4</ele>
        <time>2013-07-10T08:53:26Z</time>
      </trkpt>
      <trkpt lat="46.24143" lon="4.43552">
        <ele>533.3</ele>
        <time>2013-07-10T08:53:27Z</time>
      </trkpt>
      <trkpt lat="46.24141" lon="4.43554">
        <ele>533.2</ele>
        <time>2013-07-10T08:53:28Z</time>
      </trkpt>
      <trkpt lat="46.2414" lon="4.43556">
        <ele>533.2</ele>
        <time>2013-07-10T08:53:29Z</time>
      </trkpt>
      <trkpt lat="46.2414" lon="4.43557">
        <ele>533.2</ele>
        <time>2013-07-10T08:53:30Z</time>
      </trkpt>
      <trkpt lat="46.24139" lon="4.43557">
        <ele>533.2</ele>
        <time>2013-07-10T08:53:31Z</time>
      </trkpt>
      <trkpt lat="46.24139" lon="4.43558">
        <ele>533.2</ele>
        <time>2013-07-10T08:53:32Z</time>
      </trkpt>
      <trkpt lat="46.24139" lon="4.43558">
        <ele>533.2</ele>
        <time>2013-07-10T08:53:33Z</time>
      </trkpt>
      <trkpt lat="46.24139" lon="4.43559">
        <ele>533.3</ele>
        <time>2013-07-10T08:53:34Z</time>
      </trkpt>
      <trkpt lat="46.24139" lon="4.43558">
        <ele>533.2</ele>
        <time>2013-07-10T08:53:35Z</time>
      </trkpt>
      <trkpt lat="46.24139" lon="4.43558">
        <ele>533.2</ele>
        <time>2013-07-10T08:53:36Z</time>
      </trkpt>
      <trkpt lat="46.24139" lon="4.43556">
        <ele>533.1</ele>
        <time>2013-07-10T08:53:37Z</time>
      </trkpt>
      <trkpt lat="46.24139" lon="4.43555">
        <ele>533</ele>
        <time>2013-07-10T08:53:38Z</time>
      </trkpt>
      <trkpt lat="46.2414" lon="4.43553">
        <ele>533</ele>
        <time>2013-07-10T08:53:39Z</time>
      </trkpt>
      <trkpt lat="46.2414" lon="4.43551">
        <ele>532.9</ele>
        <time>2013-07-10T08:53:40Z</time>
      </trkpt>
      <trkpt lat="46.24141" lon="4.43549">
        <ele>532.8</ele>
        <time>2013-07-10T08:53:41Z</time>
      </trkpt>
      <trkpt lat="46.24141" lon="4.43547">
        <ele>532.7</ele>
        <time>2013-07-10T08:53:42Z</time>
      </trkpt>
      <trkpt lat="46.24142" lon="4.43545">
        <ele>532.7</ele>
        <time>2013-07-10T08:53:43Z</time>
      </trkpt>
      <trkpt lat="46.24142" lon="4.43543">
        <ele>532.6</ele>
        <time>2013-07-10T08:53:44Z</time>
      </trkpt>
      <trkpt lat="46.24143" lon="4.43541">
        <ele>532.5</ele>
        <time>2013-07-10T08:53:45Z</time>
      </trkpt>
      <trkpt lat="46.24143" lon="4.43539">
        <ele>532.4</ele>
        <time>2013-07-10T08:53:46Z</time>
      </trkpt>
      <trkpt lat="46.24144" lon="4.43537">
        <ele>532.3</ele>
        <time>2013-07-10T08:53:47Z</time>
      </trkpt>
      <trkpt lat="46.24144" lon="4.43537">
        <ele>532.3</ele>
        <time>2013-07-10T08:53:48Z</time>
      </trkpt>
      <trkpt lat="46.24144" lon="4.43532">
        <ele>532</ele>
        <time>2013-07-10T08:53:49Z</time>
      </trkpt>
      <trkpt lat="46.24144" lon="4.43529">
        <ele>531.9</ele>
        <time>2013-07-10T08:53:50Z</time>
      </trkpt>
      <trkpt lat="46.24145" lon="4.43527">
        <ele>531.7</ele>
        <time>2013-07-10T08:53:51Z</time>
      </trkpt>
      <trkpt lat="46.24144" lon="4.43524">
        <ele>531.6</ele>
        <time>2013-07-10T08:53:52Z</time>
      </trkpt>
      <trkpt lat="46.24144" lon="4.43522">
        <ele>531.4</ele>
        <time>2013-07-10T08:53:53Z</time>
      </trkpt>
      <trkpt lat="46.24144" lon="4.43519">
        <ele>531.2</ele>
        <time>2013-07-10T08:53:54Z</time>
      </trkpt>
      <trkpt lat="46.24144" lon="4.43516">
        <ele>531</ele>
        <time>2013-07-10T08:53:55Z</time>
      </trkpt>
      <trkpt lat="46.24144" lon="4.43513">
        <ele>530.8</ele>
        <time>2013-07-10T08:53:56Z</time>
      </trkpt>
      <trkpt lat="46.24144" lon="4.4351">
        <ele>530.7</ele>
        <time>2013-07-10T08:53:57Z</time>
      </trkpt>
      <trkpt lat="46.24144" lon="4.43508">
        <ele>530.5</ele>
        <time>2013-07-10T08:53:58Z</time>
      </trkpt>
      <trkpt lat="46.24144" lon="4.43505">
        <ele>530.3</ele>
        <time>2013-07-10T08:53:59Z</time>
      </trkpt>
      <trkpt lat="46.24143" lon="4.43502">
        <ele>530.1</ele>
        <time>2013-07-10T08:54:00Z</time>
      </trkpt>
      <trkpt lat="46.24143" lon="4.43499">
        <ele>529.9</ele>
        <time>2013-07-10T08:54:01Z</time>
      </trkpt>
      <trkpt lat="46.24143" lon="4.43496">
        <ele>529.8</ele>
        <time>2013-07-10T08:54:02Z</time>
      </trkpt>
      <trkpt lat="46.24143" lon="4.43493">
        <ele>529.7</ele>
        <time>2013-07-10T08:54:03Z</time>
      </trkpt>
      <trkpt lat="46.24143" lon="4.43491">
        <ele>529.6</ele>
        <time>2013-07-10T08:54:04Z</time>
      </trkpt>
      <trkpt lat="46.24143" lon="4.43488">
        <ele>529.4</ele>
        <time>2013-07-10T08:54:05Z</time>
      </trkpt>
      <trkpt lat="46.24142" lon="4.43485">
        <ele>529.2</ele>
        <time>2013-07-10T08:54:06Z</time>
      </trkpt>
      <trkpt lat="46.24142" lon="4.43482">
        <ele>529</ele>
        <time>2013-07-10T08:54:07Z</time>
      </trkpt>
      <trkpt lat="46.24141" lon="4.4348">
        <ele>528.8</ele>
        <time>2013-07-10T08:54:08Z</time>
      </trkpt>
      <trkpt lat="46.2414" lon="4.43477">
        <ele>528.5</ele>
        <time>2013-07-10T08:54:09Z</time>
      </trkpt>
      <trkpt lat="46.2414" lon="4.43474">
        <ele>528.2</ele>
        <time>2013-07-10T08:54:10Z</time>
      </trkpt>
      <trkpt lat="46.24139" lon="4.43471">
        <ele>528</ele>
        <time>2013-07-10T08:54:11Z</time>
      </trkpt>
      <trkpt lat="46.24139" lon="4.43468">
        <ele>527.8</ele>
        <time>2013-07-10T08:54:12Z</time>
      </trkpt>
      <trkpt lat="46.24138" lon="4.43465">
        <ele>527.7</ele>
        <time>2013-07-10T08:54:13Z</time>
      </trkpt>
      <trkpt lat="46.24138" lon="4.43462">
        <ele>527.6</ele>
        <time>2013-07-10T08:54:14Z</time>
      </trkpt>
      <trkpt lat="46.24137" lon="4.4346">
        <ele>527.4</ele>
        <time>2013-07-10T08:54:15Z</time>
      </trkpt>
      <trkpt lat="46.24137" lon="4.43458">
        <ele>527.3</ele>
        <time>2013-07-10T08:54:16Z</time>
      </trkpt>
      <trkpt lat="46.24137" lon="4.43457">
        <ele>527.3</ele>
        <time>2013-07-10T08:54:17Z</time>
      </trkpt>
      <trkpt lat="46.24137" lon="4.43457">
        <ele>527.3</ele>
        <time>2013-07-10T08:54:18Z</time>
      </trkpt>
      <trkpt lat="46.24137" lon="4.43457">
        <ele>527.3</ele>
        <time>2013-07-10T08:54:19Z</time>
      </trkpt>
      <trkpt lat="46.24136" lon="4.43456">
        <ele>527.2</ele>
        <time>2013-07-10T08:54:20Z</time>
      </trkpt>
      <trkpt lat="46.24135" lon="4.43454">
        <ele>527.1</ele>
        <time>2013-07-10T08:54:21Z</time>
      </trkpt>
      <trkpt lat="46.24134" lon="4.43451">
        <ele>526.9</ele>
        <time>2013-07-10T08:54:22Z</time>
      </trkpt>
      <trkpt lat="46.24134" lon="4.43448">
        <ele>526.8</ele>
        <time>2013-07-10T08:54:23Z</time>
      </trkpt>
      <trkpt lat="46.24133" lon="4.43445">
        <ele>526.6</ele>
        <time>2013-07-10T08:54:24Z</time>
      </trkpt>
      <trkpt lat="46.24133" lon="4.43442">
        <ele>526.5</ele>
        <time>2013-07-10T08:54:25Z</time>
      </trkpt>
      <trkpt lat="46.24131" lon="4.43439">
        <ele>526.3</ele>
        <time>2013-07-10T08:54:26Z</time>
      </trkpt>
      <trkpt lat="46.2413" lon="4.43436">
        <ele>526.1</ele>
        <time>2013-07-10T08:54:27Z</time>
      </trkpt>
      <trkpt lat="46.24129" lon="4.43434">
        <ele>525.8</ele>
        <time>2013-07-10T08:54:28Z</time>
      </trkpt>
      <trkpt lat="46.24128" lon="4.43431">
        <ele>525.6</ele>
        <time>2013-07-10T08:54:29Z</time>
      </trkpt>
      <trkpt lat="46.24127" lon="4.43428">
        <ele>525.4</ele>
        <time>2013-07-10T08:54:30Z</time>
      </trkpt>
      <trkpt lat="46.24127" lon="4.43425">
        <ele>525.2</ele>
        <time>2013-07-10T08:54:31Z</time>
      </trkpt>
      <trkpt lat="46.24126" lon="4.43422">
        <ele>524.9</ele>
        <time>2013-07-10T08:54:32Z</time>
      </trkpt>
      <trkpt lat="46.24126" lon="4.43418">
        <ele>524.7</ele>
        <time>2013-07-10T08:54:33Z</time>
      </trkpt>
      <trkpt lat="46.24125" lon="4.43415">
        <ele>524.5</ele>
        <time>2013-07-10T08:54:34Z</time>
      </trkpt>
      <trkpt lat="46.24125" lon="4.43411">
        <ele>524.3</ele>
        <time>2013-07-10T08:54:35Z</time>
      </trkpt>
      <trkpt lat="46.24125" lon="4.43408">
        <ele>524.1</ele>
        <time>2013-07-10T08:54:36Z</time>
      </trkpt>
      <trkpt lat="46.24124" lon="4.43404">
        <ele>523.9</ele>
        <time>2013-07-10T08:54:37Z</time>
      </trkpt>
      <trkpt lat="46.24124" lon="4.43401">
        <ele>523.8</ele>
        <time>2013-07-10T08:54:38Z</time>
      </trkpt>
      <trkpt lat="46.24124" lon="4.43397">
        <ele>523.6</ele>
        <time>2013-07-10T08:54:39Z</time>
      </trkpt>
      <trkpt lat="46.24123" lon="4.43393">
        <ele>523.3</ele>
        <time>2013-07-10T08:54:40Z</time>
      </trkpt>
      <trkpt lat="46.24123" lon="4.43389">
        <ele>523.1</ele>
        <time>2013-07-10T08:54:41Z</time>
      </trkpt>
      <trkpt lat="46.24122" lon="4.43386">
        <ele>522.9</ele>
        <time>2013-07-10T08:54:42Z</time>
      </trkpt>
      <trkpt lat="46.24123" lon="4.43383">
        <ele>522.9</ele>
        <time>2013-07-10T08:54:43Z</time>
      </trkpt>
      <trkpt lat="46.24122" lon="4.43379">
        <ele>522.7</ele>
        <time>2013-07-10T08:54:44Z</time>
      </trkpt>
      <trkpt lat="46.24122" lon="4.43376">
        <ele>522.6</ele>
        <time>2013-07-10T08:54:45Z</time>
      </trkpt>
      <trkpt lat="46.24123" lon="4.43372">
        <ele>522.6</ele>
        <time>2013-07-10T08:54:46Z</time>
      </trkpt>
      <trkpt lat="46.24123" lon="4.43369">
        <ele>522.5</ele>
        <time>2013-07-10T08:54:47Z</time>
      </trkpt>
      <trkpt lat="46.24123" lon="4.43365">
        <ele>522.4</ele>
        <time>2013-07-10T08:54:48Z</time>
      </trkpt>
      <trkpt lat="46.24123" lon="4.43361">
        <ele>522.3</ele>
        <time>2013-07-10T08:54:49Z</time>
      </trkpt>
      <trkpt lat="46.24123" lon="4.43358">
        <ele>522.1</ele>
        <time>2013-07-10T08:54:50Z</time>
      </trkpt>
      <trkpt lat="46.24124" lon="4.43354">
        <ele>522</ele>
        <time>2013-07-10T08:54:51Z</time>
      </trkpt>
      <trkpt lat="46.24124" lon="4.43351">
        <ele>521.8</ele>
        <time>2013-07-10T08:54:52Z</time>
      </trkpt>
      <trkpt lat="46.24124" lon="4.43347">
        <ele>521.7</ele>
        <time>2013-07-10T08:54:53Z</time>
      </trkpt>
      <trkpt lat="46.24125" lon="4.43344">
        <ele>521.5</ele>
        <time>2013-07-10T08:54:54Z</time>
      </trkpt>
      <trkpt lat="46.24125" lon="4.43341">
        <ele>521.4</ele>
        <time>2013-07-10T08:54:55Z</time>
      </trkpt>
      <trkpt lat="46.24125" lon="4.43338">
        <ele>521.2</ele>
        <time>2013-07-10T08:54:56Z</time>
      </trkpt>
      <trkpt lat="46.24126" lon="4.43334">
        <ele>521.1</ele>
        <time>2013-07-10T08:54:57Z</time>
      </trkpt>
      <trkpt lat="46.24126" lon="4.43331">
        <ele>520.9</ele>
        <time>2013-07-10T08:54:58Z</time>
      </trkpt>
      <trkpt lat="46.24126" lon="4.43327">
        <ele>520.6</ele>
        <time>2013-07-10T08:54:59Z</time>
      </trkpt>
      <trkpt lat="46.24127" lon="4.43324">
        <ele>520.4</ele>
        <time>2013-07-10T08:55:00Z</time>
      </trkpt>
      <trkpt lat="46.24127" lon="4.43321">
        <ele>520.2</ele>
        <time>2013-07-10T08:55:01Z</time>
      </trkpt>
      <trkpt lat="46.24128" lon="4.43318">
        <ele>520</ele>
        <time>2013-07-10T08:55:02Z</time>
      </trkpt>
      <trkpt lat="46.24128" lon="4.43315">
        <ele>519.8</ele>
        <time>2013-07-10T08:55:03Z</time>
      </trkpt>
      <trkpt lat="46.24129" lon="4.43311">
        <ele>519.6</ele>
        <time>2013-07-10T08:55:04Z</time>
      </trkpt>
      <trkpt lat="46.24129" lon="4.43308">
        <ele>519.4</ele>
        <time>2013-07-10T08:55:05Z</time>
      </trkpt>
      <trkpt lat="46.24129" lon="4.43305">
        <ele>519.2</ele>
        <time>2013-07-10T08:55:06Z</time>
      </trkpt>
      <trkpt lat="46.2413" lon="4.43302">
        <ele>519</ele>
        <time>2013-07-10T08:55:07Z</time>
      </trkpt>
      <trkpt lat="46.24131" lon="4.43299">
        <ele>518.9</ele>
        <time>2013-07-10T08:55:08Z</time>
      </trkpt>
      <trkpt lat="46.24132" lon="4.43296">
        <ele>518.8</ele>
        <time>2013-07-10T08:55:09Z</time>
      </trkpt>
      <trkpt lat="46.24133" lon="4.43293">
        <ele>518.6</ele>
        <time>2013-07-10T08:55:10Z</time>
      </trkpt>
      <trkpt lat="46.24134" lon="4.43291">
        <ele>518.5</ele>
        <time>2013-07-10T08:55:11Z</time>
      </trkpt>
      <trkpt lat="46.24134" lon="4.43288">
        <ele>518.3</ele>
        <time>2013-07-10T08:55:12Z</time>
      </trkpt>
      <trkpt lat="46.24135" lon="4.43284">
        <ele>518.1</ele>
        <time>2013-07-10T08:55:13Z</time>
      </trkpt>
      <trkpt lat="46.24135" lon="4.43281">
        <ele>517.8</ele>
        <time>2013-07-10T08:55:14Z</time>
      </trkpt>
      <trkpt lat="46.24136" lon="4.43278">
        <ele>517.5</ele>
        <time>2013-07-10T08:55:15Z</time>
      </trkpt>
      <trkpt lat="46.24137" lon="4.43275">
        <ele>517.5</ele>
        <time>2013-07-10T08:55:16Z</time>
      </trkpt>
      <trkpt lat="46.24138" lon="4.43273">
        <ele>517.4</ele>
        <time>2013-07-10T08:55:17Z</time>
      </trkpt>
      <trkpt lat="46.24139" lon="4.4327">
        <ele>517.4</ele>
        <time>2013-07-10T08:55:18Z</time>
      </trkpt>
      <trkpt lat="46.2414" lon="4.43267">
        <ele>517.3</ele>
        <time>2013-07-10T08:55:19Z</time>
      </trkpt>
      <trkpt lat="46.24141" lon="4.43265">
        <ele>517.3</ele>
        <time>2013-07-10T08:55:20Z</time>
      </trkpt>
      <trkpt lat="46.24143" lon="4.43262">
        <ele>517.1</ele>
        <time>2013-07-10T08:55:21Z</time>
      </trkpt>
      <trkpt lat="46.24144" lon="4.43259">
        <ele>517</ele>
        <time>2013-07-10T08:55:22Z</time>
      </trkpt>
      <trkpt lat="46.24146" lon="4.43256">
        <ele>517</ele>
        <time>2013-07-10T08:55:23Z</time>
      </trkpt>
      <trkpt lat="46.24147" lon="4.43253">
        <ele>516.8</ele>
        <time>2013-07-10T08:55:24Z</time>
      </trkpt>
      <trkpt lat="46.24149" lon="4.43251">
        <ele>516.8</ele>
        <time>2013-07-10T08:55:25Z</time>
      </trkpt>
      <trkpt lat="46.2415" lon="4.43249">
        <ele>516.7</ele>
        <time>2013-07-10T08:55:26Z</time>
      </trkpt>
      <trkpt lat="46.24152" lon="4.43246">
        <ele>516.6</ele>
        <time>2013-07-10T08:55:27Z</time>
      </trkpt>
      <trkpt lat="46.24153" lon="4.43244">
        <ele>516.6</ele>
        <time>2013-07-10T08:55:28Z</time>
      </trkpt>
      <trkpt lat="46.24154" lon="4.43241">
        <ele>516.5</ele>
        <time>2013-07-10T08:55:29Z</time>
      </trkpt>
      <trkpt lat="46.24156" lon="4.43239">
        <ele>516.4</ele>
        <time>2013-07-10T08:55:30Z</time>
      </trkpt>
      <trkpt lat="46.24157" lon="4.43237">
        <ele>516.4</ele>
        <time>2013-07-10T08:55:31Z</time>
      </trkpt>
      <trkpt lat="46.24159" lon="4.43235">
        <ele>516.4</ele>
        <time>2013-07-10T08:55:32Z</time>
      </trkpt>
      <trkpt lat="46.24161" lon="4.43233">
        <ele>516.4</ele>
        <time>2013-07-10T08:55:33Z</time>
      </trkpt>
      <trkpt lat="46.24163" lon="4.43231">
        <ele>516.4</ele>
        <time>2013-07-10T08:55:34Z</time>
      </trkpt>
      <trkpt lat="46.24165" lon="4.4323">
        <ele>516.4</ele>
        <time>2013-07-10T08:55:35Z</time>
      </trkpt>
      <trkpt lat="46.24166" lon="4.43228">
        <ele>516.4</ele>
        <time>2013-07-10T08:55:36Z</time>
      </trkpt>
      <trkpt lat="46.24168" lon="4.43226">
        <ele>516.4</ele>
        <time>2013-07-10T08:55:37Z</time>
      </trkpt>
      <trkpt lat="46.2417" lon="4.43225">
        <ele>516.3</ele>
        <time>2013-07-10T08:55:38Z</time>
      </trkpt>
      <trkpt lat="46.24171" lon="4.43223">
        <ele>516.2</ele>
        <time>2013-07-10T08:55:39Z</time>
      </trkpt>
      <trkpt lat="46.24173" lon="4.43221">
        <ele>516</ele>
        <time>2013-07-10T08:55:40Z</time>
      </trkpt>
      <trkpt lat="46.24174" lon="4.43219">
        <ele>515.7</ele>
        <time>2013-07-10T08:55:41Z</time>
      </trkpt>
      <trkpt lat="46.24176" lon="4.43217">
        <ele>515.4</ele>
        <time>2013-07-10T08:55:42Z</time>
      </trkpt>
      <trkpt lat="46.24177" lon="4.43215">
        <ele>515.2</ele>
        <time>2013-07-10T08:55:43Z</time>
      </trkpt>
      <trkpt lat="46.24179" lon="4.43213">
        <ele>514.9</ele>
        <time>2013-07-10T08:55:44Z</time>
      </trkpt>
      <trkpt lat="46.24181" lon="4.43211">
        <ele>514.7</ele>
        <time>2013-07-10T08:55:45Z</time>
      </trkpt>
      <trkpt lat="46.24183" lon="4.43209">
        <ele>514.5</ele>
        <time>2013-07-10T08:55:46Z</time>
      </trkpt>
      <trkpt lat="46.24184" lon="4.43207">
        <ele>514.3</ele>
        <time>2013-07-10T08:55:47Z</time>
      </trkpt>
      <trkpt lat="46.24184" lon="4.43207">
        <ele>514.3</ele>
        <time>2013-07-10T08:55:48Z</time>
      </trkpt>
      <trkpt lat="46.24188" lon="4.43204">
        <ele>514</ele>
        <time>2013-07-10T08:55:49Z</time>
      </trkpt>
      <trkpt lat="46.2419" lon="4.43202">
        <ele>513.8</ele>
        <time>2013-07-10T08:55:50Z</time>
      </trkpt>
      <trkpt lat="46.24192" lon="4.43201">
        <ele>513.7</ele>
        <time>2013-07-10T08:55:51Z</time>
      </trkpt>
      <trkpt lat="46.24193" lon="4.43199">
        <ele>513.5</ele>
        <time>2013-07-10T08:55:52Z</time>
      </trkpt>
      <trkpt lat="46.24196" lon="4.43197">
        <ele>513.4</ele>
        <time>2013-07-10T08:55:53Z</time>
      </trkpt>
      <trkpt lat="46.24198" lon="4.43194">
        <ele>513.1</ele>
        <time>2013-07-10T08:55:54Z</time>
      </trkpt>
      <trkpt lat="46.242" lon="4.43193">
        <ele>512.8</ele>
        <time>2013-07-10T08:55:55Z</time>
      </trkpt>
      <trkpt lat="46.24203" lon="4.43191">
        <ele>512.6</ele>
        <time>2013-07-10T08:55:56Z</time>
      </trkpt>
      <trkpt lat="46.24205" lon="4.43188">
        <ele>512.2</ele>
        <time>2013-07-10T08:55:57Z</time>
      </trkpt>
      <trkpt lat="46.24207" lon="4.43186">
        <ele>511.9</ele>
        <time>2013-07-10T08:55:58Z</time>
      </trkpt>
      <trkpt lat="46.24209" lon="4.43184">
        <ele>511.6</ele>
        <time>2013-07-10T08:55:59Z</time>
      </trkpt>
      <trkpt lat="46.24211" lon="4.43182">
        <ele>511.4</ele>
        <time>2013-07-10T08:56:00Z</time>
      </trkpt>
      <trkpt lat="46.24213" lon="4.4318">
        <ele>511.2</ele>
        <time>2013-07-10T08:56:01Z</time>
      </trkpt>
      <trkpt lat="46.24215" lon="4.43178">
        <ele>511.1</ele>
        <time>2013-07-10T08:56:02Z</time>
      </trkpt>
      <trkpt lat="46.24217" lon="4.43176">
        <ele>511</ele>
        <time>2013-07-10T08:56:03Z</time>
      </trkpt>
      <trkpt lat="46.2422" lon="4.43174">
        <ele>510.9</ele>
        <time>2013-07-10T08:56:04Z</time>
      </trkpt>
      <trkpt lat="46.24222" lon="4.43173">
        <ele>510.9</ele>
        <time>2013-07-10T08:56:05Z</time>
      </trkpt>
      <trkpt lat="46.24224" lon="4.43172">
        <ele>510.9</ele>
        <time>2013-07-10T08:56:06Z</time>
      </trkpt>
      <trkpt lat="46.24226" lon="4.4317">
        <ele>510.9</ele>
        <time>2013-07-10T08:56:07Z</time>
      </trkpt>
      <trkpt lat="46.24228" lon="4.43168">
        <ele>510.8</ele>
        <time>2013-07-10T08:56:08Z</time>
      </trkpt>
      <trkpt lat="46.2423" lon="4.43167">
        <ele>510.8</ele>
        <time>2013-07-10T08:56:09Z</time>
      </trkpt>
      <trkpt lat="46.24232" lon="4.43166">
        <ele>511</ele>
        <time>2013-07-10T08:56:10Z</time>
      </trkpt>
      <trkpt lat="46.24234" lon="4.43166">
        <ele>511.1</ele>
        <time>2013-07-10T08:56:11Z</time>
      </trkpt>
      <trkpt lat="46.24236" lon="4.43165">
        <ele>511.2</ele>
        <time>2013-07-10T08:56:12Z</time>
      </trkpt>
      <trkpt lat="46.24239" lon="4.43164">
        <ele>511.3</ele>
        <time>2013-07-10T08:56:13Z</time>
      </trkpt>
      <trkpt lat="46.24241" lon="4.43163">
        <ele>511.4</ele>
        <time>2013-07-10T08:56:14Z</time>
      </trkpt>
      <trkpt lat="46.24243" lon="4.43161">
        <ele>511.4</ele>
        <time>2013-07-10T08:56:15Z</time>
      </trkpt>
      <trkpt lat="46.24245" lon="4.4316">
        <ele>511.3</ele>
        <time>2013-07-10T08:56:16Z</time>
      </trkpt>
      <trkpt lat="46.24246" lon="4.43158">
        <ele>511.2</ele>
        <time>2013-07-10T08:56:17Z</time>
      </trkpt>
      <trkpt lat="46.24248" lon="4.43156">
        <ele>511.2</ele>
        <time>2013-07-10T08:56:18Z</time>
      </trkpt>
      <trkpt lat="46.2425" lon="4.43154">
        <ele>511.1</ele>
        <time>2013-07-10T08:56:19Z</time>
      </trkpt>
      <trkpt lat="46.24252" lon="4.43152">
        <ele>511.1</ele>
        <time>2013-07-10T08:56:20Z</time>
      </trkpt>
      <trkpt lat="46.24254" lon="4.4315">
        <ele>511</ele>
        <time>2013-07-10T08:56:21Z</time>
      </trkpt>
      <trkpt lat="46.24256" lon="4.43148">
        <ele>511</ele>
        <time>2013-07-10T08:56:22Z</time>
      </trkpt>
      <trkpt lat="46.24259" lon="4.43146">
        <ele>511</ele>
        <time>2013-07-10T08:56:23Z</time>
      </trkpt>
      <trkpt lat="46.24261" lon="4.43144">
        <ele>511</ele>
        <time>2013-07-10T08:56:24Z</time>
      </trkpt>
      <trkpt lat="46.24263" lon="4.43142">
        <ele>511.1</ele>
        <time>2013-07-10T08:56:25Z</time>
      </trkpt>
      <trkpt lat="46.24265" lon="4.4314">
        <ele>511.2</ele>
        <time>2013-07-10T08:56:26Z</time>
      </trkpt>
      <trkpt lat="46.24267" lon="4.43138">
        <ele>511.3</ele>
        <time>2013-07-10T08:56:27Z</time>
      </trkpt>
      <trkpt lat="46.24269" lon="4.43136">
        <ele>511.1</ele>
        <time>2013-07-10T08:56:28Z</time>
      </trkpt>
      <trkpt lat="46.24271" lon="4.43134">
        <ele>511</ele>
        <time>2013-07-10T08:56:29Z</time>
      </trkpt>
      <trkpt lat="46.24273" lon="4.43132">
        <ele>510.9</ele>
        <time>2013-07-10T08:56:30Z</time>
      </trkpt>
      <trkpt lat="46.24275" lon="4.4313">
        <ele>510.8</ele>
        <time>2013-07-10T08:56:31Z</time>
      </trkpt>
      <trkpt lat="46.24278" lon="4.43129">
        <ele>510.8</ele>
        <time>2013-07-10T08:56:32Z</time>
      </trkpt>
      <trkpt lat="46.2428" lon="4.43127">
        <ele>510.5</ele>
        <time>2013-07-10T08:56:33Z</time>
      </trkpt>
      <trkpt lat="46.24282" lon="4.43125">
        <ele>510.2</ele>
        <time>2013-07-10T08:56:34Z</time>
      </trkpt>
      <trkpt lat="46.24284" lon="4.43123">
        <ele>510</ele>
        <time>2013-07-10T08:56:35Z</time>
      </trkpt>
      <trkpt lat="46.24286" lon="4.43121">
        <ele>509.8</ele>
        <time>2013-07-10T08:56:36Z</time>
      </trkpt>
      <trkpt lat="46.24288" lon="4.43119">
        <ele>509.6</ele>
        <time>2013-07-10T08:56:37Z</time>
      </trkpt>
      <trkpt lat="46.24291" lon="4.43116">
        <ele>509.3</ele>
        <time>2013-07-10T08:56:38Z</time>
      </trkpt>
      <trkpt lat="46.24293" lon="4.43114">
        <ele>509.1</ele>
        <time>2013-07-10T08:56:39Z</time>
      </trkpt>
      <trkpt lat="46.24295" lon="4.43112">
        <ele>508.9</ele>
        <time>2013-07-10T08:56:40Z</time>
      </trkpt>
      <trkpt lat="46.24297" lon="4.43109">
        <ele>508.6</ele>
        <time>2013-07-10T08:56:41Z</time>
      </trkpt>
      <trkpt lat="46.24299" lon="4.43107">
        <ele>508.3</ele>
        <time>2013-07-10T08:56:42Z</time>
      </trkpt>
      <trkpt lat="46.24301" lon="4.43105">
        <ele>508</ele>
        <time>2013-07-10T08:56:43Z</time>
      </trkpt>
      <trkpt lat="46.24303" lon="4.43103">
        <ele>507.8</ele>
        <time>2013-07-10T08:56:44Z</time>
      </trkpt>
      <trkpt lat="46.24305" lon="4.431">
        <ele>507.5</ele>
        <time>2013-07-10T08:56:45Z</time>
      </trkpt>
      <trkpt lat="46.24307" lon="4.43098">
        <ele>507.2</ele>
        <time>2013-07-10T08:56:46Z</time>
      </trkpt>
      <trkpt lat="46.24309" lon="4.43096">
        <ele>507</ele>
        <time>2013-07-10T08:56:47Z</time>
      </trkpt>
      <trkpt lat="46.24311" lon="4.43093">
        <ele>506.7</ele>
        <time>2013-07-10T08:56:48Z</time>
      </trkpt>
      <trkpt lat="46.24313" lon="4.43091">
        <ele>506.5</ele>
        <time>2013-07-10T08:56:49Z</time>
      </trkpt>
      <trkpt lat="46.24314" lon="4.43089">
        <ele>506.3</ele>
        <time>2013-07-10T08:56:50Z</time>
      </trkpt>
      <trkpt lat="46.24316" lon="4.43086">
        <ele>506</ele>
        <time>2013-07-10T08:56:51Z</time>
      </trkpt>
      <trkpt lat="46.24318" lon="4.43084">
        <ele>505.9</ele>
        <time>2013-07-10T08:56:52Z</time>
      </trkpt>
      <trkpt lat="46.2432" lon="4.43082">
        <ele>505.7</ele>
        <time>2013-07-10T08:56:53Z</time>
      </trkpt>
      <trkpt lat="46.24322" lon="4.4308">
        <ele>505.5</ele>
        <time>2013-07-10T08:56:54Z</time>
      </trkpt>
      <trkpt lat="46.24323" lon="4.43078">
        <ele>505.3</ele>
        <time>2013-07-10T08:56:55Z</time>
      </trkpt>
      <trkpt lat="46.24325" lon="4.43076">
        <ele>505.1</ele>
        <time>2013-07-10T08:56:56Z</time>
      </trkpt>
      <trkpt lat="46.24327" lon="4.43074">
        <ele>505.1</ele>
        <time>2013-07-10T08:56:57Z</time>
      </trkpt>
      <trkpt lat="46.24329" lon="4.43073">
        <ele>505.1</ele>
        <time>2013-07-10T08:56:58Z</time>
      </trkpt>
      <trkpt lat="46.24332" lon="4.43071">
        <ele>505.1</ele>
        <time>2013-07-10T08:56:59Z</time>
      </trkpt>
      <trkpt lat="46.24334" lon="4.4307">
        <ele>505.1</ele>
        <time>2013-07-10T08:57:00Z</time>
      </trkpt>
      <trkpt lat="46.24336" lon="4.43069">
        <ele>505</ele>
        <time>2013-07-10T08:57:01Z</time>
      </trkpt>
      <trkpt lat="46.24338" lon="4.43068">
        <ele>504.9</ele>
        <time>2013-07-10T08:57:02Z</time>
      </trkpt>
      <trkpt lat="46.2434" lon="4.43067">
        <ele>504.8</ele>
        <time>2013-07-10T08:57:03Z</time>
      </trkpt>
      <trkpt lat="46.24342" lon="4.43066">
        <ele>504.7</ele>
        <time>2013-07-10T08:57:04Z</time>
      </trkpt>
      <trkpt lat="46.24344" lon="4.43065">
        <ele>504.7</ele>
        <time>2013-07-10T08:57:05Z</time>
      </trkpt>
      <trkpt lat="46.24345" lon="4.43065">
        <ele>504.7</ele>
        <time>2013-07-10T08:57:06Z</time>
      </trkpt>
      <trkpt lat="46.24347" lon="4.43064">
        <ele>504.7</ele>
        <time>2013-07-10T08:57:07Z</time>
      </trkpt>
      <trkpt lat="46.24349" lon="4.43064">
        <ele>504.8</ele>
        <time>2013-07-10T08:57:08Z</time>
      </trkpt>
      <trkpt lat="46.2435" lon="4.43064">
        <ele>504.9</ele>
        <time>2013-07-10T08:57:09Z</time>
      </trkpt>
      <trkpt lat="46.24352" lon="4.43064">
        <ele>505</ele>
        <time>2013-07-10T08:57:10Z</time>
      </trkpt>
      <trkpt lat="46.24354" lon="4.43064">
        <ele>505.2</ele>
        <time>2013-07-10T08:57:11Z</time>
      </trkpt>
      <trkpt lat="46.24356" lon="4.43064">
        <ele>505.3</ele>
        <time>2013-07-10T08:57:12Z</time>
      </trkpt>
      <trkpt lat="46.24358" lon="4.43064">
        <ele>505.4</ele>
        <time>2013-07-10T08:57:13Z</time>
      </trkpt>
      <trkpt lat="46.24359" lon="4.43064">
        <ele>505.5</ele>
        <time>2013-07-10T08:57:14Z</time>
      </trkpt>
      <trkpt lat="46.24361" lon="4.43065">
        <ele>505.6</ele>
        <time>2013-07-10T08:57:15Z</time>
      </trkpt>
      <trkpt lat="46.24363" lon="4.43065">
        <ele>505.7</ele>
        <time>2013-07-10T08:57:16Z</time>
      </trkpt>
      <trkpt lat="46.24364" lon="4.43065">
        <ele>505.8</ele>
        <time>2013-07-10T08:57:17Z</time>
      </trkpt>
      <trkpt lat="46.24366" lon="4.43065">
        <ele>505.9</ele>
        <time>2013-07-10T08:57:18Z</time>
      </trkpt>
      <trkpt lat="46.24368" lon="4.43065">
        <ele>506</ele>
        <time>2013-07-10T08:57:19Z</time>
      </trkpt>
      <trkpt lat="46.2437" lon="4.43066">
        <ele>506.2</ele>
        <time>2013-07-10T08:57:20Z</time>
      </trkpt>
      <trkpt lat="46.24372" lon="4.43067">
        <ele>506.4</ele>
        <time>2013-07-10T08:57:21Z</time>
      </trkpt>
      <trkpt lat="46.24374" lon="4.43067">
        <ele>506.5</ele>
        <time>2013-07-10T08:57:22Z</time>
      </trkpt>
      <trkpt lat="46.24376" lon="4.43067">
        <ele>506.6</ele>
        <time>2013-07-10T08:57:23Z</time>
      </trkpt>
      <trkpt lat="46.24378" lon="4.43067">
        <ele>506.7</ele>
        <time>2013-07-10T08:57:24Z</time>
      </trkpt>
      <trkpt lat="46.24381" lon="4.43068">
        <ele>506.9</ele>
        <time>2013-07-10T08:57:25Z</time>
      </trkpt>
      <trkpt lat="46.24383" lon="4.43068">
        <ele>507</ele>
        <time>2013-07-10T08:57:26Z</time>
      </trkpt>
      <trkpt lat="46.24385" lon="4.43068">
        <ele>507.1</ele>
        <time>2013-07-10T08:57:27Z</time>
      </trkpt>
      <trkpt lat="46.24387" lon="4.43069">
        <ele>507.3</ele>
        <time>2013-07-10T08:57:28Z</time>
      </trkpt>
      <trkpt lat="46.24389" lon="4.43069">
        <ele>507.4</ele>
        <time>2013-07-10T08:57:29Z</time>
      </trkpt>
      <trkpt lat="46.24391" lon="4.4307">
        <ele>507.5</ele>
        <time>2013-07-10T08:57:30Z</time>
      </trkpt>
      <trkpt lat="46.24393" lon="4.4307">
        <ele>507.5</ele>
        <time>2013-07-10T08:57:31Z</time>
      </trkpt>
      <trkpt lat="46.24394" lon="4.43071">
        <ele>507.6</ele>
        <time>2013-07-10T08:57:32Z</time>
      </trkpt>
      <trkpt lat="46.24396" lon="4.43072">
        <ele>507.7</ele>
        <time>2013-07-10T08:57:33Z</time>
      </trkpt>
      <trkpt lat="46.24398" lon="4.43073">
        <ele>507.8</ele>
        <time>2013-07-10T08:57:34Z</time>
      </trkpt>
      <trkpt lat="46.244" lon="4.43074">
        <ele>508</ele>
        <time>2013-07-10T08:57:35Z</time>
      </trkpt>
      <trkpt lat="46.24401" lon="4.43074">
        <ele>508.1</ele>
        <time>2013-07-10T08:57:36Z</time>
      </trkpt>
      <trkpt lat="46.24403" lon="4.43076">
        <ele>508.3</ele>
        <time>2013-07-10T08:57:37Z</time>
      </trkpt>
      <trkpt lat="46.24404" lon="4.43076">
        <ele>508.5</ele>
        <time>2013-07-10T08:57:38Z</time>
      </trkpt>
      <trkpt lat="46.24406" lon="4.43078">
        <ele>508.7</ele>
        <time>2013-07-10T08:57:39Z</time>
      </trkpt>
      <trkpt lat="46.24408" lon="4.43079">
        <ele>508.9</ele>
        <time>2013-07-10T08:57:40Z</time>
      </trkpt>
      <trkpt lat="46.24409" lon="4.4308">
        <ele>509.1</ele>
        <time>2013-07-10T08:57:41Z</time>
      </trkpt>
      <trkpt lat="46.24411" lon="4.43081">
        <ele>509.3</ele>
        <time>2013-07-10T08:57:42Z</time>
      </trkpt>
      <trkpt lat="46.24412" lon="4.43082">
        <ele>509.6</ele>
        <time>2013-07-10T08:57:43Z</time>
      </trkpt>
      <trkpt lat="46.24414" lon="4.43083">
        <ele>509.8</ele>
        <time>2013-07-10T08:57:44Z</time>
      </trkpt>
      <trkpt lat="46.24415" lon="4.43084">
        <ele>510.1</ele>
        <time>2013-07-10T08:57:45Z</time>
      </trkpt>
      <trkpt lat="46.24417" lon="4.43085">
        <ele>510.2</ele>
        <time>2013-07-10T08:57:46Z</time>
      </trkpt>
      <trkpt lat="46.24418" lon="4.43085">
        <ele>510.3</ele>
        <time>2013-07-10T08:57:47Z</time>
      </trkpt>
      <trkpt lat="46.24418" lon="4.43085">
        <ele>510.3</ele>
        <time>2013-07-10T08:57:48Z</time>
      </trkpt>
      <trkpt lat="46.24421" lon="4.43087">
        <ele>510.4</ele>
        <time>2013-07-10T08:57:49Z</time>
      </trkpt>
      <trkpt lat="46.24423" lon="4.43087">
        <ele>510.5</ele>
        <time>2013-07-10T08:57:50Z</time>
      </trkpt>
      <trkpt lat="46.24425" lon="4.43088">
        <ele>510.5</ele>
        <time>2013-07-10T08:57:51Z</time>
      </trkpt>
      <trkpt lat="46.24426" lon="4.43089">
        <ele>510.6</ele>
        <time>2013-07-10T08:57:52Z</time>
      </trkpt>
      <trkpt lat="46.24428" lon="4.43089">
        <ele>510.6</ele>
        <time>2013-07-10T08:57:53Z</time>
      </trkpt>
      <trkpt lat="46.2443" lon="4.4309">
        <ele>510.6</ele>
        <time>2013-07-10T08:57:54Z</time>
      </trkpt>
      <trkpt lat="46.24432" lon="4.4309">
        <ele>510.5</ele>
        <time>2013-07-10T08:57:55Z</time>
      </trkpt>
      <trkpt lat="46.24434" lon="4.4309">
        <ele>510.5</ele>
        <time>2013-07-10T08:57:56Z</time>
      </trkpt>
      <trkpt lat="46.24437" lon="4.43091">
        <ele>510.5</ele>
        <time>2013-07-10T08:57:57Z</time>
      </trkpt>
      <trkpt lat="46.24439" lon="4.43091">
        <ele>510.4</ele>
        <time>2013-07-10T08:57:58Z</time>
      </trkpt>
      <trkpt lat="46.24441" lon="4.43091">
        <ele>510.4</ele>
        <time>2013-07-10T08:57:59Z</time>
      </trkpt>
      <trkpt lat="46.24443" lon="4.43091">
        <ele>510.3</ele>
        <time>2013-07-10T08:58:00Z</time>
      </trkpt>
      <trkpt lat="46.24445" lon="4.4309">
        <ele>510.4</ele>
        <time>2013-07-10T08:58:01Z</time>
      </trkpt>
      <trkpt lat="46.24447" lon="4.4309">
        <ele>510.8</ele>
        <time>2013-07-10T08:58:02Z</time>
      </trkpt>
      <trkpt lat="46.24449" lon="4.43089">
        <ele>511.2</ele>
        <time>2013-07-10T08:58:03Z</time>
      </trkpt>
      <trkpt lat="46.24451" lon="4.43088">
        <ele>511.6</ele>
        <time>2013-07-10T08:58:04Z</time>
      </trkpt>
      <trkpt lat="46.24453" lon="4.43087">
        <ele>512</ele>
        <time>2013-07-10T08:58:05Z</time>
      </trkpt>
      <trkpt lat="46.24455" lon="4.43086">
        <ele>512.4</ele>
        <time>2013-07-10T08:58:06Z</time>
      </trkpt>
      <trkpt lat="46.24457" lon="4.43084">
        <ele>512.7</ele>
        <time>2013-07-10T08:58:07Z</time>
      </trkpt>
      <trkpt lat="46.24459" lon="4.43083">
        <ele>513</ele>
        <time>2013-07-10T08:58:08Z</time>
      </trkpt>
      <trkpt lat="46.24461" lon="4.43082">
        <ele>513.2</ele>
        <time>2013-07-10T08:58:09Z</time>
      </trkpt>
      <trkpt lat="46.24463" lon="4.4308">
        <ele>513.3</ele>
        <time>2013-07-10T08:58:10Z</time>
      </trkpt>
      <trkpt lat="46.24464" lon="4.43079">
        <ele>513.4</ele>
        <time>2013-07-10T08:58:11Z</time>
      </trkpt>
      <trkpt lat="46.24467" lon="4.43077">
        <ele>513.6</ele>
        <time>2013-07-10T08:58:12Z</time>
      </trkpt>
      <trkpt lat="46.24469" lon="4.43075">
        <ele>513.7</ele>
        <time>2013-07-10T08:58:13Z</time>
      </trkpt>
      <trkpt lat="46.2447" lon="4.43073">
        <ele>513.7</ele>
        <time>2013-07-10T08:58:14Z</time>
      </trkpt>
      <trkpt lat="46.24472" lon="4.43071">
        <ele>513.8</ele>
        <time>2013-07-10T08:58:15Z</time>
      </trkpt>
      <trkpt lat="46.24474" lon="4.43069">
        <ele>513.7</ele>
        <time>2013-07-10T08:58:16Z</time>
      </trkpt>
      <trkpt lat="46.24476" lon="4.43067">
        <ele>513.8</ele>
        <time>2013-07-10T08:58:17Z</time>
      </trkpt>
      <trkpt lat="46.24478" lon="4.43066">
        <ele>513.8</ele>
        <time>2013-07-10T08:58:18Z</time>
      </trkpt>
      <trkpt lat="46.2448" lon="4.43063">
        <ele>513.8</ele>
        <time>2013-07-10T08:58:19Z</time>
      </trkpt>
      <trkpt lat="46.24482" lon="4.43061">
        <ele>513.9</ele>
        <time>2013-07-10T08:58:20Z</time>
      </trkpt>
      <trkpt lat="46.24483" lon="4.43059">
        <ele>513.8</ele>
        <time>2013-07-10T08:58:21Z</time>
      </trkpt>
      <trkpt lat="46.24486" lon="4.43056">
        <ele>514</ele>
        <time>2013-07-10T08:58:22Z</time>
      </trkpt>
      <trkpt lat="46.24488" lon="4.43054">
        <ele>514.1</ele>
        <time>2013-07-10T08:58:23Z</time>
      </trkpt>
      <trkpt lat="46.2449" lon="4.43052">
        <ele>514.4</ele>
        <time>2013-07-10T08:58:24Z</time>
      </trkpt>
      <trkpt lat="46.24492" lon="4.43049">
        <ele>514.7</ele>
        <time>2013-07-10T08:58:25Z</time>
      </trkpt>
      <trkpt lat="46.24494" lon="4.43046">
        <ele>515</ele>
        <time>2013-07-10T08:58:26Z</time>
      </trkpt>
      <trkpt lat="46.24497" lon="4.43044">
        <ele>515.3</ele>
        <time>2013-07-10T08:58:27Z</time>
      </trkpt>
      <trkpt lat="46.24499" lon="4.43041">
        <ele>515.7</ele>
        <time>2013-07-10T08:58:28Z</time>
      </trkpt>
      <trkpt lat="46.24501" lon="4.43039">
        <ele>516</ele>
        <time>2013-07-10T08:58:29Z</time>
      </trkpt>
      <trkpt lat="46.24503" lon="4.43036">
        <ele>516.3</ele>
        <time>2013-07-10T08:58:30Z</time>
      </trkpt>
      <trkpt lat="46.24506" lon="4.43033">
        <ele>516.6</ele>
        <time>2013-07-10T08:58:31Z</time>
      </trkpt>
      <trkpt lat="46.24508" lon="4.43031">
        <ele>516.9</ele>
        <time>2013-07-10T08:58:32Z</time>
      </trkpt>
      <trkpt lat="46.2451" lon="4.43028">
        <ele>517.2</ele>
        <time>2013-07-10T08:58:33Z</time>
      </trkpt>
      <trkpt lat="46.24513" lon="4.43025">
        <ele>517.5</ele>
        <time>2013-07-10T08:58:34Z</time>
      </trkpt>
      <trkpt lat="46.24515" lon="4.43022">
        <ele>517.7</ele>
        <time>2013-07-10T08:58:35Z</time>
      </trkpt>
      <trkpt lat="46.24517" lon="4.43019">
        <ele>518.1</ele>
        <time>2013-07-10T08:58:36Z</time>
      </trkpt>
      <trkpt lat="46.24519" lon="4.43017">
        <ele>518.5</ele>
        <time>2013-07-10T08:58:37Z</time>
      </trkpt>
      <trkpt lat="46.24521" lon="4.43015">
        <ele>518.9</ele>
        <time>2013-07-10T08:58:38Z</time>
      </trkpt>
      <trkpt lat="46.24523" lon="4.43012">
        <ele>519.3</ele>
        <time>2013-07-10T08:58:39Z</time>
      </trkpt>
      <trkpt lat="46.24525" lon="4.4301">
        <ele>519.7</ele>
        <time>2013-07-10T08:58:40Z</time>
      </trkpt>
      <trkpt lat="46.24527" lon="4.43008">
        <ele>520.1</ele>
        <time>2013-07-10T08:58:41Z</time>
      </trkpt>
      <trkpt lat="46.24529" lon="4.43006">
        <ele>520.5</ele>
        <time>2013-07-10T08:58:42Z</time>
      </trkpt>
      <trkpt lat="46.24531" lon="4.43003">
        <ele>520.9</ele>
        <time>2013-07-10T08:58:43Z</time>
      </trkpt>
      <trkpt lat="46.24533" lon="4.43001">
        <ele>521.2</ele>
        <time>2013-07-10T08:58:44Z</time>
      </trkpt>
      <trkpt lat="46.24535" lon="4.42998">
        <ele>521.4</ele>
        <time>2013-07-10T08:58:45Z</time>
      </trkpt>
      <trkpt lat="46.24537" lon="4.42995">
        <ele>521.5</ele>
        <time>2013-07-10T08:58:46Z</time>
      </trkpt>
      <trkpt lat="46.24539" lon="4.42993">
        <ele>521.7</ele>
        <time>2013-07-10T08:58:47Z</time>
      </trkpt>
      <trkpt lat="46.24539" lon="4.42993">
        <ele>521.7</ele>
        <time>2013-07-10T08:58:48Z</time>
      </trkpt>
      <trkpt lat="46.24543" lon="4.42989">
        <ele>522.1</ele>
        <time>2013-07-10T08:58:49Z</time>
      </trkpt>
      <trkpt lat="46.24545" lon="4.42987">
        <ele>522.2</ele>
        <time>2013-07-10T08:58:50Z</time>
      </trkpt>
      <trkpt lat="46.24546" lon="4.42985">
        <ele>522.4</ele>
        <time>2013-07-10T08:58:51Z</time>
      </trkpt>
      <trkpt lat="46.24548" lon="4.42984">
        <ele>522.6</ele>
        <time>2013-07-10T08:58:52Z</time>
      </trkpt>
      <trkpt lat="46.2455" lon="4.42982">
        <ele>522.7</ele>
        <time>2013-07-10T08:58:53Z</time>
      </trkpt>
      <trkpt lat="46.24551" lon="4.42981">
        <ele>522.9</ele>
        <time>2013-07-10T08:58:54Z</time>
      </trkpt>
      <trkpt lat="46.24553" lon="4.42979">
        <ele>523.1</ele>
        <time>2013-07-10T08:58:55Z</time>
      </trkpt>
      <trkpt lat="46.24554" lon="4.42978">
        <ele>523.3</ele>
        <time>2013-07-10T08:58:56Z</time>
      </trkpt>
      <trkpt lat="46.24556" lon="4.42976">
        <ele>523.5</ele>
        <time>2013-07-10T08:58:57Z</time>
      </trkpt>
      <trkpt lat="46.24557" lon="4.42975">
        <ele>523.6</ele>
        <time>2013-07-10T08:58:58Z</time>
      </trkpt>
      <trkpt lat="46.24559" lon="4.42973">
        <ele>523.7</ele>
        <time>2013-07-10T08:58:59Z</time>
      </trkpt>
      <trkpt lat="46.24561" lon="4.42971">
        <ele>523.8</ele>
        <time>2013-07-10T08:59:00Z</time>
      </trkpt>
      <trkpt lat="46.24562" lon="4.4297">
        <ele>523.9</ele>
        <time>2013-07-10T08:59:01Z</time>
      </trkpt>
      <trkpt lat="46.24564" lon="4.42969">
        <ele>524</ele>
        <time>2013-07-10T08:59:02Z</time>
      </trkpt>
      <trkpt lat="46.24566" lon="4.42967">
        <ele>524.2</ele>
        <time>2013-07-10T08:59:03Z</time>
      </trkpt>
      <trkpt lat="46.24568" lon="4.42966">
        <ele>524.3</ele>
        <time>2013-07-10T08:59:04Z</time>
      </trkpt>
      <trkpt lat="46.24569" lon="4.42964">
        <ele>524.5</ele>
        <time>2013-07-10T08:59:05Z</time>
      </trkpt>
      <trkpt lat="46.24571" lon="4.42963">
        <ele>524.6</ele>
        <time>2013-07-10T08:59:06Z</time>
      </trkpt>
      <trkpt lat="46.24572" lon="4.42962">
        <ele>524.7</ele>
        <time>2013-07-10T08:59:07Z</time>
      </trkpt>
      <trkpt lat="46.24574" lon="4.42961">
        <ele>524.9</ele>
        <time>2013-07-10T08:59:08Z</time>
      </trkpt>
      <trkpt lat="46.24576" lon="4.4296">
        <ele>525.1</ele>
        <time>2013-07-10T08:59:09Z</time>
      </trkpt>
      <trkpt lat="46.24577" lon="4.42958">
        <ele>525.2</ele>
        <time>2013-07-10T08:59:10Z</time>
      </trkpt>
      <trkpt lat="46.24579" lon="4.42957">
        <ele>525.5</ele>
        <time>2013-07-10T08:59:11Z</time>
      </trkpt>
      <trkpt lat="46.24581" lon="4.42956">
        <ele>525.7</ele>
        <time>2013-07-10T08:59:12Z</time>
      </trkpt>
      <trkpt lat="46.24582" lon="4.42955">
        <ele>526</ele>
        <time>2013-07-10T08:59:13Z</time>
      </trkpt>
      <trkpt lat="46.24584" lon="4.42954">
        <ele>526.1</ele>
        <time>2013-07-10T08:59:14Z</time>
      </trkpt>
      <trkpt lat="46.24586" lon="4.42953">
        <ele>526.2</ele>
        <time>2013-07-10T08:59:15Z</time>
      </trkpt>
      <trkpt lat="46.24588" lon="4.42952">
        <ele>526.4</ele>
        <time>2013-07-10T08:59:16Z</time>
      </trkpt>
      <trkpt lat="46.2459" lon="4.42951">
        <ele>526.5</ele>
        <time>2013-07-10T08:59:17Z</time>
      </trkpt>
      <trkpt lat="46.24591" lon="4.4295">
        <ele>526.6</ele>
        <time>2013-07-10T08:59:18Z</time>
      </trkpt>
      <trkpt lat="46.24593" lon="4.42949">
        <ele>526.7</ele>
        <time>2013-07-10T08:59:19Z</time>
      </trkpt>
      <trkpt lat="46.24595" lon="4.42948">
        <ele>526.8</ele>
        <time>2013-07-10T08:59:20Z</time>
      </trkpt>
      <trkpt lat="46.24597" lon="4.42948">
        <ele>526.9</ele>
        <time>2013-07-10T08:59:21Z</time>
      </trkpt>
      <trkpt lat="46.24598" lon="4.42947">
        <ele>527</ele>
        <time>2013-07-10T08:59:22Z</time>
      </trkpt>
      <trkpt lat="46.246" lon="4.42946">
        <ele>527.1</ele>
        <time>2013-07-10T08:59:23Z</time>
      </trkpt>
      <trkpt lat="46.24602" lon="4.42945">
        <ele>527.2</ele>
        <time>2013-07-10T08:59:24Z</time>
      </trkpt>
      <trkpt lat="46.24604" lon="4.42945">
        <ele>527.2</ele>
        <time>2013-07-10T08:59:25Z</time>
      </trkpt>
      <trkpt lat="46.24606" lon="4.42944">
        <ele>527.3</ele>
        <time>2013-07-10T08:59:26Z</time>
      </trkpt>
      <trkpt lat="46.24608" lon="4.42943">
        <ele>527.3</ele>
        <time>2013-07-10T08:59:27Z</time>
      </trkpt>
      <trkpt lat="46.2461" lon="4.42942">
        <ele>527.4</ele>
        <time>2013-07-10T08:59:28Z</time>
      </trkpt>
      <trkpt lat="46.24612" lon="4.42941">
        <ele>527.5</ele>
        <time>2013-07-10T08:59:29Z</time>
      </trkpt>
      <trkpt lat="46.24614" lon="4.4294">
        <ele>527.8</ele>
        <time>2013-07-10T08:59:30Z</time>
      </trkpt>
      <trkpt lat="46.24616" lon="4.42939">
        <ele>528.1</ele>
        <time>2013-07-10T08:59:31Z</time>
      </trkpt>
      <trkpt lat="46.24618" lon="4.42939">
        <ele>528.4</ele>
        <time>2013-07-10T08:59:32Z</time>
      </trkpt>
      <trkpt lat="46.2462" lon="4.42938">
        <ele>528.7</ele>
        <time>2013-07-10T08:59:33Z</time>
      </trkpt>
      <trkpt lat="46.24622" lon="4.42937">
        <ele>528.9</ele>
        <time>2013-07-10T08:59:34Z</time>
      </trkpt>
      <trkpt lat="46.24624" lon="4.42936">
        <ele>529.2</ele>
        <time>2013-07-10T08:59:35Z</time>
      </trkpt>
      <trkpt lat="46.24626" lon="4.42935">
        <ele>529.3</ele>
        <time>2013-07-10T08:59:36Z</time>
      </trkpt>
      <trkpt lat="46.24628" lon="4.42933">
        <ele>529.5</ele>
        <time>2013-07-10T08:59:37Z</time>
      </trkpt>
      <trkpt lat="46.2463" lon="4.42932">
        <ele>529.6</ele>
        <time>2013-07-10T08:59:38Z</time>
      </trkpt>
      <trkpt lat="46.24632" lon="4.42931">
        <ele>529.7</ele>
        <time>2013-07-10T08:59:39Z</time>
      </trkpt>
      <trkpt lat="46.24634" lon="4.4293">
        <ele>529.8</ele>
        <time>2013-07-10T08:59:40Z</time>
      </trkpt>
      <trkpt lat="46.24636" lon="4.42928">
        <ele>529.8</ele>
        <time>2013-07-10T08:59:41Z</time>
      </trkpt>
      <trkpt lat="46.24637" lon="4.42927">
        <ele>529.9</ele>
        <time>2013-07-10T08:59:42Z</time>
      </trkpt>
      <trkpt lat="46.24639" lon="4.42925">
        <ele>529.9</ele>
        <time>2013-07-10T08:59:43Z</time>
      </trkpt>
      <trkpt lat="46.24641" lon="4.42924">
        <ele>529.8</ele>
        <time>2013-07-10T08:59:44Z</time>
      </trkpt>
      <trkpt lat="46.24642" lon="4.42922">
        <ele>529.7</ele>
        <time>2013-07-10T08:59:45Z</time>
      </trkpt>
      <trkpt lat="46.24644" lon="4.4292">
        <ele>529.6</ele>
        <time>2013-07-10T08:59:46Z</time>
      </trkpt>
      <trkpt lat="46.24646" lon="4.42918">
        <ele>529.5</ele>
        <time>2013-07-10T08:59:47Z</time>
      </trkpt>
      <trkpt lat="46.24647" lon="4.42916">
        <ele>529.3</ele>
        <time>2013-07-10T08:59:48Z</time>
      </trkpt>
      <trkpt lat="46.24649" lon="4.42914">
        <ele>529.3</ele>
        <time>2013-07-10T08:59:49Z</time>
      </trkpt>
      <trkpt lat="46.2465" lon="4.42912">
        <ele>529.3</ele>
        <time>2013-07-10T08:59:50Z</time>
      </trkpt>
      <trkpt lat="46.24652" lon="4.4291">
        <ele>529.2</ele>
        <time>2013-07-10T08:59:51Z</time>
      </trkpt>
      <trkpt lat="46.24653" lon="4.42908">
        <ele>529.2</ele>
        <time>2013-07-10T08:59:52Z</time>
      </trkpt>
      <trkpt lat="46.24655" lon="4.42906">
        <ele>529.1</ele>
        <time>2013-07-10T08:59:53Z</time>
      </trkpt>
      <trkpt lat="46.24656" lon="4.42904">
        <ele>528.9</ele>
        <time>2013-07-10T08:59:54Z</time>
      </trkpt>
      <trkpt lat="46.24658" lon="4.42901">
        <ele>528.8</ele>
        <time>2013-07-10T08:59:55Z</time>
      </trkpt>
      <trkpt lat="46.2466" lon="4.429">
        <ele>528.8</ele>
        <time>2013-07-10T08:59:56Z</time>
      </trkpt>
      <trkpt lat="46.24661" lon="4.42898">
        <ele>528.7</ele>
        <time>2013-07-10T08:59:57Z</time>
      </trkpt>
      <trkpt lat="46.24663" lon="4.42896">
        <ele>528.7</ele>
        <time>2013-07-10T08:59:58Z</time>
      </trkpt>
      <trkpt lat="46.24665" lon="4.42894">
        <ele>528.6</ele>
        <time>2013-07-10T08:59:59Z</time>
      </trkpt>
      <trkpt lat="46.24667" lon="4.42892">
        <ele>528.5</ele>
        <time>2013-07-10T09:00:00Z</time>
      </trkpt>
      <trkpt lat="46.24668" lon="4.4289">
        <ele>528.3</ele>
        <time>2013-07-10T09:00:01Z</time>
      </trkpt>
      <trkpt lat="46.2467" lon="4.42888">
        <ele>528.2</ele>
        <time>2013-07-10T09:00:02Z</time>
      </trkpt>
      <trkpt lat="46.24672" lon="4.42886">
        <ele>528.2</ele>
        <time>2013-07-10T09:00:03Z</time>
      </trkpt>
      <trkpt lat="46.24673" lon="4.42885">
        <ele>528.1</ele>
        <time>2013-07-10T09:00:04Z</time>
      </trkpt>
      <trkpt lat="46.24675" lon="4.42882">
        <ele>528</ele>
        <time>2013-07-10T09:00:05Z</time>
      </trkpt>
      <trkpt lat="46.24677" lon="4.42881">
        <ele>528</ele>
        <time>2013-07-10T09:00:06Z</time>
      </trkpt>
      <trkpt lat="46.24679" lon="4.42879">
        <ele>527.9</ele>
        <time>2013-07-10T09:00:07Z</time>
      </trkpt>
      <trkpt lat="46.24681" lon="4.42877">
        <ele>527.9</ele>
        <time>2013-07-10T09:00:08Z</time>
      </trkpt>
      <trkpt lat="46.24683" lon="4.42876">
        <ele>527.9</ele>
        <time>2013-07-10T09:00:09Z</time>
      </trkpt>
      <trkpt lat="46.24685" lon="4.42874">
        <ele>527.8</ele>
        <time>2013-07-10T09:00:10Z</time>
      </trkpt>
      <trkpt lat="46.24687" lon="4.42873">
        <ele>527.8</ele>
        <time>2013-07-10T09:00:11Z</time>
      </trkpt>
      <trkpt lat="46.24689" lon="4.42871">
        <ele>527.8</ele>
        <time>2013-07-10T09:00:12Z</time>
      </trkpt>
      <trkpt lat="46.24691" lon="4.4287">
        <ele>527.9</ele>
        <time>2013-07-10T09:00:13Z</time>
      </trkpt>
      <trkpt lat="46.24692" lon="4.42869">
        <ele>527.9</ele>
        <time>2013-07-10T09:00:14Z</time>
      </trkpt>
      <trkpt lat="46.24694" lon="4.42868">
        <ele>527.9</ele>
        <time>2013-07-10T09:00:15Z</time>
      </trkpt>
      <trkpt lat="46.24696" lon="4.42867">
        <ele>527.9</ele>
        <time>2013-07-10T09:00:16Z</time>
      </trkpt>
      <trkpt lat="46.24698" lon="4.42866">
        <ele>527.8</ele>
        <time>2013-07-10T09:00:17Z</time>
      </trkpt>
      <trkpt lat="46.247" lon="4.42865">
        <ele>527.8</ele>
        <time>2013-07-10T09:00:18Z</time>
      </trkpt>
      <trkpt lat="46.24701" lon="4.42865">
        <ele>527.8</ele>
        <time>2013-07-10T09:00:19Z</time>
      </trkpt>
      <trkpt lat="46.24703" lon="4.42864">
        <ele>527.7</ele>
        <time>2013-07-10T09:00:20Z</time>
      </trkpt>
      <trkpt lat="46.24705" lon="4.42864">
        <ele>527.7</ele>
        <time>2013-07-10T09:00:21Z</time>
      </trkpt>
      <trkpt lat="46.24707" lon="4.42863">
        <ele>527.7</ele>
        <time>2013-07-10T09:00:22Z</time>
      </trkpt>
      <trkpt lat="46.24709" lon="4.42863">
        <ele>527.8</ele>
        <time>2013-07-10T09:00:23Z</time>
      </trkpt>
      <trkpt lat="46.24711" lon="4.42863">
        <ele>527.9</ele>
        <time>2013-07-10T09:00:24Z</time>
      </trkpt>
      <trkpt lat="46.24714" lon="4.42863">
        <ele>528</ele>
        <time>2013-07-10T09:00:25Z</time>
      </trkpt>
      <trkpt lat="46.24716" lon="4.42864">
        <ele>528.1</ele>
        <time>2013-07-10T09:00:26Z</time>
      </trkpt>
      <trkpt lat="46.24718" lon="4.42864">
        <ele>528.2</ele>
        <time>2013-07-10T09:00:27Z</time>
      </trkpt>
      <trkpt lat="46.24719" lon="4.42864">
        <ele>528.3</ele>
        <time>2013-07-10T09:00:28Z</time>
      </trkpt>
      <trkpt lat="46.24721" lon="4.42864">
        <ele>528.4</ele>
        <time>2013-07-10T09:00:29Z</time>
      </trkpt>
      <trkpt lat="46.24723" lon="4.42865">
        <ele>528.5</ele>
        <time>2013-07-10T09:00:30Z</time>
      </trkpt>
      <trkpt lat="46.24725" lon="4.42865">
        <ele>528.4</ele>
        <time>2013-07-10T09:00:31Z</time>
      </trkpt>
      <trkpt lat="46.24727" lon="4.42865">
        <ele>528.4</ele>
        <time>2013-07-10T09:00:32Z</time>
      </trkpt>
      <trkpt lat="46.24729" lon="4.42865">
        <ele>528.4</ele>
        <time>2013-07-10T09:00:33Z</time>
      </trkpt>
      <trkpt lat="46.24731" lon="4.42865">
        <ele>528.4</ele>
        <time>2013-07-10T09:00:34Z</time>
      </trkpt>
      <trkpt lat="46.24733" lon="4.42866">
        <ele>528.3</ele>
        <time>2013-07-10T09:00:35Z</time>
      </trkpt>
      <trkpt lat="46.24735" lon="4.42866">
        <ele>528.3</ele>
        <time>2013-07-10T09:00:36Z</time>
      </trkpt>
      <trkpt lat="46.24737" lon="4.42866">
        <ele>528.3</ele>
        <time>2013-07-10T09:00:37Z</time>
      </trkpt>
      <trkpt lat="46.24738" lon="4.42867">
        <ele>528.3</ele>
        <time>2013-07-10T09:00:38Z</time>
      </trkpt>
      <trkpt lat="46.2474" lon="4.42867">
        <ele>528.4</ele>
        <time>2013-07-10T09:00:39Z</time>
      </trkpt>
      <trkpt lat="46.24743" lon="4.42868">
        <ele>528.4</ele>
        <time>2013-07-10T09:00:40Z</time>
      </trkpt>
      <trkpt lat="46.24745" lon="4.42868">
        <ele>528.4</ele>
        <time>2013-07-10T09:00:41Z</time>
      </trkpt>
      <trkpt lat="46.24747" lon="4.42869">
        <ele>528.4</ele>
        <time>2013-07-10T09:00:42Z</time>
      </trkpt>
      <trkpt lat="46.24749" lon="4.42869">
        <ele>528.5</ele>
        <time>2013-07-10T09:00:43Z</time>
      </trkpt>
      <trkpt lat="46.24751" lon="4.42869">
        <ele>528.5</ele>
        <time>2013-07-10T09:00:44Z</time>
      </trkpt>
      <trkpt lat="46.24753" lon="4.4287">
        <ele>528.5</ele>
        <time>2013-07-10T09:00:45Z</time>
      </trkpt>
      <trkpt lat="46.24755" lon="4.4287">
        <ele>528.5</ele>
        <time>2013-07-10T09:00:46Z</time>
      </trkpt>
      <trkpt lat="46.24757" lon="4.42871">
        <ele>528.6</ele>
        <time>2013-07-10T09:00:47Z</time>
      </trkpt>
      <trkpt lat="46.24759" lon="4.42871">
        <ele>528.6</ele>
        <time>2013-07-10T09:00:48Z</time>
      </trkpt>
      <trkpt lat="46.24761" lon="4.42872">
        <ele>528.7</ele>
        <time>2013-07-10T09:00:49Z</time>
      </trkpt>
      <trkpt lat="46.24763" lon="4.42872">
        <ele>528.7</ele>
        <time>2013-07-10T09:00:50Z</time>
      </trkpt>
      <trkpt lat="46.24765" lon="4.42873">
        <ele>528.8</ele>
        <time>2013-07-10T09:00:51Z</time>
      </trkpt>
      <trkpt lat="46.24767" lon="4.42873">
        <ele>528.8</ele>
        <time>2013-07-10T09:00:52Z</time>
      </trkpt>
      <trkpt lat="46.24769" lon="4.42874">
        <ele>528.8</ele>
        <time>2013-07-10T09:00:53Z</time>
      </trkpt>
      <trkpt lat="46.24771" lon="4.42874">
        <ele>528.8</ele>
        <time>2013-07-10T09:00:54Z</time>
      </trkpt>
      <trkpt lat="46.24774" lon="4.42874">
        <ele>528.8</ele>
        <time>2013-07-10T09:00:55Z</time>
      </trkpt>
      <trkpt lat="46.24776" lon="4.42874">
        <ele>528.8</ele>
        <time>2013-07-10T09:00:56Z</time>
      </trkpt>
      <trkpt lat="46.24778" lon="4.42874">
        <ele>528.7</ele>
        <time>2013-07-10T09:00:57Z</time>
      </trkpt>
      <trkpt lat="46.2478" lon="4.42874">
        <ele>528.6</ele>
        <time>2013-07-10T09:00:58Z</time>
      </trkpt>
      <trkpt lat="46.24782" lon="4.42874">
        <ele>528.7</ele>
        <time>2013-07-10T09:00:59Z</time>
      </trkpt>
      <trkpt lat="46.24784" lon="4.42874">
        <ele>528.7</ele>
        <time>2013-07-10T09:01:00Z</time>
      </trkpt>
      <trkpt lat="46.24786" lon="4.42874">
        <ele>528.6</ele>
        <time>2013-07-10T09:01:01Z</time>
      </trkpt>
      <trkpt lat="46.24788" lon="4.42874">
        <ele>528.6</ele>
        <time>2013-07-10T09:01:02Z</time>
      </trkpt>
      <trkpt lat="46.2479" lon="4.42874">
        <ele>528.5</ele>
        <time>2013-07-10T09:01:03Z</time>
      </trkpt>
      <trkpt lat="46.24792" lon="4.42874">
        <ele>528.5</ele>
        <time>2013-07-10T09:01:04Z</time>
      </trkpt>
      <trkpt lat="46.24795" lon="4.42874">
        <ele>528.5</ele>
        <time>2013-07-10T09:01:05Z</time>
      </trkpt>
      <trkpt lat="46.24797" lon="4.42874">
        <ele>528.5</ele>
        <time>2013-07-10T09:01:06Z</time>
      </trkpt>
      <trkpt lat="46.248" lon="4.42875">
        <ele>528.5</ele>
        <time>2013-07-10T09:01:07Z</time>
      </trkpt>
      <trkpt lat="46.24802" lon="4.42875">
        <ele>528.4</ele>
        <time>2013-07-10T09:01:08Z</time>
      </trkpt>
      <trkpt lat="46.24804" lon="4.42875">
        <ele>528.4</ele>
        <time>2013-07-10T09:01:09Z</time>
      </trkpt>
      <trkpt lat="46.24807" lon="4.42875">
        <ele>528.4</ele>
        <time>2013-07-10T09:01:10Z</time>
      </trkpt>
      <trkpt lat="46.24809" lon="4.42875">
        <ele>528.5</ele>
        <time>2013-07-10T09:01:11Z</time>
      </trkpt>
      <trkpt lat="46.24812" lon="4.42875">
        <ele>528.4</ele>
        <time>2013-07-10T09:01:12Z</time>
      </trkpt>
      <trkpt lat="46.24814" lon="4.42876">
        <ele>528.3</ele>
        <time>2013-07-10T09:01:13Z</time>
      </trkpt>
      <trkpt lat="46.24816" lon="4.42876">
        <ele>528.2</ele>
        <time>2013-07-10T09:01:14Z</time>
      </trkpt>
      <trkpt lat="46.24819" lon="4.42876">
        <ele>528.2</ele>
        <time>2013-07-10T09:01:15Z</time>
      </trkpt>
      <trkpt lat="46.24821" lon="4.42876">
        <ele>528.1</ele>
        <time>2013-07-10T09:01:16Z</time>
      </trkpt>
      <trkpt lat="46.24824" lon="4.42876">
        <ele>528</ele>
        <time>2013-07-10T09:01:17Z</time>
      </trkpt>
      <trkpt lat="46.24826" lon="4.42876">
        <ele>528</ele>
        <time>2013-07-10T09:01:18Z</time>
      </trkpt>
      <trkpt lat="46.24828" lon="4.42876">
        <ele>527.9</ele>
        <time>2013-07-10T09:01:19Z</time>
      </trkpt>
      <trkpt lat="46.24831" lon="4.42876">
        <ele>527.8</ele>
        <time>2013-07-10T09:01:20Z</time>
      </trkpt>
      <trkpt lat="46.24833" lon="4.42876">
        <ele>527.8</ele>
        <time>2013-07-10T09:01:21Z</time>
      </trkpt>
      <trkpt lat="46.24836" lon="4.42877">
        <ele>527.7</ele>
        <time>2013-07-10T09:01:22Z</time>
      </trkpt>
      <trkpt lat="46.24839" lon="4.42876">
        <ele>527.6</ele>
        <time>2013-07-10T09:01:23Z</time>
      </trkpt>
      <trkpt lat="46.24841" lon="4.42877">
        <ele>527.6</ele>
        <time>2013-07-10T09:01:24Z</time>
      </trkpt>
      <trkpt lat="46.24844" lon="4.42877">
        <ele>527.6</ele>
        <time>2013-07-10T09:01:25Z</time>
      </trkpt>
      <trkpt lat="46.24847" lon="4.42877">
        <ele>527.6</ele>
        <time>2013-07-10T09:01:26Z</time>
      </trkpt>
      <trkpt lat="46.2485" lon="4.42877">
        <ele>527.5</ele>
        <time>2013-07-10T09:01:27Z</time>
      </trkpt>
      <trkpt lat="46.24852" lon="4.42877">
        <ele>527.5</ele>
        <time>2013-07-10T09:01:28Z</time>
      </trkpt>
      <trkpt lat="46.24855" lon="4.42878">
        <ele>527.5</ele>
        <time>2013-07-10T09:01:29Z</time>
      </trkpt>
      <trkpt lat="46.24858" lon="4.42878">
        <ele>527.5</ele>
        <time>2013-07-10T09:01:30Z</time>
      </trkpt>
      <trkpt lat="46.24861" lon="4.42879">
        <ele>527.5</ele>
        <time>2013-07-10T09:01:31Z</time>
      </trkpt>
      <trkpt lat="46.24863" lon="4.42879">
        <ele>527.5</ele>
        <time>2013-07-10T09:01:32Z</time>
      </trkpt>
      <trkpt lat="46.24866" lon="4.4288">
        <ele>527.4</ele>
        <time>2013-07-10T09:01:33Z</time>
      </trkpt>
      <trkpt lat="46.24868" lon="4.42881">
        <ele>527.3</ele>
        <time>2013-07-10T09:01:34Z</time>
      </trkpt>
      <trkpt lat="46.24871" lon="4.42881">
        <ele>527.2</ele>
        <time>2013-07-10T09:01:35Z</time>
      </trkpt>
      <trkpt lat="46.24873" lon="4.42882">
        <ele>527.1</ele>
        <time>2013-07-10T09:01:36Z</time>
      </trkpt>
      <trkpt lat="46.24875" lon="4.42883">
        <ele>527.1</ele>
        <time>2013-07-10T09:01:37Z</time>
      </trkpt>
      <trkpt lat="46.24878" lon="4.42885">
        <ele>527.2</ele>
        <time>2013-07-10T09:01:38Z</time>
      </trkpt>
      <trkpt lat="46.2488" lon="4.42886">
        <ele>527.2</ele>
        <time>2013-07-10T09:01:39Z</time>
      </trkpt>
      <trkpt lat="46.24882" lon="4.42887">
        <ele>527.2</ele>
        <time>2013-07-10T09:01:40Z</time>
      </trkpt>
      <trkpt lat="46.24884" lon="4.42888">
        <ele>527.2</ele>
        <time>2013-07-10T09:01:41Z</time>
      </trkpt>
      <trkpt lat="46.24886" lon="4.42889">
        <ele>527.2</ele>
        <time>2013-07-10T09:01:42Z</time>
      </trkpt>
      <trkpt lat="46.24889" lon="4.4289">
        <ele>527.2</ele>
        <time>2013-07-10T09:01:43Z</time>
      </trkpt>
      <trkpt lat="46.24891" lon="4.42891">
        <ele>527.3</ele>
        <time>2013-07-10T09:01:44Z</time>
      </trkpt>
      <trkpt lat="46.24893" lon="4.42892">
        <ele>527.4</ele>
        <time>2013-07-10T09:01:45Z</time>
      </trkpt>
      <trkpt lat="46.24895" lon="4.42893">
        <ele>527.5</ele>
        <time>2013-07-10T09:01:46Z</time>
      </trkpt>
      <trkpt lat="46.24897" lon="4.42893">
        <ele>527.5</ele>
        <time>2013-07-10T09:01:47Z</time>
      </trkpt>
      <trkpt lat="46.24899" lon="4.42894">
        <ele>527.6</ele>
        <time>2013-07-10T09:01:48Z</time>
      </trkpt>
      <trkpt lat="46.24902" lon="4.42894">
        <ele>527.7</ele>
        <time>2013-07-10T09:01:49Z</time>
      </trkpt>
      <trkpt lat="46.24904" lon="4.42895">
        <ele>527.8</ele>
        <time>2013-07-10T09:01:50Z</time>
      </trkpt>
      <trkpt lat="46.24906" lon="4.42896">
        <ele>527.8</ele>
        <time>2013-07-10T09:01:51Z</time>
      </trkpt>
      <trkpt lat="46.24909" lon="4.42896">
        <ele>527.9</ele>
        <time>2013-07-10T09:01:52Z</time>
      </trkpt>
      <trkpt lat="46.24912" lon="4.42897">
        <ele>527.9</ele>
        <time>2013-07-10T09:01:53Z</time>
      </trkpt>
      <trkpt lat="46.24914" lon="4.42897">
        <ele>527.9</ele>
        <time>2013-07-10T09:01:54Z</time>
      </trkpt>
      <trkpt lat="46.24917" lon="4.42897">
        <ele>527.9</ele>
        <time>2013-07-10T09:01:55Z</time>
      </trkpt>
      <trkpt lat="46.24919" lon="4.42897">
        <ele>528.1</ele>
        <time>2013-07-10T09:01:56Z</time>
      </trkpt>
      <trkpt lat="46.24922" lon="4.42898">
        <ele>528.4</ele>
        <time>2013-07-10T09:01:57Z</time>
      </trkpt>
      <trkpt lat="46.24924" lon="4.42898">
        <ele>528.6</ele>
        <time>2013-07-10T09:01:58Z</time>
      </trkpt>
      <trkpt lat="46.24927" lon="4.42898">
        <ele>528.8</ele>
        <time>2013-07-10T09:01:59Z</time>
      </trkpt>
      <trkpt lat="46.2493" lon="4.42898">
        <ele>529.1</ele>
        <time>2013-07-10T09:02:00Z</time>
      </trkpt>
      <trkpt lat="46.24933" lon="4.42899">
        <ele>529.4</ele>
        <time>2013-07-10T09:02:01Z</time>
      </trkpt>
      <trkpt lat="46.24935" lon="4.42899">
        <ele>529.7</ele>
        <time>2013-07-10T09:02:02Z</time>
      </trkpt>
      <trkpt lat="46.24938" lon="4.42899">
        <ele>529.9</ele>
        <time>2013-07-10T09:02:03Z</time>
      </trkpt>
      <trkpt lat="46.24941" lon="4.42899">
        <ele>530.1</ele>
        <time>2013-07-10T09:02:04Z</time>
      </trkpt>
      <trkpt lat="46.24943" lon="4.42899">
        <ele>530.4</ele>
        <time>2013-07-10T09:02:05Z</time>
      </trkpt>
      <trkpt lat="46.24946" lon="4.429">
        <ele>530.6</ele>
        <time>2013-07-10T09:02:06Z</time>
      </trkpt>
      <trkpt lat="46.24948" lon="4.429">
        <ele>530.8</ele>
        <time>2013-07-10T09:02:07Z</time>
      </trkpt>
      <trkpt lat="46.24951" lon="4.429">
        <ele>530.9</ele>
        <time>2013-07-10T09:02:08Z</time>
      </trkpt>
      <trkpt lat="46.24953" lon="4.429">
        <ele>531</ele>
        <time>2013-07-10T09:02:09Z</time>
      </trkpt>
      <trkpt lat="46.24956" lon="4.429">
        <ele>531.2</ele>
        <time>2013-07-10T09:02:10Z</time>
      </trkpt>
      <trkpt lat="46.24958" lon="4.429">
        <ele>531.3</ele>
        <time>2013-07-10T09:02:11Z</time>
      </trkpt>
      <trkpt lat="46.24961" lon="4.42901">
        <ele>531.5</ele>
        <time>2013-07-10T09:02:12Z</time>
      </trkpt>
      <trkpt lat="46.24963" lon="4.429">
        <ele>531.6</ele>
        <time>2013-07-10T09:02:13Z</time>
      </trkpt>
      <trkpt lat="46.24966" lon="4.42901">
        <ele>531.8</ele>
        <time>2013-07-10T09:02:14Z</time>
      </trkpt>
      <trkpt lat="46.24968" lon="4.42901">
        <ele>531.9</ele>
        <time>2013-07-10T09:02:15Z</time>
      </trkpt>
      <trkpt lat="46.24971" lon="4.42901">
        <ele>532</ele>
        <time>2013-07-10T09:02:16Z</time>
      </trkpt>
      <trkpt lat="46.24973" lon="4.42901">
        <ele>532.2</ele>
        <time>2013-07-10T09:02:17Z</time>
      </trkpt>
      <trkpt lat="46.24975" lon="4.42901">
        <ele>532.3</ele>
        <time>2013-07-10T09:02:18Z</time>
      </trkpt>
      <trkpt lat="46.24977" lon="4.42901">
        <ele>532.4</ele>
        <time>2013-07-10T09:02:19Z</time>
      </trkpt>
      <trkpt lat="46.24979" lon="4.42901">
        <ele>532.5</ele>
        <time>2013-07-10T09:02:20Z</time>
      </trkpt>
      <trkpt lat="46.24981" lon="4.42901">
        <ele>532.6</ele>
        <time>2013-07-10T09:02:21Z</time>
      </trkpt>
      <trkpt lat="46.24983" lon="4.42901">
        <ele>532.8</ele>
        <time>2013-07-10T09:02:22Z</time>
      </trkpt>
      <trkpt lat="46.24985" lon="4.42901">
        <ele>532.9</ele>
        <time>2013-07-10T09:02:23Z</time>
      </trkpt>
      <trkpt lat="46.24987" lon="4.42901">
        <ele>533</ele>
        <time>2013-07-10T09:02:24Z</time>
      </trkpt>
      <trkpt lat="46.2499" lon="4.42901">
        <ele>533.2</ele>
        <time>2013-07-10T09:02:25Z</time>
      </trkpt>
      <trkpt lat="46.24992" lon="4.42901">
        <ele>533.3</ele>
        <time>2013-07-10T09:02:26Z</time>
      </trkpt>
      <trkpt lat="46.24994" lon="4.42901">
        <ele>533.4</ele>
        <time>2013-07-10T09:02:27Z</time>
      </trkpt>
      <trkpt lat="46.24996" lon="4.42901">
        <ele>533.5</ele>
        <time>2013-07-10T09:02:28Z</time>
      </trkpt>
      <trkpt lat="46.24998" lon="4.42901">
        <ele>533.6</ele>
        <time>2013-07-10T09:02:29Z</time>
      </trkpt>
      <trkpt lat="46.25" lon="4.42901">
        <ele>533.7</ele>
        <time>2013-07-10T09:02:30Z</time>
      </trkpt>
      <trkpt lat="46.25002" lon="4.42901">
        <ele>533.8</ele>
        <time>2013-07-10T09:02:31Z</time>
      </trkpt>
      <trkpt lat="46.25004" lon="4.42901">
        <ele>533.9</ele>
        <time>2013-07-10T09:02:32Z</time>
      </trkpt>
      <trkpt lat="46.25006" lon="4.42901">
        <ele>534</ele>
        <time>2013-07-10T09:02:33Z</time>
      </trkpt>
      <trkpt lat="46.25008" lon="4.429">
        <ele>534.1</ele>
        <time>2013-07-10T09:02:34Z</time>
      </trkpt>
      <trkpt lat="46.2501" lon="4.429">
        <ele>534.2</ele>
        <time>2013-07-10T09:02:35Z</time>
      </trkpt>
      <trkpt lat="46.25013" lon="4.429">
        <ele>534.3</ele>
        <time>2013-07-10T09:02:36Z</time>
      </trkpt>
      <trkpt lat="46.25015" lon="4.429">
        <ele>534.3</ele>
        <time>2013-07-10T09:02:37Z</time>
      </trkpt>
      <trkpt lat="46.25017" lon="4.429">
        <ele>534.5</ele>
        <time>2013-07-10T09:02:38Z</time>
      </trkpt>
      <trkpt lat="46.2502" lon="4.429">
        <ele>534.6</ele>
        <time>2013-07-10T09:02:39Z</time>
      </trkpt>
      <trkpt lat="46.25022" lon="4.429">
        <ele>534.7</ele>
        <time>2013-07-10T09:02:40Z</time>
      </trkpt>
      <trkpt lat="46.25024" lon="4.429">
        <ele>534.9</ele>
        <time>2013-07-10T09:02:41Z</time>
      </trkpt>
      <trkpt lat="46.25026" lon="4.42901">
        <ele>535</ele>
        <time>2013-07-10T09:02:42Z</time>
      </trkpt>
      <trkpt lat="46.25029" lon="4.42901">
        <ele>535.2</ele>
        <time>2013-07-10T09:02:43Z</time>
      </trkpt>
      <trkpt lat="46.25031" lon="4.42901">
        <ele>535.3</ele>
        <time>2013-07-10T09:02:44Z</time>
      </trkpt>
      <trkpt lat="46.25033" lon="4.42901">
        <ele>535.5</ele>
        <time>2013-07-10T09:02:45Z</time>
      </trkpt>
      <trkpt lat="46.25036" lon="4.42901">
        <ele>535.7</ele>
        <time>2013-07-10T09:02:46Z</time>
      </trkpt>
      <trkpt lat="46.25038" lon="4.42901">
        <ele>535.8</ele>
        <time>2013-07-10T09:02:47Z</time>
      </trkpt>
      <trkpt lat="46.25038" lon="4.42901">
        <ele>535.8</ele>
        <time>2013-07-10T09:02:48Z</time>
      </trkpt>
      <trkpt lat="46.25043" lon="4.42901">
        <ele>536.1</ele>
        <time>2013-07-10T09:02:49Z</time>
      </trkpt>
      <trkpt lat="46.25045" lon="4.42901">
        <ele>536.1</ele>
        <time>2013-07-10T09:02:50Z</time>
      </trkpt>
      <trkpt lat="46.25046" lon="4.42901">
        <ele>536.2</ele>
        <time>2013-07-10T09:02:51Z</time>
      </trkpt>
      <trkpt lat="46.25048" lon="4.42901">
        <ele>536.3</ele>
        <time>2013-07-10T09:02:52Z</time>
      </trkpt>
      <trkpt lat="46.25048" lon="4.42901">
        <ele>536.3</ele>
        <time>2013-07-10T09:02:53Z</time>
      </trkpt>
      <trkpt lat="46.25048" lon="4.42901">
        <ele>536.4</ele>
        <time>2013-07-10T09:02:54Z</time>
      </trkpt>
      <trkpt lat="46.25048" lon="4.42901">
        <ele>536.3</ele>
        <time>2013-07-10T09:02:55Z</time>
      </trkpt>
      <trkpt lat="46.25048" lon="4.42901">
        <ele>536.4</ele>
        <time>2013-07-10T09:02:56Z</time>
      </trkpt>
      <trkpt lat="46.25048" lon="4.42901">
        <ele>536.4</ele>
        <time>2013-07-10T09:02:57Z</time>
      </trkpt>
      <trkpt lat="46.25048" lon="4.42901">
        <ele>536.3</ele>
        <time>2013-07-10T09:02:58Z</time>
      </trkpt>
      <trkpt lat="46.25048" lon="4.42901">
        <ele>536.3</ele>
        <time>2013-07-10T09:02:59Z</time>
      </trkpt>
      <trkpt lat="46.25048" lon="4.42901">
        <ele>536.3</ele>
        <time>2013-07-10T09:03:00Z</time>
      </trkpt>
      <trkpt lat="46.25049" lon="4.42901">
        <ele>536.3</ele>
        <time>2013-07-10T09:03:01Z</time>
      </trkpt>
      <trkpt lat="46.25049" lon="4.42901">
        <ele>536.3</ele>
        <time>2013-07-10T09:03:02Z</time>
      </trkpt>
      <trkpt lat="46.25049" lon="4.42901">
        <ele>536.3</ele>
        <time>2013-07-10T09:03:03Z</time>
      </trkpt>
      <trkpt lat="46.25049" lon="4.42901">
        <ele>536.3</ele>
        <time>2013-07-10T09:03:04Z</time>
      </trkpt>
      <trkpt lat="46.25049" lon="4.42901">
        <ele>536.3</ele>
        <time>2013-07-10T09:03:05Z</time>
      </trkpt>
      <trkpt lat="46.25049" lon="4.42901">
        <ele>536.3</ele>
        <time>2013-07-10T09:03:06Z</time>
      </trkpt>
      <trkpt lat="46.25049" lon="4.42901">
        <ele>536.3</ele>
        <time>2013-07-10T09:03:07Z</time>
      </trkpt>
      <trkpt lat="46.25049" lon="4.42901">
        <ele>536.3</ele>
        <time>2013-07-10T09:03:08Z</time>
      </trkpt>
      <trkpt lat="46.25049" lon="4.42901">
        <ele>536.3</ele>
        <time>2013-07-10T09:03:09Z</time>
      </trkpt>
      <trkpt lat="46.25049" lon="4.42901">
        <ele>536.3</ele>
        <time>2013-07-10T09:03:10Z</time>
      </trkpt>
      <trkpt lat="46.25049" lon="4.42901">
        <ele>536.3</ele>
        <time>2013-07-10T09:03:11Z</time>
      </trkpt>
      <trkpt lat="46.25049" lon="4.42901">
        <ele>536.3</ele>
        <time>2013-07-10T09:03:12Z</time>
      </trkpt>
      <trkpt lat="46.25049" lon="4.42901">
        <ele>536.3</ele>
        <time>2013-07-10T09:03:13Z</time>
      </trkpt>
      <trkpt lat="46.25049" lon="4.42901">
        <ele>536.4</ele>
        <time>2013-07-10T09:03:14Z</time>
      </trkpt>
      <trkpt lat="46.25049" lon="4.42901">
        <ele>536.4</ele>
        <time>2013-07-10T09:03:15Z</time>
      </trkpt>
      <trkpt lat="46.25049" lon="4.42901">
        <ele>536.3</ele>
        <time>2013-07-10T09:03:16Z</time>
      </trkpt>
      <trkpt lat="46.25049" lon="4.42901">
        <ele>536.3</ele>
        <time>2013-07-10T09:03:17Z</time>
      </trkpt>
      <trkpt lat="46.25049" lon="4.42901">
        <ele>536.3</ele>
        <time>2013-07-10T09:03:18Z</time>
      </trkpt>
      <trkpt lat="46.25049" lon="4.42901">
        <ele>536.3</ele>
        <time>2013-07-10T09:03:19Z</time>
      </trkpt>
      <trkpt lat="46.2505" lon="4.42901">
        <ele>536.4</ele>
        <time>2013-07-10T09:03:20Z</time>
      </trkpt>
      <trkpt lat="46.2505" lon="4.42901">
        <ele>536.4</ele>
        <time>2013-07-10T09:03:21Z</time>
      </trkpt>
      <trkpt lat="46.2505" lon="4.429">
        <ele>536.3</ele>
        <time>2013-07-10T09:03:22Z</time>
      </trkpt>
      <trkpt lat="46.2505" lon="4.429">
        <ele>536.3</ele>
        <time>2013-07-10T09:03:23Z</time>
      </trkpt>
      <trkpt lat="46.2505" lon="4.429">
        <ele>536.3</ele>
        <time>2013-07-10T09:03:24Z</time>
      </trkpt>
      <trkpt lat="46.2505" lon="4.429">
        <ele>536.3</ele>
        <time>2013-07-10T09:03:25Z</time>
      </trkpt>
      <trkpt lat="46.2505" lon="4.429">
        <ele>536.3</ele>
        <time>2013-07-10T09:03:26Z</time>
      </trkpt>
      <trkpt lat="46.2505" lon="4.429">
        <ele>536.3</ele>
        <time>2013-07-10T09:03:27Z</time>
      </trkpt>
      <trkpt lat="46.2505" lon="4.429">
        <ele>536.3</ele>
        <time>2013-07-10T09:03:28Z</time>
      </trkpt>
      <trkpt lat="46.2505" lon="4.429">
        <ele>536.3</ele>
        <time>2013-07-10T09:03:29Z</time>
      </trkpt>
      <trkpt lat="46.2505" lon="4.429">
        <ele>536.3</ele>
        <time>2013-07-10T09:03:30Z</time>
      </trkpt>
      <trkpt lat="46.2505" lon="4.429">
        <ele>536.3</ele>
        <time>2013-07-10T09:03:31Z</time>
      </trkpt>
      <trkpt lat="46.2505" lon="4.429">
        <ele>536.3</ele>
        <time>2013-07-10T09:03:32Z</time>
      </trkpt>
      <trkpt lat="46.2505" lon="4.429">
        <ele>536.3</ele>
        <time>2013-07-10T09:03:33Z</time>
      </trkpt>
      <trkpt lat="46.2505" lon="4.429">
        <ele>536.3</ele>
        <time>2013-07-10T09:03:34Z</time>
      </trkpt>
      <trkpt lat="46.2505" lon="4.429">
        <ele>536.3</ele>
        <time>2013-07-10T09:03:35Z</time>
      </trkpt>
      <trkpt lat="46.2505" lon="4.429">
        <ele>536.3</ele>
        <time>2013-07-10T09:03:36Z</time>
      </trkpt>
      <trkpt lat="46.25051" lon="4.429">
        <ele>536.4</ele>
        <time>2013-07-10T09:03:37Z</time>
      </trkpt>
      <trkpt lat="46.25052" lon="4.429">
        <ele>536.4</ele>
        <time>2013-07-10T09:03:38Z</time>
      </trkpt>
      <trkpt lat="46.25054" lon="4.429">
        <ele>536.5</ele>
        <time>2013-07-10T09:03:39Z</time>
      </trkpt>
      <trkpt lat="46.25056" lon="4.429">
        <ele>536.6</ele>
        <time>2013-07-10T09:03:40Z</time>
      </trkpt>
      <trkpt lat="46.25058" lon="4.429">
        <ele>536.7</ele>
        <time>2013-07-10T09:03:41Z</time>
      </trkpt>
      <trkpt lat="46.2506" lon="4.429">
        <ele>536.8</ele>
        <time>2013-07-10T09:03:42Z</time>
      </trkpt>
      <trkpt lat="46.25062" lon="4.429">
        <ele>536.9</ele>
        <time>2013-07-10T09:03:43Z</time>
      </trkpt>
      <trkpt lat="46.25064" lon="4.42901">
        <ele>537</ele>
        <time>2013-07-10T09:03:44Z</time>
      </trkpt>
      <trkpt lat="46.25066" lon="4.42901">
        <ele>537.1</ele>
        <time>2013-07-10T09:03:45Z</time>
      </trkpt>
      <trkpt lat="46.25068" lon="4.42901">
        <ele>537.2</ele>
        <time>2013-07-10T09:03:46Z</time>
      </trkpt>
      <trkpt lat="46.25071" lon="4.42902">
        <ele>537.4</ele>
        <time>2013-07-10T09:03:47Z</time>
      </trkpt>
      <trkpt lat="46.25071" lon="4.42902">
        <ele>537.4</ele>
        <time>2013-07-10T09:03:48Z</time>
      </trkpt>
      <trkpt lat="46.25075" lon="4.42902">
        <ele>537.5</ele>
        <time>2013-07-10T09:03:49Z</time>
      </trkpt>
      <trkpt lat="46.25078" lon="4.42902">
        <ele>537.7</ele>
        <time>2013-07-10T09:03:50Z</time>
      </trkpt>
      <trkpt lat="46.2508" lon="4.42902">
        <ele>537.7</ele>
        <time>2013-07-10T09:03:51Z</time>
      </trkpt>
      <trkpt lat="46.25083" lon="4.42902">
        <ele>537.9</ele>
        <time>2013-07-10T09:03:52Z</time>
      </trkpt>
      <trkpt lat="46.25085" lon="4.42902">
        <ele>537.9</ele>
        <time>2013-07-10T09:03:53Z</time>
      </trkpt>
      <trkpt lat="46.25087" lon="4.42902">
        <ele>538</ele>
        <time>2013-07-10T09:03:54Z</time>
      </trkpt>
      <trkpt lat="46.2509" lon="4.42902">
        <ele>538</ele>
        <time>2013-07-10T09:03:55Z</time>
      </trkpt>
      <trkpt lat="46.25092" lon="4.42902">
        <ele>538</ele>
        <time>2013-07-10T09:03:56Z</time>
      </trkpt>
      <trkpt lat="46.25094" lon="4.42902">
        <ele>538</ele>
        <time>2013-07-10T09:03:57Z</time>
      </trkpt>
      <trkpt lat="46.25097" lon="4.42901">
        <ele>538</ele>
        <time>2013-07-10T09:03:58Z</time>
      </trkpt>
      <trkpt lat="46.25099" lon="4.42901">
        <ele>538</ele>
        <time>2013-07-10T09:03:59Z</time>
      </trkpt>
      <trkpt lat="46.25102" lon="4.42901">
        <ele>538</ele>
        <time>2013-07-10T09:04:00Z</time>
      </trkpt>
      <trkpt lat="46.25104" lon="4.42901">
        <ele>538.1</ele>
        <time>2013-07-10T09:04:01Z</time>
      </trkpt>
      <trkpt lat="46.25107" lon="4.42901">
        <ele>538.1</ele>
        <time>2013-07-10T09:04:02Z</time>
      </trkpt>
      <trkpt lat="46.2511" lon="4.42901">
        <ele>538.2</ele>
        <time>2013-07-10T09:04:03Z</time>
      </trkpt>
      <trkpt lat="46.25112" lon="4.42901">
        <ele>538.2</ele>
        <time>2013-07-10T09:04:04Z</time>
      </trkpt>
      <trkpt lat="46.25115" lon="4.42901">
        <ele>538.3</ele>
        <time>2013-07-10T09:04:05Z</time>
      </trkpt>
      <trkpt lat="46.25118" lon="4.42901">
        <ele>538.5</ele>
        <time>2013-07-10T09:04:06Z</time>
      </trkpt>
      <trkpt lat="46.25121" lon="4.429">
        <ele>538.6</ele>
        <time>2013-07-10T09:04:07Z</time>
      </trkpt>
      <trkpt lat="46.25123" lon="4.429">
        <ele>538.7</ele>
        <time>2013-07-10T09:04:08Z</time>
      </trkpt>
      <trkpt lat="46.25126" lon="4.42899">
        <ele>538.8</ele>
        <time>2013-07-10T09:04:09Z</time>
      </trkpt>
      <trkpt lat="46.25129" lon="4.42899">
        <ele>538.8</ele>
        <time>2013-07-10T09:04:10Z</time>
      </trkpt>
      <trkpt lat="46.25131" lon="4.42898">
        <ele>538.9</ele>
        <time>2013-07-10T09:04:11Z</time>
      </trkpt>
      <trkpt lat="46.25134" lon="4.42898">
        <ele>538.9</ele>
        <time>2013-07-10T09:04:12Z</time>
      </trkpt>
      <trkpt lat="46.25137" lon="4.42897">
        <ele>539</ele>
        <time>2013-07-10T09:04:13Z</time>
      </trkpt>
      <trkpt lat="46.25139" lon="4.42897">
        <ele>539.2</ele>
        <time>2013-07-10T09:04:14Z</time>
      </trkpt>
      <trkpt lat="46.25142" lon="4.42897">
        <ele>539.2</ele>
        <time>2013-07-10T09:04:15Z</time>
      </trkpt>
      <trkpt lat="46.25145" lon="4.42897">
        <ele>539.3</ele>
        <time>2013-07-10T09:04:16Z</time>
      </trkpt>
      <trkpt lat="46.25147" lon="4.42896">
        <ele>539.2</ele>
        <time>2013-07-10T09:04:17Z</time>
      </trkpt>
      <trkpt lat="46.2515" lon="4.42896">
        <ele>539.2</ele>
        <time>2013-07-10T09:04:18Z</time>
      </trkpt>
      <trkpt lat="46.25152" lon="4.42895">
        <ele>539.3</ele>
        <time>2013-07-10T09:04:19Z</time>
      </trkpt>
      <trkpt lat="46.25155" lon="4.42894">
        <ele>539.2</ele>
        <time>2013-07-10T09:04:20Z</time>
      </trkpt>
      <trkpt lat="46.25157" lon="4.42894">
        <ele>539.2</ele>
        <time>2013-07-10T09:04:21Z</time>
      </trkpt>
      <trkpt lat="46.2516" lon="4.42893">
        <ele>539.2</ele>
        <time>2013-07-10T09:04:22Z</time>
      </trkpt>
      <trkpt lat="46.25162" lon="4.42893">
        <ele>539.3</ele>
        <time>2013-07-10T09:04:23Z</time>
      </trkpt>
      <trkpt lat="46.25164" lon="4.42892">
        <ele>539.3</ele>
        <time>2013-07-10T09:04:24Z</time>
      </trkpt>
      <trkpt lat="46.25167" lon="4.42892">
        <ele>539.3</ele>
        <time>2013-07-10T09:04:25Z</time>
      </trkpt>
      <trkpt lat="46.25169" lon="4.42891">
        <ele>539.2</ele>
        <time>2013-07-10T09:04:26Z</time>
      </trkpt>
      <trkpt lat="46.25171" lon="4.42891">
        <ele>539.2</ele>
        <time>2013-07-10T09:04:27Z</time>
      </trkpt>
      <trkpt lat="46.25174" lon="4.4289">
        <ele>539.1</ele>
        <time>2013-07-10T09:04:28Z</time>
      </trkpt>
      <trkpt lat="46.25176" lon="4.4289">
        <ele>539.1</ele>
        <time>2013-07-10T09:04:29Z</time>
      </trkpt>
      <trkpt lat="46.25179" lon="4.42889">
        <ele>539</ele>
        <time>2013-07-10T09:04:30Z</time>
      </trkpt>
      <trkpt lat="46.25181" lon="4.42889">
        <ele>539</ele>
        <time>2013-07-10T09:04:31Z</time>
      </trkpt>
      <trkpt lat="46.25184" lon="4.42888">
        <ele>538.9</ele>
        <time>2013-07-10T09:04:32Z</time>
      </trkpt>
      <trkpt lat="46.25186" lon="4.42888">
        <ele>538.9</ele>
        <time>2013-07-10T09:04:33Z</time>
      </trkpt>
      <trkpt lat="46.25189" lon="4.42888">
        <ele>538.9</ele>
        <time>2013-07-10T09:04:34Z</time>
      </trkpt>
      <trkpt lat="46.25191" lon="4.42887">
        <ele>538.8</ele>
        <time>2013-07-10T09:04:35Z</time>
      </trkpt>
      <trkpt lat="46.25193" lon="4.42887">
        <ele>538.8</ele>
        <time>2013-07-10T09:04:36Z</time>
      </trkpt>
      <trkpt lat="46.25196" lon="4.42887">
        <ele>538.7</ele>
        <time>2013-07-10T09:04:37Z</time>
      </trkpt>
      <trkpt lat="46.25198" lon="4.42887">
        <ele>538.5</ele>
        <time>2013-07-10T09:04:38Z</time>
      </trkpt>
      <trkpt lat="46.25201" lon="4.42886">
        <ele>538.3</ele>
        <time>2013-07-10T09:04:39Z</time>
      </trkpt>
      <trkpt lat="46.25203" lon="4.42887">
        <ele>538.2</ele>
        <time>2013-07-10T09:04:40Z</time>
      </trkpt>
      <trkpt lat="46.25205" lon="4.42887">
        <ele>538.1</ele>
        <time>2013-07-10T09:04:41Z</time>
      </trkpt>
      <trkpt lat="46.25207" lon="4.42887">
        <ele>538</ele>
        <time>2013-07-10T09:04:42Z</time>
      </trkpt>
      <trkpt lat="46.25209" lon="4.42889">
        <ele>537.9</ele>
        <time>2013-07-10T09:04:43Z</time>
      </trkpt>
      <trkpt lat="46.25211" lon="4.4289">
        <ele>537.9</ele>
        <time>2013-07-10T09:04:44Z</time>
      </trkpt>
      <trkpt lat="46.25214" lon="4.42891">
        <ele>537.8</ele>
        <time>2013-07-10T09:04:45Z</time>
      </trkpt>
      <trkpt lat="46.25216" lon="4.42892">
        <ele>537.6</ele>
        <time>2013-07-10T09:04:46Z</time>
      </trkpt>
      <trkpt lat="46.25219" lon="4.42893">
        <ele>537.5</ele>
        <time>2013-07-10T09:04:47Z</time>
      </trkpt>
      <trkpt lat="46.25219" lon="4.42893">
        <ele>537.5</ele>
        <time>2013-07-10T09:04:48Z</time>
      </trkpt>
      <trkpt lat="46.25224" lon="4.42897">
        <ele>537.3</ele>
        <time>2013-07-10T09:04:49Z</time>
      </trkpt>
      <trkpt lat="46.25226" lon="4.42899">
        <ele>537</ele>
        <time>2013-07-10T09:04:50Z</time>
      </trkpt>
      <trkpt lat="46.25229" lon="4.42902">
        <ele>536.8</ele>
        <time>2013-07-10T09:04:51Z</time>
      </trkpt>
      <trkpt lat="46.25231" lon="4.42905">
        <ele>536.6</ele>
        <time>2013-07-10T09:04:52Z</time>
      </trkpt>
      <trkpt lat="46.25233" lon="4.42908">
        <ele>536.3</ele>
        <time>2013-07-10T09:04:53Z</time>
      </trkpt>
      <trkpt lat="46.25235" lon="4.42911">
        <ele>536</ele>
        <time>2013-07-10T09:04:54Z</time>
      </trkpt>
      <trkpt lat="46.25237" lon="4.42914">
        <ele>535.7</ele>
        <time>2013-07-10T09:04:55Z</time>
      </trkpt>
      <trkpt lat="46.2524" lon="4.42917">
        <ele>535.3</ele>
        <time>2013-07-10T09:04:56Z</time>
      </trkpt>
      <trkpt lat="46.25242" lon="4.4292">
        <ele>534.9</ele>
        <time>2013-07-10T09:04:57Z</time>
      </trkpt>
      <trkpt lat="46.25244" lon="4.42923">
        <ele>534.7</ele>
        <time>2013-07-10T09:04:58Z</time>
      </trkpt>
      <trkpt lat="46.25246" lon="4.42926">
        <ele>534.3</ele>
        <time>2013-07-10T09:04:59Z</time>
      </trkpt>
      <trkpt lat="46.25248" lon="4.42929">
        <ele>533.8</ele>
        <time>2013-07-10T09:05:00Z</time>
      </trkpt>
      <trkpt lat="46.25251" lon="4.42932">
        <ele>533.5</ele>
        <time>2013-07-10T09:05:01Z</time>
      </trkpt>
      <trkpt lat="46.25254" lon="4.42934">
        <ele>533.4</ele>
        <time>2013-07-10T09:05:02Z</time>
      </trkpt>
      <trkpt lat="46.25257" lon="4.42937">
        <ele>533.3</ele>
        <time>2013-07-10T09:05:03Z</time>
      </trkpt>
      <trkpt lat="46.2526" lon="4.42939">
        <ele>533.3</ele>
        <time>2013-07-10T09:05:04Z</time>
      </trkpt>
      <trkpt lat="46.25262" lon="4.42942">
        <ele>533.4</ele>
        <time>2013-07-10T09:05:05Z</time>
      </trkpt>
      <trkpt lat="46.25265" lon="4.42943">
        <ele>533.3</ele>
        <time>2013-07-10T09:05:06Z</time>
      </trkpt>
      <trkpt lat="46.25268" lon="4.42944">
        <ele>533.3</ele>
        <time>2013-07-10T09:05:07Z</time>
      </trkpt>
      <trkpt lat="46.25271" lon="4.42945">
        <ele>533.3</ele>
        <time>2013-07-10T09:05:08Z</time>
      </trkpt>
      <trkpt lat="46.25274" lon="4.42946">
        <ele>533.3</ele>
        <time>2013-07-10T09:05:09Z</time>
      </trkpt>
      <trkpt lat="46.25277" lon="4.42946">
        <ele>533.1</ele>
        <time>2013-07-10T09:05:10Z</time>
      </trkpt>
      <trkpt lat="46.2528" lon="4.42945">
        <ele>533</ele>
        <time>2013-07-10T09:05:11Z</time>
      </trkpt>
      <trkpt lat="46.25284" lon="4.42945">
        <ele>532.8</ele>
        <time>2013-07-10T09:05:12Z</time>
      </trkpt>
      <trkpt lat="46.25286" lon="4.42944">
        <ele>532.6</ele>
        <time>2013-07-10T09:05:13Z</time>
      </trkpt>
      <trkpt lat="46.25289" lon="4.42943">
        <ele>532.4</ele>
        <time>2013-07-10T09:05:14Z</time>
      </trkpt>
      <trkpt lat="46.25292" lon="4.42942">
        <ele>532.2</ele>
        <time>2013-07-10T09:05:15Z</time>
      </trkpt>
      <trkpt lat="46.25296" lon="4.4294">
        <ele>531.9</ele>
        <time>2013-07-10T09:05:16Z</time>
      </trkpt>
      <trkpt lat="46.25298" lon="4.42939">
        <ele>531.7</ele>
        <time>2013-07-10T09:05:17Z</time>
      </trkpt>
      <trkpt lat="46.25301" lon="4.42938">
        <ele>531.4</ele>
        <time>2013-07-10T09:05:18Z</time>
      </trkpt>
      <trkpt lat="46.25305" lon="4.42936">
        <ele>531.1</ele>
        <time>2013-07-10T09:05:19Z</time>
      </trkpt>
      <trkpt lat="46.25308" lon="4.42934">
        <ele>530.9</ele>
        <time>2013-07-10T09:05:20Z</time>
      </trkpt>
      <trkpt lat="46.25311" lon="4.42932">
        <ele>530.7</ele>
        <time>2013-07-10T09:05:21Z</time>
      </trkpt>
      <trkpt lat="46.25315" lon="4.42931">
        <ele>530.5</ele>
        <time>2013-07-10T09:05:22Z</time>
      </trkpt>
      <trkpt lat="46.25318" lon="4.42929">
        <ele>530.3</ele>
        <time>2013-07-10T09:05:23Z</time>
      </trkpt>
      <trkpt lat="46.25322" lon="4.42927">
        <ele>530.1</ele>
        <time>2013-07-10T09:05:24Z</time>
      </trkpt>
      <trkpt lat="46.25326" lon="4.42926">
        <ele>530</ele>
        <time>2013-07-10T09:05:25Z</time>
      </trkpt>
      <trkpt lat="46.25329" lon="4.42924">
        <ele>529.8</ele>
        <time>2013-07-10T09:05:26Z</time>
      </trkpt>
      <trkpt lat="46.25333" lon="4.42922">
        <ele>529.6</ele>
        <time>2013-07-10T09:05:27Z</time>
      </trkpt>
      <trkpt lat="46.25337" lon="4.42921">
        <ele>529.3</ele>
        <time>2013-07-10T09:05:28Z</time>
      </trkpt>
      <trkpt lat="46.2534" lon="4.4292">
        <ele>528.9</ele>
        <time>2013-07-10T09:05:29Z</time>
      </trkpt>
      <trkpt lat="46.25344" lon="4.42919">
        <ele>528.5</ele>
        <time>2013-07-10T09:05:30Z</time>
      </trkpt>
      <trkpt lat="46.25347" lon="4.42918">
        <ele>528.1</ele>
        <time>2013-07-10T09:05:31Z</time>
      </trkpt>
      <trkpt lat="46.25351" lon="4.42917">
        <ele>527.8</ele>
        <time>2013-07-10T09:05:32Z</time>
      </trkpt>
      <trkpt lat="46.25354" lon="4.42917">
        <ele>527.5</ele>
        <time>2013-07-10T09:05:33Z</time>
      </trkpt>
      <trkpt lat="46.25357" lon="4.42916">
        <ele>527.2</ele>
        <time>2013-07-10T09:05:34Z</time>
      </trkpt>
      <trkpt lat="46.25361" lon="4.42915">
        <ele>526.8</ele>
        <time>2013-07-10T09:05:35Z</time>
      </trkpt>
      <trkpt lat="46.25364" lon="4.42915">
        <ele>526.6</ele>
        <time>2013-07-10T09:05:36Z</time>
      </trkpt>
      <trkpt lat="46.25368" lon="4.42914">
        <ele>526.3</ele>
        <time>2013-07-10T09:05:37Z</time>
      </trkpt>
      <trkpt lat="46.25371" lon="4.42914">
        <ele>526</ele>
        <time>2013-07-10T09:05:38Z</time>
      </trkpt>
      <trkpt lat="46.25375" lon="4.42915">
        <ele>525.8</ele>
        <time>2013-07-10T09:05:39Z</time>
      </trkpt>
      <trkpt lat="46.25379" lon="4.42915">
        <ele>525.6</ele>
        <time>2013-07-10T09:05:40Z</time>
      </trkpt>
      <trkpt lat="46.25382" lon="4.42916">
        <ele>525.4</ele>
        <time>2013-07-10T09:05:41Z</time>
      </trkpt>
      <trkpt lat="46.25386" lon="4.42917">
        <ele>525.2</ele>
        <time>2013-07-10T09:05:42Z</time>
      </trkpt>
      <trkpt lat="46.2539" lon="4.42918">
        <ele>525.1</ele>
        <time>2013-07-10T09:05:43Z</time>
      </trkpt>
      <trkpt lat="46.25393" lon="4.42919">
        <ele>525.1</ele>
        <time>2013-07-10T09:05:44Z</time>
      </trkpt>
      <trkpt lat="46.25396" lon="4.42921">
        <ele>525</ele>
        <time>2013-07-10T09:05:45Z</time>
      </trkpt>
      <trkpt lat="46.254" lon="4.42922">
        <ele>524.8</ele>
        <time>2013-07-10T09:05:46Z</time>
      </trkpt>
      <trkpt lat="46.25403" lon="4.42923">
        <ele>524.7</ele>
        <time>2013-07-10T09:05:47Z</time>
      </trkpt>
      <trkpt lat="46.25406" lon="4.42924">
        <ele>524.5</ele>
        <time>2013-07-10T09:05:48Z</time>
      </trkpt>
      <trkpt lat="46.25409" lon="4.42925">
        <ele>524.3</ele>
        <time>2013-07-10T09:05:49Z</time>
      </trkpt>
      <trkpt lat="46.25412" lon="4.42926">
        <ele>524.1</ele>
        <time>2013-07-10T09:05:50Z</time>
      </trkpt>
      <trkpt lat="46.25415" lon="4.42927">
        <ele>523.9</ele>
        <time>2013-07-10T09:05:51Z</time>
      </trkpt>
      <trkpt lat="46.25419" lon="4.42927">
        <ele>523.4</ele>
        <time>2013-07-10T09:05:52Z</time>
      </trkpt>
      <trkpt lat="46.25422" lon="4.42928">
        <ele>522.8</ele>
        <time>2013-07-10T09:05:53Z</time>
      </trkpt>
      <trkpt lat="46.25425" lon="4.42928">
        <ele>522.2</ele>
        <time>2013-07-10T09:05:54Z</time>
      </trkpt>
      <trkpt lat="46.25429" lon="4.42929">
        <ele>521.5</ele>
        <time>2013-07-10T09:05:55Z</time>
      </trkpt>
      <trkpt lat="46.25432" lon="4.42928">
        <ele>520.9</ele>
        <time>2013-07-10T09:05:56Z</time>
      </trkpt>
      <trkpt lat="46.25435" lon="4.42928">
        <ele>520.2</ele>
        <time>2013-07-10T09:05:57Z</time>
      </trkpt>
      <trkpt lat="46.25438" lon="4.42927">
        <ele>519.6</ele>
        <time>2013-07-10T09:05:58Z</time>
      </trkpt>
      <trkpt lat="46.25442" lon="4.42926">
        <ele>518.9</ele>
        <time>2013-07-10T09:05:59Z</time>
      </trkpt>
      <trkpt lat="46.25445" lon="4.42925">
        <ele>518.3</ele>
        <time>2013-07-10T09:06:00Z</time>
      </trkpt>
      <trkpt lat="46.25448" lon="4.42924">
        <ele>518.6</ele>
        <time>2013-07-10T09:06:01Z</time>
      </trkpt>
      <trkpt lat="46.2545" lon="4.42922">
        <ele>518.8</ele>
        <time>2013-07-10T09:06:02Z</time>
      </trkpt>
      <trkpt lat="46.25453" lon="4.4292">
        <ele>519</ele>
        <time>2013-07-10T09:06:03Z</time>
      </trkpt>
      <trkpt lat="46.25455" lon="4.42917">
        <ele>519.2</ele>
        <time>2013-07-10T09:06:04Z</time>
      </trkpt>
      <trkpt lat="46.25458" lon="4.42915">
        <ele>519.2</ele>
        <time>2013-07-10T09:06:05Z</time>
      </trkpt>
      <trkpt lat="46.2546" lon="4.42912">
        <ele>519</ele>
        <time>2013-07-10T09:06:06Z</time>
      </trkpt>
      <trkpt lat="46.25462" lon="4.42909">
        <ele>518.8</ele>
        <time>2013-07-10T09:06:07Z</time>
      </trkpt>
      <trkpt lat="46.25464" lon="4.42906">
        <ele>518.6</ele>
        <time>2013-07-10T09:06:08Z</time>
      </trkpt>
      <trkpt lat="46.25466" lon="4.42903">
        <ele>518.4</ele>
        <time>2013-07-10T09:06:09Z</time>
      </trkpt>
      <trkpt lat="46.25468" lon="4.429">
        <ele>518.2</ele>
        <time>2013-07-10T09:06:10Z</time>
      </trkpt>
      <trkpt lat="46.2547" lon="4.42897">
        <ele>517.9</ele>
        <time>2013-07-10T09:06:11Z</time>
      </trkpt>
      <trkpt lat="46.25472" lon="4.42893">
        <ele>517.6</ele>
        <time>2013-07-10T09:06:12Z</time>
      </trkpt>
      <trkpt lat="46.25474" lon="4.4289">
        <ele>517.4</ele>
        <time>2013-07-10T09:06:13Z</time>
      </trkpt>
      <trkpt lat="46.25476" lon="4.42887">
        <ele>517.2</ele>
        <time>2013-07-10T09:06:14Z</time>
      </trkpt>
      <trkpt lat="46.25477" lon="4.42883">
        <ele>517.1</ele>
        <time>2013-07-10T09:06:15Z</time>
      </trkpt>
      <trkpt lat="46.25479" lon="4.4288">
        <ele>517</ele>
        <time>2013-07-10T09:06:16Z</time>
      </trkpt>
      <trkpt lat="46.25481" lon="4.42877">
        <ele>516.9</ele>
        <time>2013-07-10T09:06:17Z</time>
      </trkpt>
      <trkpt lat="46.25483" lon="4.42873">
        <ele>516.8</ele>
        <time>2013-07-10T09:06:18Z</time>
      </trkpt>
      <trkpt lat="46.25485" lon="4.4287">
        <ele>516.7</ele>
        <time>2013-07-10T09:06:19Z</time>
      </trkpt>
      <trkpt lat="46.25488" lon="4.42867">
        <ele>516.6</ele>
        <time>2013-07-10T09:06:20Z</time>
      </trkpt>
      <trkpt lat="46.2549" lon="4.42863">
        <ele>516.5</ele>
        <time>2013-07-10T09:06:21Z</time>
      </trkpt>
      <trkpt lat="46.25493" lon="4.4286">
        <ele>516.3</ele>
        <time>2013-07-10T09:06:22Z</time>
      </trkpt>
      <trkpt lat="46.25495" lon="4.42857">
        <ele>516.1</ele>
        <time>2013-07-10T09:06:23Z</time>
      </trkpt>
      <trkpt lat="46.25497" lon="4.42854">
        <ele>515.8</ele>
        <time>2013-07-10T09:06:24Z</time>
      </trkpt>
      <trkpt lat="46.255" lon="4.42851">
        <ele>515.6</ele>
        <time>2013-07-10T09:06:25Z</time>
      </trkpt>
      <trkpt lat="46.25503" lon="4.42849">
        <ele>515.2</ele>
        <time>2013-07-10T09:06:26Z</time>
      </trkpt>
      <trkpt lat="46.25506" lon="4.42847">
        <ele>514.8</ele>
        <time>2013-07-10T09:06:27Z</time>
      </trkpt>
      <trkpt lat="46.25509" lon="4.42845">
        <ele>514.5</ele>
        <time>2013-07-10T09:06:28Z</time>
      </trkpt>
      <trkpt lat="46.25512" lon="4.42843">
        <ele>514.1</ele>
        <time>2013-07-10T09:06:29Z</time>
      </trkpt>
      <trkpt lat="46.25515" lon="4.42842">
        <ele>513.9</ele>
        <time>2013-07-10T09:06:30Z</time>
      </trkpt>
      <trkpt lat="46.25518" lon="4.42841">
        <ele>513.6</ele>
        <time>2013-07-10T09:06:31Z</time>
      </trkpt>
      <trkpt lat="46.25521" lon="4.4284">
        <ele>513.4</ele>
        <time>2013-07-10T09:06:32Z</time>
      </trkpt>
      <trkpt lat="46.25524" lon="4.42839">
        <ele>513.2</ele>
        <time>2013-07-10T09:06:33Z</time>
      </trkpt>
      <trkpt lat="46.25528" lon="4.42839">
        <ele>513</ele>
        <time>2013-07-10T09:06:34Z</time>
      </trkpt>
      <trkpt lat="46.25531" lon="4.42838">
        <ele>512.7</ele>
        <time>2013-07-10T09:06:35Z</time>
      </trkpt>
      <trkpt lat="46.25534" lon="4.42838">
        <ele>512.5</ele>
        <time>2013-07-10T09:06:36Z</time>
      </trkpt>
      <trkpt lat="46.25537" lon="4.42839">
        <ele>512.4</ele>
        <time>2013-07-10T09:06:37Z</time>
      </trkpt>
      <trkpt lat="46.2554" lon="4.42839">
        <ele>512.2</ele>
        <time>2013-07-10T09:06:38Z</time>
      </trkpt>
      <trkpt lat="46.25543" lon="4.42839">
        <ele>512</ele>
        <time>2013-07-10T09:06:39Z</time>
      </trkpt>
      <trkpt lat="46.25546" lon="4.4284">
        <ele>511.8</ele>
        <time>2013-07-10T09:06:40Z</time>
      </trkpt>
      <trkpt lat="46.25549" lon="4.4284">
        <ele>511.6</ele>
        <time>2013-07-10T09:06:41Z</time>
      </trkpt>
      <trkpt lat="46.25552" lon="4.4284">
        <ele>511.4</ele>
        <time>2013-07-10T09:06:42Z</time>
      </trkpt>
      <trkpt lat="46.25556" lon="4.4284">
        <ele>511.2</ele>
        <time>2013-07-10T09:06:43Z</time>
      </trkpt>
      <trkpt lat="46.25559" lon="4.4284">
        <ele>510.9</ele>
        <time>2013-07-10T09:06:44Z</time>
      </trkpt>
      <trkpt lat="46.25562" lon="4.4284">
        <ele>510.7</ele>
        <time>2013-07-10T09:06:45Z</time>
      </trkpt>
      <trkpt lat="46.25565" lon="4.42839">
        <ele>510.4</ele>
        <time>2013-07-10T09:06:46Z</time>
      </trkpt>
      <trkpt lat="46.25568" lon="4.42839">
        <ele>510.1</ele>
        <time>2013-07-10T09:06:47Z</time>
      </trkpt>
      <trkpt lat="46.25568" lon="4.42839">
        <ele>510.1</ele>
        <time>2013-07-10T09:06:48Z</time>
      </trkpt>
      <trkpt lat="46.25575" lon="4.42837">
        <ele>509.6</ele>
        <time>2013-07-10T09:06:49Z</time>
      </trkpt>
      <trkpt lat="46.25577" lon="4.42836">
        <ele>509.4</ele>
        <time>2013-07-10T09:06:50Z</time>
      </trkpt>
      <trkpt lat="46.25579" lon="4.42834">
        <ele>509.2</ele>
        <time>2013-07-10T09:06:51Z</time>
      </trkpt>
      <trkpt lat="46.25582" lon="4.42833">
        <ele>509</ele>
        <time>2013-07-10T09:06:52Z</time>
      </trkpt>
      <trkpt lat="46.25585" lon="4.42831">
        <ele>508.8</ele>
        <time>2013-07-10T09:06:53Z</time>
      </trkpt>
      <trkpt lat="46.25587" lon="4.42828">
        <ele>508.7</ele>
        <time>2013-07-10T09:06:54Z</time>
      </trkpt>
      <trkpt lat="46.2559" lon="4.42825">
        <ele>508.7</ele>
        <time>2013-07-10T09:06:55Z</time>
      </trkpt>
      <trkpt lat="46.25592" lon="4.42821">
        <ele>508.7</ele>
        <time>2013-07-10T09:06:56Z</time>
      </trkpt>
      <trkpt lat="46.25594" lon="4.42818">
        <ele>508.7</ele>
        <time>2013-07-10T09:06:57Z</time>
      </trkpt>
      <trkpt lat="46.25595" lon="4.42814">
        <ele>508.8</ele>
        <time>2013-07-10T09:06:58Z</time>
      </trkpt>
      <trkpt lat="46.25596" lon="4.4281">
        <ele>508.9</ele>
        <time>2013-07-10T09:06:59Z</time>
      </trkpt>
      <trkpt lat="46.25597" lon="4.42806">
        <ele>508.9</ele>
        <time>2013-07-10T09:07:00Z</time>
      </trkpt>
      <trkpt lat="46.25597" lon="4.42802">
        <ele>509.1</ele>
        <time>2013-07-10T09:07:01Z</time>
      </trkpt>
      <trkpt lat="46.25597" lon="4.42798">
        <ele>509.3</ele>
        <time>2013-07-10T09:07:02Z</time>
      </trkpt>
      <trkpt lat="46.25597" lon="4.42794">
        <ele>509.5</ele>
        <time>2013-07-10T09:07:03Z</time>
      </trkpt>
      <trkpt lat="46.25597" lon="4.42789">
        <ele>509.6</ele>
        <time>2013-07-10T09:07:04Z</time>
      </trkpt>
      <trkpt lat="46.25597" lon="4.42785">
        <ele>509.6</ele>
        <time>2013-07-10T09:07:05Z</time>
      </trkpt>
      <trkpt lat="46.25596" lon="4.4278">
        <ele>509.7</ele>
        <time>2013-07-10T09:07:06Z</time>
      </trkpt>
      <trkpt lat="46.25596" lon="4.42776">
        <ele>509.8</ele>
        <time>2013-07-10T09:07:07Z</time>
      </trkpt>
      <trkpt lat="46.25596" lon="4.42771">
        <ele>510.2</ele>
        <time>2013-07-10T09:07:08Z</time>
      </trkpt>
      <trkpt lat="46.25595" lon="4.42767">
        <ele>510.5</ele>
        <time>2013-07-10T09:07:09Z</time>
      </trkpt>
      <trkpt lat="46.25595" lon="4.42762">
        <ele>510.7</ele>
        <time>2013-07-10T09:07:10Z</time>
      </trkpt>
      <trkpt lat="46.25594" lon="4.42758">
        <ele>511</ele>
        <time>2013-07-10T09:07:11Z</time>
      </trkpt>
      <trkpt lat="46.25594" lon="4.42753">
        <ele>511.3</ele>
        <time>2013-07-10T09:07:12Z</time>
      </trkpt>
      <trkpt lat="46.25593" lon="4.42748">
        <ele>511.5</ele>
        <time>2013-07-10T09:07:13Z</time>
      </trkpt>
      <trkpt lat="46.25593" lon="4.42744">
        <ele>511.7</ele>
        <time>2013-07-10T09:07:14Z</time>
      </trkpt>
      <trkpt lat="46.25593" lon="4.4274">
        <ele>511.7</ele>
        <time>2013-07-10T09:07:15Z</time>
      </trkpt>
      <trkpt lat="46.25592" lon="4.42736">
        <ele>511.7</ele>
        <time>2013-07-10T09:07:16Z</time>
      </trkpt>
      <trkpt lat="46.25591" lon="4.42732">
        <ele>511.5</ele>
        <time>2013-07-10T09:07:17Z</time>
      </trkpt>
      <trkpt lat="46.2559" lon="4.42728">
        <ele>511.4</ele>
        <time>2013-07-10T09:07:18Z</time>
      </trkpt>
      <trkpt lat="46.2559" lon="4.42724">
        <ele>511.4</ele>
        <time>2013-07-10T09:07:19Z</time>
      </trkpt>
      <trkpt lat="46.2559" lon="4.4272">
        <ele>511.4</ele>
        <time>2013-07-10T09:07:20Z</time>
      </trkpt>
      <trkpt lat="46.25589" lon="4.42715">
        <ele>511.5</ele>
        <time>2013-07-10T09:07:21Z</time>
      </trkpt>
      <trkpt lat="46.25588" lon="4.42711">
        <ele>511.5</ele>
        <time>2013-07-10T09:07:22Z</time>
      </trkpt>
      <trkpt lat="46.25588" lon="4.42707">
        <ele>511.7</ele>
        <time>2013-07-10T09:07:23Z</time>
      </trkpt>
      <trkpt lat="46.25587" lon="4.42703">
        <ele>511.8</ele>
        <time>2013-07-10T09:07:24Z</time>
      </trkpt>
      <trkpt lat="46.25587" lon="4.42699">
        <ele>512</ele>
        <time>2013-07-10T09:07:25Z</time>
      </trkpt>
      <trkpt lat="46.25587" lon="4.42695">
        <ele>512.1</ele>
        <time>2013-07-10T09:07:26Z</time>
      </trkpt>
      <trkpt lat="46.25586" lon="4.42691">
        <ele>512.3</ele>
        <time>2013-07-10T09:07:27Z</time>
      </trkpt>
      <trkpt lat="46.25585" lon="4.42688">
        <ele>512.4</ele>
        <time>2013-07-10T09:07:28Z</time>
      </trkpt>
      <trkpt lat="46.25584" lon="4.42684">
        <ele>512.5</ele>
        <time>2013-07-10T09:07:29Z</time>
      </trkpt>
      <trkpt lat="46.25584" lon="4.4268">
        <ele>512.7</ele>
        <time>2013-07-10T09:07:30Z</time>
      </trkpt>
      <trkpt lat="46.25583" lon="4.42676">
        <ele>512.9</ele>
        <time>2013-07-10T09:07:31Z</time>
      </trkpt>
      <trkpt lat="46.25582" lon="4.42673">
        <ele>513</ele>
        <time>2013-07-10T09:07:32Z</time>
      </trkpt>
      <trkpt lat="46.25582" lon="4.42669">
        <ele>513.2</ele>
        <time>2013-07-10T09:07:33Z</time>
      </trkpt>
      <trkpt lat="46.25581" lon="4.42666">
        <ele>513.2</ele>
        <time>2013-07-10T09:07:34Z</time>
      </trkpt>
      <trkpt lat="46.2558" lon="4.42662">
        <ele>513.1</ele>
        <time>2013-07-10T09:07:35Z</time>
      </trkpt>
      <trkpt lat="46.25579" lon="4.42659">
        <ele>513</ele>
        <time>2013-07-10T09:07:36Z</time>
      </trkpt>
      <trkpt lat="46.25579" lon="4.42655">
        <ele>512.9</ele>
        <time>2013-07-10T09:07:37Z</time>
      </trkpt>
      <trkpt lat="46.25578" lon="4.42651">
        <ele>512.9</ele>
        <time>2013-07-10T09:07:38Z</time>
      </trkpt>
      <trkpt lat="46.25578" lon="4.42647">
        <ele>512.9</ele>
        <time>2013-07-10T09:07:39Z</time>
      </trkpt>
      <trkpt lat="46.25578" lon="4.42644">
        <ele>512.9</ele>
        <time>2013-07-10T09:07:40Z</time>
      </trkpt>
      <trkpt lat="46.25577" lon="4.4264">
        <ele>513</ele>
        <time>2013-07-10T09:07:41Z</time>
      </trkpt>
      <trkpt lat="46.25577" lon="4.42636">
        <ele>513</ele>
        <time>2013-07-10T09:07:42Z</time>
      </trkpt>
      <trkpt lat="46.25577" lon="4.42633">
        <ele>512.9</ele>
        <time>2013-07-10T09:07:43Z</time>
      </trkpt>
      <trkpt lat="46.25577" lon="4.42629">
        <ele>513</ele>
        <time>2013-07-10T09:07:44Z</time>
      </trkpt>
      <trkpt lat="46.25577" lon="4.42625">
        <ele>513</ele>
        <time>2013-07-10T09:07:45Z</time>
      </trkpt>
      <trkpt lat="46.25577" lon="4.42622">
        <ele>513</ele>
        <time>2013-07-10T09:07:46Z</time>
      </trkpt>
      <trkpt lat="46.25577" lon="4.42618">
        <ele>513</ele>
        <time>2013-07-10T09:07:47Z</time>
      </trkpt>
      <trkpt lat="46.25577" lon="4.42614">
        <ele>513.2</ele>
        <time>2013-07-10T09:07:48Z</time>
      </trkpt>
      <trkpt lat="46.25578" lon="4.4261">
        <ele>513.3</ele>
        <time>2013-07-10T09:07:49Z</time>
      </trkpt>
      <trkpt lat="46.25578" lon="4.42607">
        <ele>513.3</ele>
        <time>2013-07-10T09:07:50Z</time>
      </trkpt>
      <trkpt lat="46.25579" lon="4.42603">
        <ele>513.4</ele>
        <time>2013-07-10T09:07:51Z</time>
      </trkpt>
      <trkpt lat="46.2558" lon="4.42599">
        <ele>513.5</ele>
        <time>2013-07-10T09:07:52Z</time>
      </trkpt>
      <trkpt lat="46.2558" lon="4.42596">
        <ele>513.6</ele>
        <time>2013-07-10T09:07:53Z</time>
      </trkpt>
      <trkpt lat="46.25581" lon="4.42592">
        <ele>513.7</ele>
        <time>2013-07-10T09:07:54Z</time>
      </trkpt>
      <trkpt lat="46.25582" lon="4.42589">
        <ele>513.8</ele>
        <time>2013-07-10T09:07:55Z</time>
      </trkpt>
      <trkpt lat="46.25583" lon="4.42586">
        <ele>514</ele>
        <time>2013-07-10T09:07:56Z</time>
      </trkpt>
      <trkpt lat="46.25584" lon="4.42583">
        <ele>514.1</ele>
        <time>2013-07-10T09:07:57Z</time>
      </trkpt>
      <trkpt lat="46.25585" lon="4.42579">
        <ele>514</ele>
        <time>2013-07-10T09:07:58Z</time>
      </trkpt>
      <trkpt lat="46.25587" lon="4.42576">
        <ele>514</ele>
        <time>2013-07-10T09:07:59Z</time>
      </trkpt>
      <trkpt lat="46.25588" lon="4.42573">
        <ele>514.1</ele>
        <time>2013-07-10T09:08:00Z</time>
      </trkpt>
      <trkpt lat="46.2559" lon="4.42571">
        <ele>514.1</ele>
        <time>2013-07-10T09:08:01Z</time>
      </trkpt>
      <trkpt lat="46.25592" lon="4.42568">
        <ele>514.2</ele>
        <time>2013-07-10T09:08:02Z</time>
      </trkpt>
      <trkpt lat="46.25594" lon="4.42566">
        <ele>514.4</ele>
        <time>2013-07-10T09:08:03Z</time>
      </trkpt>
      <trkpt lat="46.25596" lon="4.42563">
        <ele>514.5</ele>
        <time>2013-07-10T09:08:04Z</time>
      </trkpt>
      <trkpt lat="46.25598" lon="4.42561">
        <ele>514.6</ele>
        <time>2013-07-10T09:08:05Z</time>
      </trkpt>
      <trkpt lat="46.256" lon="4.42559">
        <ele>514.7</ele>
        <time>2013-07-10T09:08:06Z</time>
      </trkpt>
      <trkpt lat="46.25602" lon="4.42557">
        <ele>514.8</ele>
        <time>2013-07-10T09:08:07Z</time>
      </trkpt>
      <trkpt lat="46.25605" lon="4.42555">
        <ele>515</ele>
        <time>2013-07-10T09:08:08Z</time>
      </trkpt>
      <trkpt lat="46.25607" lon="4.42553">
        <ele>515.1</ele>
        <time>2013-07-10T09:08:09Z</time>
      </trkpt>
      <trkpt lat="46.2561" lon="4.42552">
        <ele>515.3</ele>
        <time>2013-07-10T09:08:10Z</time>
      </trkpt>
      <trkpt lat="46.25612" lon="4.4255">
        <ele>515.3</ele>
        <time>2013-07-10T09:08:11Z</time>
      </trkpt>
      <trkpt lat="46.25615" lon="4.42549">
        <ele>515.3</ele>
        <time>2013-07-10T09:08:12Z</time>
      </trkpt>
      <trkpt lat="46.25617" lon="4.42548">
        <ele>515.3</ele>
        <time>2013-07-10T09:08:13Z</time>
      </trkpt>
      <trkpt lat="46.2562" lon="4.42547">
        <ele>515.4</ele>
        <time>2013-07-10T09:08:14Z</time>
      </trkpt>
      <trkpt lat="46.25622" lon="4.42546">
        <ele>515.5</ele>
        <time>2013-07-10T09:08:15Z</time>
      </trkpt>
      <trkpt lat="46.25625" lon="4.42545">
        <ele>515.5</ele>
        <time>2013-07-10T09:08:16Z</time>
      </trkpt>
      <trkpt lat="46.25629" lon="4.42544">
        <ele>515.6</ele>
        <time>2013-07-10T09:08:17Z</time>
      </trkpt>
      <trkpt lat="46.25633" lon="4.42543">
        <ele>515.8</ele>
        <time>2013-07-10T09:08:18Z</time>
      </trkpt>
      <trkpt lat="46.25636" lon="4.42543">
        <ele>515.9</ele>
        <time>2013-07-10T09:08:19Z</time>
      </trkpt>
      <trkpt lat="46.2564" lon="4.42542">
        <ele>516.1</ele>
        <time>2013-07-10T09:08:20Z</time>
      </trkpt>
      <trkpt lat="46.25644" lon="4.42541">
        <ele>516.2</ele>
        <time>2013-07-10T09:08:21Z</time>
      </trkpt>
      <trkpt lat="46.25648" lon="4.4254">
        <ele>516.3</ele>
        <time>2013-07-10T09:08:22Z</time>
      </trkpt>
      <trkpt lat="46.25651" lon="4.42539">
        <ele>516.2</ele>
        <time>2013-07-10T09:08:23Z</time>
      </trkpt>
      <trkpt lat="46.25655" lon="4.42538">
        <ele>516.3</ele>
        <time>2013-07-10T09:08:24Z</time>
      </trkpt>
      <trkpt lat="46.25658" lon="4.42537">
        <ele>516.3</ele>
        <time>2013-07-10T09:08:25Z</time>
      </trkpt>
      <trkpt lat="46.25662" lon="4.42536">
        <ele>516.3</ele>
        <time>2013-07-10T09:08:26Z</time>
      </trkpt>
      <trkpt lat="46.25666" lon="4.42535">
        <ele>516.3</ele>
        <time>2013-07-10T09:08:27Z</time>
      </trkpt>
      <trkpt lat="46.25669" lon="4.42535">
        <ele>516.2</ele>
        <time>2013-07-10T09:08:28Z</time>
      </trkpt>
      <trkpt lat="46.25673" lon="4.42534">
        <ele>516.1</ele>
        <time>2013-07-10T09:08:29Z</time>
      </trkpt>
      <trkpt lat="46.25676" lon="4.42533">
        <ele>516</ele>
        <time>2013-07-10T09:08:30Z</time>
      </trkpt>
      <trkpt lat="46.25679" lon="4.42533">
        <ele>515.9</ele>
        <time>2013-07-10T09:08:31Z</time>
      </trkpt>
      <trkpt lat="46.25682" lon="4.42532">
        <ele>515.8</ele>
        <time>2013-07-10T09:08:32Z</time>
      </trkpt>
      <trkpt lat="46.25686" lon="4.42531">
        <ele>515.7</ele>
        <time>2013-07-10T09:08:33Z</time>
      </trkpt>
      <trkpt lat="46.25688" lon="4.42531">
        <ele>515.6</ele>
        <time>2013-07-10T09:08:34Z</time>
      </trkpt>
      <trkpt lat="46.25692" lon="4.4253">
        <ele>515.5</ele>
        <time>2013-07-10T09:08:35Z</time>
      </trkpt>
      <trkpt lat="46.25694" lon="4.42529">
        <ele>515.3</ele>
        <time>2013-07-10T09:08:36Z</time>
      </trkpt>
      <trkpt lat="46.25697" lon="4.42528">
        <ele>515</ele>
        <time>2013-07-10T09:08:37Z</time>
      </trkpt>
      <trkpt lat="46.257" lon="4.42527">
        <ele>514.8</ele>
        <time>2013-07-10T09:08:38Z</time>
      </trkpt>
      <trkpt lat="46.25703" lon="4.42526">
        <ele>514.6</ele>
        <time>2013-07-10T09:08:39Z</time>
      </trkpt>
      <trkpt lat="46.25706" lon="4.42525">
        <ele>514.4</ele>
        <time>2013-07-10T09:08:40Z</time>
      </trkpt>
      <trkpt lat="46.25709" lon="4.42524">
        <ele>514.2</ele>
        <time>2013-07-10T09:08:41Z</time>
      </trkpt>
      <trkpt lat="46.25711" lon="4.42523">
        <ele>514.1</ele>
        <time>2013-07-10T09:08:42Z</time>
      </trkpt>
      <trkpt lat="46.25714" lon="4.42522">
        <ele>513.9</ele>
        <time>2013-07-10T09:08:43Z</time>
      </trkpt>
      <trkpt lat="46.25717" lon="4.4252">
        <ele>513.7</ele>
        <time>2013-07-10T09:08:44Z</time>
      </trkpt>
      <trkpt lat="46.2572" lon="4.42519">
        <ele>513.5</ele>
        <time>2013-07-10T09:08:45Z</time>
      </trkpt>
      <trkpt lat="46.25723" lon="4.42518">
        <ele>513.3</ele>
        <time>2013-07-10T09:08:46Z</time>
      </trkpt>
      <trkpt lat="46.25726" lon="4.42518">
        <ele>513.4</ele>
        <time>2013-07-10T09:08:47Z</time>
      </trkpt>
      <trkpt lat="46.25726" lon="4.42518">
        <ele>513.4</ele>
        <time>2013-07-10T09:08:48Z</time>
      </trkpt>
      <trkpt lat="46.25732" lon="4.42515">
        <ele>513.3</ele>
        <time>2013-07-10T09:08:49Z</time>
      </trkpt>
      <trkpt lat="46.25735" lon="4.42514">
        <ele>513.2</ele>
        <time>2013-07-10T09:08:50Z</time>
      </trkpt>
      <trkpt lat="46.25738" lon="4.42513">
        <ele>513.1</ele>
        <time>2013-07-10T09:08:51Z</time>
      </trkpt>
      <trkpt lat="46.2574" lon="4.42512">
        <ele>513</ele>
        <time>2013-07-10T09:08:52Z</time>
      </trkpt>
      <trkpt lat="46.25743" lon="4.42511">
        <ele>513.1</ele>
        <time>2013-07-10T09:08:53Z</time>
      </trkpt>
      <trkpt lat="46.25745" lon="4.4251">
        <ele>512.9</ele>
        <time>2013-07-10T09:08:54Z</time>
      </trkpt>
      <trkpt lat="46.25746" lon="4.42509">
        <ele>512.7</ele>
        <time>2013-07-10T09:08:55Z</time>
      </trkpt>
      <trkpt lat="46.25748" lon="4.42507">
        <ele>512.4</ele>
        <time>2013-07-10T09:08:56Z</time>
      </trkpt>
      <trkpt lat="46.2575" lon="4.42506">
        <ele>512.2</ele>
        <time>2013-07-10T09:08:57Z</time>
      </trkpt>
      <trkpt lat="46.25752" lon="4.42504">
        <ele>512.1</ele>
        <time>2013-07-10T09:08:58Z</time>
      </trkpt>
      <trkpt lat="46.25754" lon="4.42502">
        <ele>511.8</ele>
        <time>2013-07-10T09:08:59Z</time>
      </trkpt>
      <trkpt lat="46.25755" lon="4.425">
        <ele>511.5</ele>
        <time>2013-07-10T09:09:00Z</time>
      </trkpt>
      <trkpt lat="46.25756" lon="4.42498">
        <ele>511.3</ele>
        <time>2013-07-10T09:09:01Z</time>
      </trkpt>
      <trkpt lat="46.25757" lon="4.42496">
        <ele>511.2</ele>
        <time>2013-07-10T09:09:02Z</time>
      </trkpt>
      <trkpt lat="46.25757" lon="4.42496">
        <ele>511.1</ele>
        <time>2013-07-10T09:09:03Z</time>
      </trkpt>
    </trkseg>
  </trk>
</gpx>